Date StartTime U_cm/s V_cm/s W_cm/s Ustd_cm/s Vstd_cm/s Wstd_cm/s Uvar_(cm/s)^2 Vvar_(cm/s)^2 Wvar_(cm/s)^2 KE_(m/s)^2 TurbulentKE_(m/s)^2 HorizWindSpeed_cm/s FrictionSpeec_cm/s DragCoef SpeedOfSound_m/s SonicTemperature_C Pressure_mb 
01/17/2014  00:00:00     -124.744      -68.143        1.386       34.884       39.480       24.355     1216.889     1558.683      593.153        1.179        0.168      142.143       21.582        0.023      332.069        0.493      871.195
01/17/2014  00:01:00     -145.230      -48.657        1.712       42.684       38.636       22.806     1821.919     1492.756      520.093        1.365        0.192      153.164       19.891        0.017      332.080        0.511      871.170
01/17/2014  00:02:00     -150.559      -42.157       -5.843       39.196       25.729       18.688     1536.343      661.963      349.236        1.351        0.127      156.350       18.361        0.014      332.074        0.499      871.158
01/17/2014  00:03:00     -118.484      -31.015       -0.141       37.392       31.911       20.119     1398.193     1018.315      404.780        0.891        0.141      122.476       20.342        0.028      332.059        0.476      871.130
01/17/2014  00:04:00     -101.037      -34.302       -0.845       39.275       33.646       19.986     1542.541     1132.052      399.460        0.723        0.154      106.700       20.149        0.036      332.120        0.575      871.108
01/17/2014  00:05:00     -104.346      -31.542       -3.057       31.685       21.595       18.979     1003.957      466.362      360.184        0.686        0.092      109.009       20.760        0.036      332.100        0.544      871.091
01/17/2014  00:06:00      -97.204      -24.039        2.482       33.344       28.370       19.471     1111.848      804.870      379.121        0.616        0.115      100.132       18.094        0.033      331.979        0.343      871.074
01/17/2014  00:07:00     -113.273      -26.455       -5.871       32.421       20.481       18.017     1051.152      419.467      324.608        0.768        0.090      116.322       17.889        0.024      332.071        0.497      871.048
01/17/2014  00:08:00     -118.112      -27.472       -5.211       30.429       22.306       21.484      925.946      497.551      461.565        0.831        0.094      121.265       18.731        0.024      332.082        0.515      871.027
01/17/2014  00:09:00     -131.029      -33.812       -4.918       32.755       27.813       16.010     1072.899      773.584      256.306        1.022        0.105      135.321       11.277        0.007      332.011        0.396      871.025
01/17/2014  00:10:00     -109.520      -25.961       -4.465       39.008       29.562       20.187     1521.613      873.932      407.501        0.775        0.140      112.555       18.362        0.027      331.915        0.237      871.018
01/17/2014  00:11:00      -62.885       -6.813       -1.977       45.766       29.571       21.380     2094.513      874.455      457.120        0.371        0.171       63.253       22.782        0.130      331.985        0.354      871.020
01/17/2014  00:12:00      -85.463       12.184       -6.100       49.322       37.183       19.023     2432.619     1382.587      361.883        0.583        0.209       86.327       14.717        0.029      332.072        0.498      871.020
01/17/2014  00:13:00     -128.586        6.219      -10.216       35.336       29.837       16.841     1248.622      890.255      283.627        0.955        0.121      128.736       13.431        0.011      332.276        0.835      871.029
01/17/2014  00:14:00     -135.772       10.556       -9.328       40.508       32.899       22.876     1640.860     1082.327      523.299        1.094        0.162      136.181       16.505        0.015      332.172        0.663      871.032
01/17/2014  00:15:00     -166.197       24.544       -7.187       43.854       46.724       29.028     1923.150     2183.122      842.648        1.661        0.247      168.000       24.469        0.021      332.104        0.550      871.024
01/17/2014  00:16:00     -190.266       26.919      -14.007       41.689       37.250       23.758     1737.954     1387.594      564.455        2.041        0.185      192.160       20.752        0.012      332.017        0.403      871.012
01/17/2014  00:17:00     -150.657       10.526      -14.140       34.408       41.268       25.295     1183.938     1703.028      639.842        1.327        0.176      151.024       13.694        0.008      332.033        0.433      871.009
01/17/2014  00:18:00     -148.820       12.105      -10.579       34.713       49.201       24.088     1204.962     2420.714      580.216        1.330        0.210      149.311       13.371        0.008      331.955        0.303      871.019
01/17/2014  00:19:00     -204.159       35.244      -20.596       36.872       31.554       23.037     1359.521      995.651      530.683        2.312        0.144      207.179       15.620        0.006      331.990        0.359      871.019
01/17/2014  00:20:00     -175.501       33.042      -15.949       41.362       32.817       22.032     1710.776     1076.955      485.422        1.771        0.164      178.584       17.758        0.010      331.936        0.272      871.013
01/17/2014  00:21:00     -144.272       40.995      -13.673       51.831       38.460       24.598     2686.440     1479.163      605.071        1.373        0.239      149.983       14.591        0.009      332.057        0.472      870.991
01/17/2014  00:22:00      -71.211       32.189       -5.428       47.687       23.426       23.096     2274.097      548.792      533.420        0.475        0.168       78.148       21.855        0.078      332.172        0.662      870.968
01/17/2014  00:23:00      -49.605       -3.858      -13.626       30.075       24.626       15.582      904.483      606.419      242.788        0.221        0.088       49.755       16.536        0.110      332.027        0.423      870.955
01/17/2014  00:24:00      -29.887      -18.707       -8.259       32.965       20.135       15.760     1086.697      405.409      248.378        0.153        0.087       35.259       11.251        0.102      331.884        0.186      870.964
01/17/2014  00:25:00        3.664      -30.367       -0.949       21.748       19.951       13.135      472.972      398.041      172.517        0.099        0.052       30.587       11.570        0.143      331.984        0.352      870.976
01/17/2014  00:26:00      -32.025      -29.750      -11.424       21.188       21.080       11.165      448.931      444.361      124.655        0.153        0.051       43.712       12.405        0.081      332.215        0.734      870.976
01/17/2014  00:27:00       12.109        7.188        4.244       13.072        9.976        7.753      170.876       99.513       60.114        0.027        0.017       14.082        4.957        0.124      332.365        0.980      870.975
01/17/2014  00:28:00       37.953       16.088       -1.285        6.393        9.013        9.257       40.866       81.230       85.690        0.095        0.010       41.222        2.667        0.004      332.177        0.671      870.981
01/17/2014  00:29:00       19.091       23.846       -6.743        9.567        8.670        3.298       91.524       75.168       10.878        0.058        0.009       30.546        1.208        0.002      332.285        0.847      870.990
01/17/2014  00:30:00       -2.109       24.301       -2.725        8.952        8.585        5.655       80.129       73.696       31.981        0.039        0.009       24.392        4.926        0.041      332.602        1.370      870.991
01/17/2014  00:31:00      -31.047      -27.530       -9.751       11.769       14.238       12.239      138.502      202.728      149.799        0.115        0.025       41.495        9.491        0.052      332.056        0.471      870.992
01/17/2014  00:32:00      -60.294      -34.087      -11.110       13.607       15.447        7.562      185.160      238.620       57.178        0.270        0.024       69.263        4.634        0.004      331.796        0.043      870.993
01/17/2014  00:33:00      -71.881      -13.465      -15.633       10.865        9.894        9.402      118.051       97.887       88.389        0.295        0.015       73.131        4.439        0.004      331.861        0.148      870.991
01/17/2014  00:34:00     -100.419       -2.665      -16.626       26.935       10.908       10.952      725.519      118.990      119.955        0.567        0.048      100.454        5.671        0.003      331.834        0.104      870.984
01/17/2014  00:35:00     -132.388      -11.300      -23.789       10.521       13.176        9.557      110.688      173.594       91.342        0.930        0.019      132.869        3.086        0.001      331.830        0.098      870.986
01/17/2014  00:36:00     -124.924      -44.453      -21.057       13.077       10.720       13.641      171.010      114.910      186.069        0.925        0.024      132.598        8.118        0.004      331.628       -0.234      870.999
01/17/2014  00:37:00     -144.372      -37.391      -16.011       15.351       17.847       11.987      235.668      318.524      143.686        1.160        0.035      149.135        4.792        0.001      331.674       -0.159      871.013
01/17/2014  00:38:00     -117.830      -12.723      -14.870       25.505       16.308       15.950      650.484      265.953      254.410        0.772        0.059      118.515       12.618        0.011      331.731       -0.064      871.005
01/17/2014  00:39:00     -115.284      -17.028      -24.828        7.171        7.960        6.577       51.419       63.362       43.262        0.718        0.008      116.535        2.897        0.001      331.759       -0.018      870.995
01/17/2014  00:40:00      -97.595      -15.098      -17.082       20.074       14.368       11.775      402.970      206.442      138.656        0.540        0.037       98.756        8.678        0.008      331.772        0.002      870.991
01/17/2014  00:41:00     -125.640      -42.734      -21.394       10.750       13.390       12.878      115.566      179.283      165.848        0.926        0.023      132.709        4.097        0.001      331.672       -0.162      870.998
01/17/2014  00:42:00     -137.640      -62.185      -17.713       15.169       18.728       11.748      230.092      350.748      138.017        1.192        0.036      151.036       10.154        0.005      331.628       -0.235      870.998
01/17/2014  00:43:00     -145.610      -55.380      -12.638       22.541       15.484       11.949      508.115      239.745      142.789        1.266        0.045      155.786        5.047        0.001      331.697       -0.120      871.003
01/17/2014  00:44:00     -133.817      -61.276       -8.517       16.387       16.078       13.750      268.546      258.513      189.071        1.123        0.036      147.179        6.467        0.002      331.637       -0.218      871.011
01/17/2014  00:45:00     -118.301      -74.729       -3.632       49.473       28.419       21.635     2447.529      807.657      468.068        1.166        0.186      139.927       13.025        0.009      331.575       -0.320      871.011
01/17/2014  00:46:00     -115.312      -66.753        6.058       48.131       38.872       26.248     2316.636     1511.042      688.948        1.115        0.226      133.239       28.951        0.047      331.542       -0.377      871.019
01/17/2014  00:47:00     -129.213      -73.620       -4.875       37.440       25.455       21.722     1401.755      647.950      471.841        1.233        0.126      148.714       21.383        0.021      331.572       -0.326      871.015
01/17/2014  00:48:00     -119.739      -56.467      -10.245       31.124       24.501       16.119      968.676      600.280      259.838        0.973        0.091      132.386        9.285        0.005      331.570       -0.329      871.013
01/17/2014  00:49:00     -119.394      -60.164      -16.344       21.925       22.733       14.811      480.695      516.789      219.359        0.968        0.061      133.696        9.816        0.005      331.529       -0.399      871.012
01/17/2014  00:50:00     -135.829      -54.550      -10.052       29.973       20.402       16.494      898.374      416.246      272.036        1.156        0.079      146.374       16.415        0.013      331.576       -0.320      871.015
01/17/2014  00:51:00     -109.412      -30.086       -6.658       30.074       19.042       14.525      904.453      362.612      210.985        0.720        0.074      113.473       11.182        0.010      331.559       -0.347      871.022
01/17/2014  00:52:00      -95.072      -33.472       -9.100       16.627       16.606       11.838      276.447      275.753      140.136        0.547        0.035      100.792        9.079        0.008      331.572       -0.326      871.032
01/17/2014  00:53:00     -111.561      -41.867      -17.766        9.426       11.098        7.214       88.848      123.167       52.036        0.739        0.013      119.159        3.375        0.001      331.522       -0.410      871.040
01/17/2014  00:54:00     -108.244      -49.237      -13.411        7.775        9.485        6.612       60.457       89.973       43.712        0.726        0.010      118.916        1.966        0.000      331.536       -0.387      871.043
01/17/2014  00:55:00     -110.743      -43.243      -15.862        8.676        9.590        7.283       75.271       91.966       53.047        0.730        0.011      118.886        3.845        0.001      331.543       -0.375      871.038
01/17/2014  00:56:00      -98.698      -31.864      -10.278       15.509       13.883       12.961      240.526      192.724      167.986        0.573        0.030      103.714        6.701        0.004      331.560       -0.346      871.044
01/17/2014  00:57:00      -91.719      -45.801      -13.993       11.368       10.359       11.279      129.230      107.304      127.222        0.553        0.018      102.519        7.861        0.006      331.536       -0.386      871.051
01/17/2014  00:58:00      -74.478      -37.602       -9.657       11.254        9.173        9.038      126.661       84.145       81.677        0.367        0.015       83.432        5.339        0.004      331.593       -0.291      871.058
01/17/2014  00:59:00      -77.687      -24.894      -15.627        8.247        9.863        6.515       68.020       97.273       42.443        0.355        0.010       81.578        4.144        0.003      331.647       -0.203      871.061
01/17/2014  01:00:00      -84.963      -17.789      -12.693        8.414        9.286        9.740       70.794       86.236       94.876        0.397        0.013       86.805        2.360        0.001      331.675       -0.156      871.064
01/17/2014  01:01:00      -98.698      -26.290      -13.515       12.864       10.862        9.987      165.489      117.989       99.731        0.550        0.019      102.139        8.867        0.008      331.635       -0.223      871.074
01/17/2014  01:02:00     -115.782      -43.531      -17.466       16.124       11.101       10.025      259.994      123.239      100.498        0.804        0.024      123.694        9.000        0.005      331.625       -0.239      871.097
01/17/2014  01:03:00     -146.298      -70.966       -7.036       28.669       26.001       15.631      821.892      676.033      244.331        1.412        0.087      162.601       15.910        0.010      331.560       -0.346      871.104
01/17/2014  01:04:00     -146.797      -65.546       -9.923       24.008       25.319       15.168      576.363      641.032      230.079        1.370        0.072      160.766        9.514        0.004      331.407       -0.599      871.113
01/17/2014  01:05:00      -77.064      -44.174        2.384       58.041       37.440       23.437     3368.704     1401.737      549.272        0.661        0.266       88.827       16.903        0.036      331.393       -0.622      871.118
01/17/2014  01:06:00     -105.093      -68.901        1.451       59.726       34.200       29.591     3567.231     1169.642      875.640        1.070        0.281      125.666       28.900        0.053      331.469       -0.496      871.136
01/17/2014  01:07:00      -93.347      -65.148        1.085       43.183       33.168       26.772     1864.735     1100.087      716.729        0.832        0.184      113.833       26.203        0.053      331.513       -0.424      871.151
01/17/2014  01:08:00      -71.550      -46.470        8.932       44.397       26.141       21.299     1971.076      683.347      453.647        0.523        0.155       85.316       23.962        0.079      331.533       -0.391      871.169
01/17/2014  01:09:00      -85.986      -54.029       -2.735       45.738       27.355       17.241     2091.948      748.279      297.262        0.673        0.157      101.551       17.808        0.031      331.497       -0.450      871.173
01/17/2014  01:10:00     -103.872      -63.730       -5.518       37.549       22.607       15.627     1409.962      511.095      244.203        0.852        0.108      121.864        9.811        0.006      331.467       -0.500      871.170
01/17/2014  01:11:00      -94.807      -58.647       -9.195       21.821       20.344       15.732      476.154      413.879      247.494        0.682        0.057      111.480       11.563        0.011      331.411       -0.590      871.172
01/17/2014  01:12:00     -112.034      -63.549      -13.228       22.224       18.070       16.377      493.895      326.523      268.210        0.893        0.054      128.802        5.954        0.002      331.344       -0.701      871.179
01/17/2014  01:13:00      -67.361      -47.875       -6.390       28.844       21.194       15.594      831.951      449.198      243.167        0.420        0.076       82.641        8.109        0.010      331.289       -0.792      871.191
01/17/2014  01:14:00      -79.096      -44.163        2.438       29.476       27.390       14.513      868.847      750.222      210.631        0.502        0.091       90.590       16.129        0.032      331.378       -0.646      871.193
01/17/2014  01:15:00      -77.003      -39.597       -0.443       31.840       16.231       12.538     1013.770      263.456      157.189        0.447        0.072       86.587       13.756        0.025      331.415       -0.586      871.185
01/17/2014  01:16:00      -88.632      -39.524       -0.480       17.337       10.426        8.983      300.558      108.699       80.687        0.495        0.024       97.045        8.085        0.007      331.521       -0.409      871.167
01/17/2014  01:17:00      -69.205      -39.370       -3.083       13.339       15.615       10.411      177.926      243.837      108.383        0.344        0.027       79.620        6.893        0.007      331.523       -0.407      871.165
01/17/2014  01:18:00      -76.230      -18.726      -11.005        7.146       10.701        7.332       51.069      114.519       53.765        0.325        0.011       78.497        4.390        0.003      331.515       -0.420      871.168
01/17/2014  01:19:00      -71.322      -18.420      -13.811        8.834       11.266        7.245       78.041      126.917       52.490        0.294        0.013       73.662        5.953        0.007      331.502       -0.442      871.168
01/17/2014  01:20:00      -79.896      -26.515      -12.594       10.970        8.988        9.399      120.340       80.791       88.339        0.377        0.014       84.181        4.615        0.003      331.512       -0.426      871.169
01/17/2014  01:21:00      -91.913      -29.716      -17.090        8.955        7.301        6.843       80.201       53.311       46.820        0.490        0.009       96.597        3.524        0.001      331.455       -0.520      871.163
01/17/2014  01:22:00      -67.562      -38.168      -10.044       19.583       15.787       11.732      383.478      249.236      137.639        0.345        0.039       77.597        9.422        0.015      331.460       -0.511      871.165
01/17/2014  01:23:00      -45.557      -38.310       -1.397       17.471       19.761       18.066      305.224      390.488      326.365        0.228        0.051       59.524        7.836        0.017      331.496       -0.451      871.188
01/17/2014  01:24:00      -47.940      -28.803       -2.291       18.314       18.484       13.096      335.399      341.645      171.511        0.199        0.042       55.928        9.555        0.029      331.511       -0.427      871.215
01/17/2014  01:25:00      -57.740      -30.576      -14.138       17.181       12.327       10.842      295.194      151.943      117.546        0.252        0.028       65.336        5.281        0.007      331.440       -0.544      871.239
01/17/2014  01:26:00      -49.968      -27.258      -15.051       17.372       19.293       10.956      301.773      372.207      120.033        0.213        0.040       56.919        4.330        0.006      331.559       -0.347      871.251
01/17/2014  01:27:00      -31.511      -24.270      -13.291        9.395       12.583        7.007       88.258      158.341       49.104        0.103        0.015       39.774        4.517        0.013      331.697       -0.120      871.263
01/17/2014  01:28:00      -26.266      -23.530       -0.456       10.502       11.935       11.800      110.298      142.432      139.230        0.082        0.020       35.265        9.057        0.066      331.758       -0.020      871.268
01/17/2014  01:29:00      -14.246      -13.514        7.337        7.555        7.172        5.928       57.073       51.442       35.138        0.029        0.007       19.636        3.660        0.035      331.550       -0.362      871.281
01/17/2014  01:30:00      -24.529      -16.507        2.557       21.716       11.674       12.409      471.586      136.275      153.975        0.082        0.038       29.566       12.619        0.182      331.521       -0.408      871.292
01/17/2014  01:31:00      -25.587      -21.173        1.483       16.409       13.102        8.876      269.268      171.662       78.784        0.081        0.026       33.211        8.290        0.062      331.493       -0.458      871.306
01/17/2014  01:32:00      -48.898      -21.763       -4.162       13.719        8.044        8.949      188.222       64.704       80.091        0.161        0.017       53.522        7.338        0.019      331.461       -0.509      871.319
01/17/2014  01:33:00      -64.985      -14.771      -10.067        7.119        8.058        8.249       50.686       64.939       68.041        0.236        0.009       66.642        4.654        0.005      331.457       -0.518      871.331
01/17/2014  01:34:00      -56.598      -12.971       -5.515       10.791        7.281        6.918      116.449       53.012       47.860        0.181        0.011       58.065        5.714        0.010      331.457       -0.516      871.340
01/17/2014  01:35:00      -66.623       -5.301      -12.614       14.108        9.672        7.842      199.035       93.540       61.501        0.249        0.018       66.834        4.991        0.006      331.380       -0.642      871.352
01/17/2014  01:36:00      -96.802        3.434      -10.836       20.431       10.053       11.389      417.418      101.055      129.718        0.507        0.032       96.862        9.896        0.010      331.310       -0.757      871.371
01/17/2014  01:37:00     -113.051      -13.059      -10.715       20.911       15.619       11.686      437.250      243.938      136.559        0.694        0.041      113.802       11.157        0.010      331.329       -0.725      871.386
01/17/2014  01:38:00     -103.782      -33.762      -10.670       23.286       15.679       12.764      542.253      245.829      162.910        0.649        0.048      109.136       12.384        0.013      331.399       -0.612      871.414
01/17/2014  01:39:00     -111.502      -36.991       -9.984       11.927       14.034       10.720      142.247      196.965      114.915        0.718        0.023      117.478        6.801        0.003      331.327       -0.730      871.417
01/17/2014  01:40:00     -126.959      -18.995      -16.213       22.234       15.320       12.366      494.370      234.700      152.921        0.881        0.044      128.372       10.281        0.006      331.236       -0.880      871.404
01/17/2014  01:41:00     -109.885      -30.250       -8.996       20.440       14.909       11.862      417.808      222.287      140.710        0.693        0.039      113.973        8.807        0.006      331.214       -0.914      871.398
01/17/2014  01:42:00      -84.931      -18.772       -3.531       20.449       15.677       13.657      418.180      245.775      186.520        0.421        0.043       86.981       10.515        0.015      331.179       -0.972      871.407
01/17/2014  01:43:00      -64.092      -28.479       -3.342       18.042       14.087       10.236      325.515      198.453      104.782        0.278        0.031       70.135        8.155        0.014      331.264       -0.833      871.427
01/17/2014  01:44:00      -77.821      -37.857       -2.669       15.895       13.248        8.142      252.642      175.498       66.298        0.400        0.025       86.541        8.138        0.009      331.306       -0.763      871.436
01/17/2014  01:45:00      -93.662      -35.583       -6.691       16.004       16.786       11.032      256.144      281.773      121.703        0.537        0.033      100.194        9.917        0.010      331.295       -0.781      871.431
01/17/2014  01:46:00     -113.853      -14.782      -12.748       14.072       12.557       11.012      198.009      157.678      121.261        0.691        0.024      114.808        4.990        0.002      331.273       -0.818      871.426
01/17/2014  01:47:00     -101.929      -18.421       -7.260       22.135       12.551       11.717      489.937      157.533      137.278        0.578        0.039      103.580       11.571        0.012      331.253       -0.851      871.423
01/17/2014  01:48:00     -105.782      -15.423       -9.205       18.849       14.274       15.067      355.287      203.747      227.029        0.615        0.039      106.901       12.602        0.014      331.164       -0.997      871.418
01/17/2014  01:49:00     -117.060      -24.316      -17.455        6.025        7.866        6.464       36.303       61.876       41.790        0.737        0.007      119.559        2.166        0.000      331.190       -0.955      871.416
01/17/2014  01:50:00     -111.445      -25.633      -15.808       10.933        9.436       10.286      119.523       89.047      105.805        0.682        0.016      114.355        6.464        0.003      331.188       -0.956      871.417
01/17/2014  01:51:00     -101.916      -22.446      -13.160       19.476       19.354       12.538      379.299      374.591      157.200        0.599        0.046      104.359       11.212        0.012      331.138       -1.041      871.412
01/17/2014  01:52:00     -105.551      -12.624      -18.087       17.706       20.164       13.389      313.506      406.576      179.270        0.626        0.045      106.304       11.477        0.012      331.148       -1.024      871.417
01/17/2014  01:53:00      -59.201      -34.261       -6.867       19.928       21.961       14.131      397.140      482.272      199.696        0.290        0.054       68.400        9.791        0.020      331.125       -1.062      871.424
01/17/2014  01:54:00      -66.499       -8.142      -12.251       17.304       19.978       11.418      299.421      399.131      130.370        0.273        0.041       66.995        9.697        0.021      331.109       -1.088      871.425
01/17/2014  01:55:00      -73.962       -1.855      -13.116       14.914       15.743       11.776      222.425      247.844      138.667        0.313        0.030       73.985        9.259        0.016      331.188       -0.957      871.427
01/17/2014  01:56:00      -61.246       -3.864      -11.990       16.612       13.273        8.908      275.966      176.180       79.352        0.222        0.027       61.368        7.637        0.015      331.239       -0.874      871.429
01/17/2014  01:57:00      -49.466       -3.228      -12.660        9.759        9.011        8.824       95.233       81.193       77.868        0.144        0.013       49.571        6.191        0.016      331.235       -0.879      871.443
01/17/2014  01:58:00      -45.538      -10.205      -13.038       10.799       10.543        9.168      116.612      111.152       84.055        0.133        0.016       46.668        7.116        0.023      331.314       -0.750      871.467
01/17/2014  01:59:00      -68.530      -12.237      -14.095       14.544        9.682        7.104      211.514       93.738       50.467        0.270        0.018       69.614        7.031        0.010      331.133       -1.050      871.485
01/17/2014  02:00:00      -70.390      -11.235      -15.730       12.590       12.113        7.889      158.505      146.714       62.239        0.285        0.018       71.281        3.711        0.003      331.034       -1.211      871.497
01/17/2014  02:01:00      -51.718      -27.009      -11.474       14.125       11.000        9.299      199.509      120.995       86.465        0.197        0.020       58.345        8.060        0.019      331.084       -1.129      871.504
01/17/2014  02:02:00      -65.828      -21.139      -13.370       11.868       10.573        8.857      140.843      111.787       78.445        0.264        0.017       69.139        4.071        0.003      331.086       -1.126      871.504
01/17/2014  02:03:00     -101.951      -13.364      -14.125       19.508       14.737       11.435      380.545      217.165      130.758        0.575        0.036      102.824        8.822        0.007      331.004       -1.260      871.501
01/17/2014  02:04:00      -92.767      -32.519       -9.190       15.350       18.544       13.923      235.615      343.882      193.844        0.526        0.039       98.301        5.486        0.003      330.987       -1.288      871.503
01/17/2014  02:05:00      -81.664      -29.673       -8.029       14.958       16.057       10.927      223.752      257.813      119.404        0.411        0.030       86.887        3.388        0.002      331.040       -1.201      871.510
01/17/2014  02:06:00      -77.450      -15.315       -5.404       29.941       22.335       11.706      896.446      498.854      137.041        0.390        0.077       78.950       11.134        0.020      331.132       -1.049      871.505
01/17/2014  02:07:00      -70.213      -31.023      -11.620       20.617       22.520       14.721      425.081      507.151      216.699        0.359        0.057       76.761       11.638        0.023      331.006       -1.256      871.505
01/17/2014  02:08:00      -70.610      -13.373       -4.682       22.766       24.575       15.460      518.300      603.924      239.026        0.327        0.068       71.865       15.770        0.048      331.015       -1.242      871.498
01/17/2014  02:09:00      -92.192      -13.240      -12.582       21.014       15.074       12.693      441.578      227.229      161.106        0.483        0.041       93.138        9.814        0.011      331.021       -1.232      871.497
01/17/2014  02:10:00      -46.473      -22.951        2.889       19.966       24.619       17.084      398.625      606.109      291.856        0.200        0.065       51.832       11.927        0.053      331.003       -1.262      871.502
01/17/2014  02:11:00      -60.662      -19.303       -7.400       26.051       20.523       18.184      678.668      421.198      330.671        0.277        0.072       63.659       16.245        0.065      331.000       -1.266      871.500
01/17/2014  02:12:00      -53.162      -36.044       -7.632       27.358       25.798       22.258      748.451      665.542      495.402        0.305        0.095       64.229       19.778        0.095      330.994       -1.276      871.515
01/17/2014  02:13:00      -52.170      -19.665       -2.179       26.030       31.882       13.776      677.585     1016.490      189.768        0.250        0.094       55.753       14.221        0.065      331.018       -1.238      871.522
01/17/2014  02:14:00      -72.120        2.019       -8.135       17.603       14.944       14.340      309.882      223.327      205.633        0.301        0.037       72.148        7.208        0.010      331.061       -1.167      871.533
01/17/2014  02:15:00      -73.431      -10.038      -12.372       20.334       15.784       12.518      413.491      249.122      156.703        0.323        0.041       74.114       12.470        0.028      331.113       -1.081      871.525
01/17/2014  02:16:00      -64.361      -15.520       -2.891       20.154       17.807       15.542      406.177      317.079      241.560        0.268        0.048       66.206       12.808        0.037      331.128       -1.058      871.525
01/17/2014  02:17:00      -80.379      -12.925      -13.477       17.960       16.923        9.507      322.563      286.398       90.375        0.375        0.035       81.411        8.064        0.010      331.115       -1.079      871.525
01/17/2014  02:18:00      -90.765      -10.130      -17.619       14.339       14.363        9.782      205.609      206.310       95.697        0.458        0.025       91.329        4.443        0.002      331.073       -1.147      871.519
01/17/2014  02:19:00      -82.164      -10.283      -11.560       27.562       20.971       17.492      759.682      439.778      305.958        0.425        0.075       82.805       14.871        0.032      331.019       -1.235      871.510
01/17/2014  02:20:00     -114.436        0.218      -13.377       25.040       21.240       17.114      626.988      451.119      292.892        0.732        0.069      114.436       12.183        0.011      330.923       -1.392      871.506
01/17/2014  02:21:00      -87.801      -16.462      -12.210       25.433       20.583       13.061      646.832      423.667      170.577        0.468        0.062       89.331       11.555        0.017      330.892       -1.443      871.499
01/17/2014  02:22:00      -89.478      -41.937       -3.189       16.796       28.547       17.464      282.097      814.952      304.977        0.559        0.070       98.818       13.079        0.018      330.905       -1.423      871.492
01/17/2014  02:23:00      -92.883      -35.428       -7.952       23.858       24.661       15.988      569.181      608.143      255.625        0.569        0.072       99.411       10.240        0.011      330.881       -1.462      871.473
01/17/2014  02:24:00      -83.486      -32.173      -11.595       21.147       19.700       14.798      447.208      388.089      218.967        0.460        0.053       89.470        7.729        0.007      330.932       -1.378      871.453
01/17/2014  02:25:00      -76.257      -32.002      -10.553       17.713       25.852       17.047      313.753      668.337      290.597        0.411        0.064       82.700        6.375        0.006      330.925       -1.390      871.440
01/17/2014  02:26:00      -71.296      -18.659      -16.168       24.522       19.878       14.319      601.351      395.116      205.021        0.345        0.060       73.698       12.637        0.029      330.956       -1.338      871.433
01/17/2014  02:27:00      -52.311       -9.439      -10.512       28.606       17.710       16.466      818.316      313.640      271.126        0.217        0.070       53.156       17.104        0.104      331.000       -1.268      871.427
01/17/2014  02:28:00      -89.795      -24.302      -14.533       15.755       11.578       10.913      248.230      134.051      119.084        0.468        0.025       93.026        6.837        0.005      331.011       -1.249      871.411
01/17/2014  02:29:00      -91.400       -8.274      -16.144       21.131       16.668       12.334      446.521      277.811      152.132        0.478        0.044       91.774       11.089        0.015      331.063       -1.163      871.390
01/17/2014  02:30:00      -87.433      -27.922      -12.337       14.999       14.441       12.312      224.959      208.548      151.576        0.458        0.029       91.783        8.242        0.008      331.030       -1.220      871.373
01/17/2014  02:31:00      -98.217      -11.042      -15.908       11.942       10.956       12.348      142.610      120.033      152.463        0.522        0.021       98.836        8.677        0.008      331.033       -1.212      871.364
01/17/2014  02:32:00      -81.044      -30.735       -6.612       14.178       15.110       14.641      201.027      228.315      214.363        0.410        0.032       86.676        6.334        0.005      331.028       -1.222      871.365
01/17/2014  02:33:00      -92.879      -45.709      -15.406       16.407       23.905        8.844      269.188      571.439       78.211        0.594        0.046      103.517        6.933        0.004      331.073       -1.147      871.377
01/17/2014  02:34:00     -103.184      -37.765      -12.720       10.253        8.945        6.916      105.129       80.006       47.836        0.623        0.012      109.878        2.238        0.000      331.038       -1.205      871.384
01/17/2014  02:35:00     -112.232      -31.982      -12.910       11.282       16.550        9.312      127.288      273.899       86.717        0.714        0.024      116.700        6.930        0.004      331.137       -1.041      871.380
01/17/2014  02:36:00     -115.075      -41.159       -9.365       15.094       13.214       10.087      227.835      174.598      101.747        0.776        0.025      122.214        5.030        0.002      331.069       -1.153      871.385
01/17/2014  02:37:00     -111.023      -42.620       -0.480       16.729       18.830       12.401      279.867      354.551      153.793        0.747        0.039      118.922        9.692        0.007      331.118       -1.072      871.392
01/17/2014  02:38:00      -84.395      -45.349        0.163       49.680       26.365       19.729     2468.084      695.104      389.233        0.637        0.178       95.808       20.773        0.047      330.972       -1.312      871.397
01/17/2014  02:39:00      -92.102      -84.012       -7.488       26.506       28.244       19.265      702.547      797.720      371.151        0.873        0.094      124.663       17.229        0.019      330.970       -1.317      871.398
01/17/2014  02:40:00      -89.229      -58.457      -10.260       26.854       26.023       12.385      721.148      677.212      153.381        0.652        0.078      106.673        7.665        0.005      330.957       -1.337      871.396
01/17/2014  02:41:00      -73.203      -49.874       -1.728       32.514       26.129       16.940     1057.149      682.699      286.978        0.494        0.101       88.578       20.596        0.054      330.908       -1.417      871.389
01/17/2014  02:42:00      -47.605      -34.322       -2.184       43.521       22.066       11.667     1894.049      486.916      136.109        0.298        0.126       58.688       14.854        0.064      330.984       -1.294      871.381
01/17/2014  02:43:00      -62.639      -40.648       -1.408       38.828       20.672       14.275     1507.638      427.341      203.777        0.386        0.107       74.672       13.766        0.034      330.928       -1.384      871.370
01/17/2014  02:44:00      -92.178      -43.529       -3.157       29.552       29.119       17.022      873.292      847.899      289.761        0.621        0.101      101.938       17.017        0.028      330.952       -1.345      871.352
01/17/2014  02:45:00      -68.607      -21.009        0.533       32.495       20.137       18.180     1055.945      405.500      330.519        0.347        0.090       71.752       18.774        0.068      330.894       -1.441      871.348
01/17/2014  02:46:00     -108.871      -27.728        2.347       32.511       23.514       19.806     1056.949      552.926      392.279        0.731        0.100      112.347       17.013        0.023      330.934       -1.375      871.343
01/17/2014  02:47:00     -124.773      -54.770       -2.994       19.116       17.352       14.064      365.405      301.104      197.784        0.972        0.043      136.265        9.917        0.005      330.965       -1.325      871.335
01/17/2014  02:48:00      -82.222      -33.967        2.771       47.335       22.574       18.808     2240.617      509.569      353.759        0.551        0.155       88.962       25.115        0.080      330.928       -1.386      871.341
01/17/2014  02:49:00      -65.760      -18.929        1.918       41.281       22.282       15.773     1704.083      496.470      248.803        0.357        0.122       68.430       17.498        0.065      330.922       -1.395      871.346
01/17/2014  02:50:00      -94.997      -31.433        3.410       27.363       21.972       16.781      748.712      482.759      281.602        0.577        0.076      100.062       13.492        0.018      330.969       -1.319      871.341
01/17/2014  02:51:00     -121.798      -46.152       -3.075       22.597       29.047       18.033      510.627      843.727      325.196        0.933        0.084      130.249       13.408        0.011      330.975       -1.309      871.343
01/17/2014  02:52:00      -99.893      -61.640       -0.980       45.175       25.376       14.421     2040.740      643.935      207.963        0.834        0.145      117.380       14.435        0.015      331.008       -1.254      871.343
01/17/2014  02:53:00      -93.275      -29.449        1.425       33.009       26.318       15.830     1089.565      692.640      250.574        0.580        0.102       97.814       13.416        0.019      331.008       -1.254      871.357
01/17/2014  02:54:00     -107.699      -37.163        3.012       34.365       26.815       17.870     1180.973      719.046      319.325        0.760        0.111      113.931       17.183        0.023      330.938       -1.369      871.360
01/17/2014  02:55:00      -80.506      -30.123        6.123       43.420       27.127       17.797     1885.332      735.847      316.745        0.518        0.147       85.957       21.209        0.061      330.945       -1.357      871.364
01/17/2014  02:56:00     -110.317      -42.290       -0.899       24.021       28.053       15.203      577.005      786.978      231.120        0.778        0.080      118.145       10.690        0.008      330.990       -1.285      871.362
01/17/2014  02:57:00      -98.196      -38.630        3.770       46.507       29.375       21.445     2162.859      862.873      459.888        0.732        0.174      105.522       24.085        0.052      331.011       -1.249      871.365
01/17/2014  02:58:00     -121.788      -64.647       -0.628       35.782       20.749       17.017     1280.350      430.503      289.575        1.051        0.100      137.882       16.857        0.015      330.984       -1.293      871.367
01/17/2014  02:59:00     -137.827      -23.213       -8.488       26.789       34.209       15.311      717.660     1170.283      234.418        1.086        0.106      139.768       14.434        0.011      330.900       -1.433      871.379
01/17/2014  03:00:00     -135.991      -19.131      -12.131       31.205       20.273       17.208      973.747      410.986      296.117        1.034        0.084      137.330       16.991        0.015      330.784       -1.621      871.380
01/17/2014  03:01:00      -87.406      -13.070       -1.220       55.817       32.079       24.050     3115.484     1029.088      578.395        0.627        0.236       88.378       22.572        0.065      330.785       -1.619      871.370
01/17/2014  03:02:00      -95.672       11.537       -1.111       42.948       33.221       22.458     1844.564     1103.614      504.372        0.637        0.173       96.365       18.829        0.038      330.902       -1.428      871.356
01/17/2014  03:03:00     -106.518       17.709       -9.518       34.618       27.688       15.353     1198.404      766.628      235.704        0.698        0.110      107.980       16.812        0.024      330.986       -1.289      871.342
01/17/2014  03:04:00     -107.481      -14.757      -13.868       18.636       19.889       12.932      347.287      395.553      167.248        0.644        0.046      108.490        8.105        0.006      330.964       -1.325      871.336
01/17/2014  03:05:00      -95.912       -8.111       -8.552       22.661       27.836       16.166      513.506      774.824      261.335        0.544        0.077       96.255       11.705        0.015      330.807       -1.583      871.325
01/17/2014  03:06:00      -86.446       -1.159       -2.561       40.930       29.412       19.077     1675.281      865.036      363.939        0.519        0.145       86.453       17.274        0.040      330.884       -1.458      871.318
01/17/2014  03:07:00      -75.274      -10.577      -10.297       20.681       18.356       12.952      427.724      336.952      167.750        0.341        0.047       76.014        9.371        0.015      330.854       -1.507      871.311
01/17/2014  03:08:00      -67.823      -21.840      -13.987       18.051       18.470       11.225      325.844      341.150      125.994        0.303        0.040       71.253        8.792        0.015      330.728       -1.714      871.315
01/17/2014  03:09:00      -14.876      -29.737       -1.995       41.483       18.778       17.259     1720.848      352.623      297.890        0.174        0.119       33.251       18.768        0.319      330.802       -1.590      871.314
01/17/2014  03:10:00        2.691       -3.299        8.898       10.293        8.425        7.914      105.954       70.984       62.633        0.017        0.012        4.257        4.466        1.100      330.767       -1.649      871.317
01/17/2014  03:11:00       -7.433      -13.461       -5.375       18.920       14.785       13.973      357.969      218.582      195.243        0.052        0.039       15.377       10.377        0.455      330.734       -1.703      871.317
01/17/2014  03:12:00      -26.299      -24.925       -2.387       23.009       12.761       18.136      529.398      162.851      328.917        0.117        0.051       36.234       11.085        0.094      330.763       -1.657      871.321
01/17/2014  03:13:00      -15.735      -22.403       -4.302       20.343       11.784       12.058      413.831      138.874      145.383        0.073        0.035       27.377        2.490        0.008      330.760       -1.662      871.327
01/17/2014  03:14:00      -66.389      -27.321       -8.928       14.667       20.278       12.840      215.135      411.206      164.873        0.301        0.040       71.791        9.309        0.017      330.685       -1.785      871.340
01/17/2014  03:15:00      -63.191      -57.161       -7.202       15.279       18.282       12.432      233.457      334.244      154.561        0.402        0.036       85.208        4.853        0.003      330.682       -1.788      871.347
01/17/2014  03:16:00      -94.892      -49.377      -12.801       11.026       19.976        9.078      121.578      399.057       82.416        0.610        0.030      106.971        5.868        0.003      330.599       -1.924      871.345
01/17/2014  03:17:00     -101.514      -44.359      -12.306       10.889       16.714       11.245      118.567      279.352      126.449        0.647        0.026      110.783        2.816        0.001      330.610       -1.908      871.345
01/17/2014  03:18:00     -102.477      -36.878      -16.057       24.428       14.922       19.401      596.722      222.679      376.388        0.666        0.060      108.910       17.986        0.027      330.590       -1.940      871.340
01/17/2014  03:19:00      -82.501      -37.320       -6.733       22.767       23.489       14.146      518.353      551.752      200.111        0.476        0.064       90.550       10.778        0.014      330.555       -1.998      871.335
01/17/2014  03:20:00      -86.362      -33.151       -4.227       25.164       18.047       16.663      633.211      325.697      277.645        0.491        0.062       92.507       14.304        0.024      330.614       -1.901      871.330
01/17/2014  03:21:00     -120.903      -31.528      -13.084       24.286       22.576       11.490      589.818      509.659      132.015        0.851        0.062      124.946       10.040        0.006      330.594       -1.933      871.323
01/17/2014  03:22:00     -108.844      -31.154      -11.117       21.297       20.199       12.899      453.548      408.018      166.384        0.698        0.051      113.215        9.572        0.007      330.590       -1.939      871.319
01/17/2014  03:23:00     -101.169      -25.219       -4.503       23.869       21.283       11.831      569.744      452.960      139.975        0.603        0.058      104.265       10.273        0.010      330.588       -1.943      871.313
01/17/2014  03:24:00      -95.938      -14.154       -6.239       25.198       18.553       14.715      634.932      344.227      216.520        0.532        0.060       96.976       10.384        0.011      330.640       -1.857      871.305
01/17/2014  03:25:00      -82.635      -12.796       -4.959       22.917       16.304       13.338      525.204      265.821      177.898        0.399        0.048       83.620       12.957        0.024      330.638       -1.862      871.305
01/17/2014  03:26:00      -87.849       -8.882       -4.915       27.856       11.547       15.269      775.953      133.344      233.130        0.448        0.057       88.297       15.910        0.032      330.694       -1.769      871.302
01/17/2014  03:27:00     -100.827      -20.016       -5.396       14.053       15.034       11.015      197.497      226.021      121.332        0.557        0.027      102.795        6.199        0.004      330.669       -1.811      871.304
01/17/2014  03:28:00      -92.575      -20.237       -7.519       22.265       16.992       13.448      495.719      288.719      180.862        0.500        0.048       94.761       10.683        0.013      330.666       -1.815      871.305
01/17/2014  03:29:00      -93.358      -13.296       -1.867       39.149       21.375       17.762     1532.682      456.872      315.479        0.560        0.115       94.300       21.028        0.050      330.599       -1.925      871.310
01/17/2014  03:30:00     -103.501      -17.865       -8.557       24.147       18.944       13.867      583.075      358.872      192.300        0.612        0.057      105.032       11.301        0.012      330.546       -2.012      871.300
01/17/2014  03:31:00      -85.334      -23.297       -4.873       24.216       17.488       13.308      586.432      305.820      177.102        0.446        0.053       88.457        8.598        0.009      330.519       -2.056      871.291
01/17/2014  03:32:00      -75.275      -24.109       -3.957       30.368       17.504       15.171      922.238      306.394      230.160        0.386        0.073       79.041       15.347        0.038      330.525       -2.046      871.287
01/17/2014  03:33:00      -49.850       -9.747        1.826       24.854       17.357       14.470      617.712      301.251      209.384        0.186        0.056       50.794       14.218        0.078      330.544       -2.015      871.283
01/17/2014  03:34:00      -70.772      -17.540      -23.911       17.808       22.997       13.235      317.127      528.874      175.177        0.345        0.051       72.913       13.644        0.035      330.477       -2.123      871.275
01/17/2014  03:35:00      -50.882      -41.797       -8.073       19.918       17.464       11.935      396.740      304.989      142.446        0.262        0.042       65.848        3.334        0.003      330.692       -1.773      871.271
01/17/2014  03:36:00      -63.929       -7.869       -3.379       13.599       11.763       11.982      184.925      138.376      143.565        0.231        0.023       64.411        9.320        0.021      330.517       -2.060      871.260
01/17/2014  03:37:00      -63.867       -6.969      -11.565       13.785       16.165       10.807      190.035      261.321      116.791        0.241        0.028       64.246        6.607        0.011      330.558       -1.994      871.259
01/17/2014  03:38:00      -58.454      -22.616      -10.379       17.021       14.479       17.876      289.724      209.629      319.561        0.243        0.041       62.676       10.290        0.027      330.490       -2.105      871.251
01/17/2014  03:39:00      -46.765      -17.353       -8.456       19.459       14.212        8.598      378.634      201.974       73.929        0.161        0.033       49.881        6.227        0.016      330.522       -2.051      871.248
01/17/2014  03:40:00       -3.211      -19.236        0.893       16.256       10.393        8.821      264.250      108.017       77.805        0.042        0.023       19.502        5.241        0.072      330.533       -2.033      871.255
01/17/2014  03:41:00      -18.273      -11.320      -12.200       11.168        8.392        5.685      124.713       70.424       32.323        0.042        0.011       21.495        5.247        0.060      330.597       -1.930      871.245
01/17/2014  03:42:00      -20.337      -11.346       -5.703       12.395        6.390        7.370      153.636       40.836       54.313        0.041        0.012       23.288        5.758        0.061      330.543       -2.017      871.240
01/17/2014  03:43:00      -29.722      -19.163       -6.396        9.992       12.377        6.425       99.835      153.200       41.282        0.079        0.015       35.364        4.576        0.017      330.584       -1.950      871.233
01/17/2014  03:44:00      -39.669      -19.472       -4.444       16.209        8.377        6.498      262.722       70.181       42.223        0.117        0.019       44.191        2.655        0.004      330.481       -2.119      871.237
01/17/2014  03:45:00      -61.024      -19.870      -10.696        7.536        9.192        7.041       56.789       84.492       49.576        0.221        0.010       64.177        4.502        0.005      330.436       -2.193      871.235
01/17/2014  03:46:00      -55.627      -26.102       -7.365       11.774        7.035        8.123      138.637       49.495       65.983        0.204        0.013       61.446        7.087        0.013      330.435       -2.194      871.237
01/17/2014  03:47:00      -46.164      -23.396       -7.058       11.536        8.821        7.989      133.072       77.803       63.823        0.150        0.014       51.754        6.886        0.018      330.458       -2.155      871.241
01/17/2014  03:48:00      -49.680       -8.397       -5.697       13.345        9.308        6.495      178.079       86.636       42.190        0.144        0.015       50.384        3.682        0.005      330.541       -2.018      871.233
01/17/2014  03:49:00      -45.142       -9.718      -10.490        8.971        9.394        8.234       80.484       88.250       67.799        0.124        0.012       46.176        5.165        0.013      330.523       -2.048      871.222
01/17/2014  03:50:00      -57.794      -18.896       -8.031       13.595       10.495        7.556      184.826      110.144       57.092        0.206        0.018       60.805        3.939        0.004      330.509       -2.073      871.218
01/17/2014  03:51:00      -68.941      -26.268       -9.435        9.629       13.398        7.715       92.712      179.500       59.516        0.293        0.017       73.776        6.581        0.008      330.461       -2.152      871.221
01/17/2014  03:52:00      -65.004      -22.293      -11.473        8.958        9.190        7.210       80.251       84.450       51.979        0.254        0.011       68.721        3.079        0.002      330.412       -2.232      871.215
01/17/2014  03:53:00      -62.447      -22.272       -4.689       10.956       14.112        8.366      120.041      199.148       69.988        0.240        0.019       66.299        6.678        0.010      330.440       -2.187      871.218
01/17/2014  03:54:00      -59.252      -12.738       -3.692       16.709       12.855        7.561      279.192      165.263       57.165        0.209        0.025       60.606        4.301        0.005      330.537       -2.026      871.217
01/17/2014  03:55:00      -51.541      -18.127       -9.020       11.870       10.807        9.281      140.898      116.802       86.128        0.171        0.017       54.636        5.994        0.012      330.575       -1.964      871.215
01/17/2014  03:56:00      -62.118      -23.573       -4.052       15.030       12.410        7.372      225.902      154.018       54.341        0.243        0.022       66.441        4.575        0.005      330.564       -1.984      871.212
01/17/2014  03:57:00      -81.193      -28.397       -5.516       21.309       18.879        9.424      454.080      356.403       88.817        0.416        0.045       86.016        3.982        0.002      330.444       -2.179      871.204
01/17/2014  03:58:00      -66.347      -31.633       -1.760       23.377       18.993       13.012      546.476      360.738      169.313        0.324        0.054       73.502       12.444        0.029      330.456       -2.160      871.192
01/17/2014  03:59:00      -47.953      -25.041        4.434       29.479       16.625       10.904      869.016      276.405      118.898        0.211        0.063       54.098        9.323        0.030      330.458       -2.156      871.184
01/17/2014  04:00:00      -42.984       -3.909        1.571       18.381       12.255        9.489      337.863      150.192       90.035        0.122        0.029       43.162        9.992        0.054      330.407       -2.240      871.171
01/17/2014  04:01:00      -47.312      -10.815       -2.571       12.513       13.065        8.041      156.581      170.700       64.659        0.138        0.020       48.533        5.707        0.014      330.467       -2.141      871.163
01/17/2014  04:02:00      -67.223      -21.291       -5.857       14.905        9.358        7.541      222.161       87.574       56.873        0.269        0.018       70.514        6.612        0.009      330.494       -2.098      871.152
01/17/2014  04:03:00      -71.890      -39.035       -8.191        9.719       10.558        8.241       94.457      111.463       67.916        0.352        0.014       81.804        5.750        0.005      330.455       -2.161      871.153
01/17/2014  04:04:00      -86.636      -31.351      -10.970       13.777        9.247        6.854      189.806       85.507       46.979        0.447        0.016       92.134        3.385        0.001      330.431       -2.202      871.143
01/17/2014  04:05:00      -91.274      -26.986      -10.549       11.675       11.354        8.705      136.317      128.924       75.771        0.476        0.017       95.180        6.290        0.004      330.422       -2.217      871.128
01/17/2014  04:06:00      -76.521      -26.893       -5.331       16.398       16.335       12.759      268.906      266.836      162.799        0.365        0.035       81.109        9.963        0.015      330.416       -2.226      871.110
01/17/2014  04:07:00      -81.877      -22.370       -8.926       14.180       12.891        8.497      201.068      166.166       72.191        0.386        0.022       84.878        5.807        0.005      330.468       -2.141      871.097
01/17/2014  04:08:00      -81.095      -15.514       -6.325       13.096       11.603       10.851      171.497      134.625      117.748        0.364        0.021       82.565        7.984        0.009      330.461       -2.152      871.097
01/17/2014  04:09:00      -86.882      -26.117       -7.509       13.088       12.103        7.878      171.290      146.478       62.067        0.433        0.019       90.722        5.821        0.004      330.445       -2.177      871.093
01/17/2014  04:10:00      -84.900      -20.295      -15.309       11.284       12.686        8.393      127.321      160.937       70.444        0.411        0.018       87.292        2.628        0.001      330.403       -2.248      871.094
01/17/2014  04:11:00      -41.518       -7.589        0.823       19.028       13.475       13.582      362.073      181.576      184.477        0.125        0.036       42.206       11.554        0.075      330.344       -2.344      871.088
01/17/2014  04:12:00      -46.748      -11.366        0.930       18.313       15.754       10.487      335.354      248.195      109.969        0.150        0.035       48.110       10.759        0.050      330.392       -2.264      871.073
01/17/2014  04:13:00      -61.057      -27.423       -4.580       20.722       11.964        7.476      429.413      143.139       55.888        0.256        0.031       66.933        5.702        0.007      330.401       -2.250      871.070
01/17/2014  04:14:00      -54.251      -18.293       -3.602       20.651       20.568        9.886      426.469      423.038       97.730        0.212        0.047       57.252        7.320        0.016      330.346       -2.341      871.053
01/17/2014  04:15:00      -32.647        2.510        1.627       20.600       12.700        9.673      424.351      161.290       93.562        0.088        0.034       32.744       10.976        0.112      330.362       -2.314      871.041
01/17/2014  04:16:00      -27.150       -2.137       -4.974        8.887        8.779        6.476       78.985       77.068       41.937        0.048        0.010       27.234        5.151        0.036      330.401       -2.251      871.029
01/17/2014  04:17:00      -31.002       -4.769        2.247       13.292        8.204        5.356      176.679       67.308       28.689        0.063        0.014       31.367        5.314        0.029      330.418       -2.221      871.022
01/17/2014  04:18:00      -43.753       -9.087        2.305        9.779        7.096        5.363       95.622       50.360       28.756        0.109        0.009       44.687        4.130        0.009      330.438       -2.190      871.018
01/17/2014  04:19:00      -38.080      -14.811       -0.735        7.192        7.636        4.926       51.722       58.304       24.262        0.090        0.007       40.859        3.202        0.006      330.425       -2.211      871.012
01/17/2014  04:20:00      -26.845      -11.270        3.658       17.287       12.870        9.401      298.825      165.646       88.379        0.071        0.028       29.115        8.242        0.080      330.349       -2.336      871.007
01/17/2014  04:21:00      -68.007      -21.854       -2.574       16.548       18.018        9.781      273.844      324.650       95.666        0.290        0.035       71.432        4.287        0.004      330.169       -2.631      870.999
01/17/2014  04:22:00      -99.921       -6.825       -6.670       25.228       14.886       15.547      636.454      221.605      241.708        0.559        0.055      100.154       14.049        0.020      330.133       -2.689      870.991
01/17/2014  04:23:00      -63.426      -16.882        1.815       23.442       18.558       14.047      549.513      344.392      197.305        0.270        0.055       65.635       11.174        0.029      330.093       -2.756      870.987
01/17/2014  04:24:00      -71.721      -12.702       -0.713       23.129       17.294       10.595      534.952      299.071      112.259        0.313        0.047       72.837       12.205        0.028      330.080       -2.777      870.988
01/17/2014  04:25:00      -77.145       -8.512       -1.137       21.848       14.711       14.197      477.317      216.408      201.565        0.346        0.045       77.613       13.525        0.030      330.105       -2.736      870.994
01/17/2014  04:26:00      -96.715       -9.643       -6.094       25.878       13.043        9.666      669.687      170.114       93.427        0.521        0.047       97.195       12.392        0.016      330.162       -2.642      870.990
01/17/2014  04:27:00     -100.208      -14.706       -8.385       15.497       13.184        8.267      240.159      173.813       68.349        0.541        0.024      101.281        5.082        0.003      330.182       -2.610      870.980
01/17/2014  04:28:00     -101.075      -14.442       -6.639       21.664       19.033       13.659      469.337      362.256      186.559        0.574        0.051      102.101       13.942        0.019      330.164       -2.639      870.979
01/17/2014  04:29:00     -117.527       -6.464      -10.705       18.359       10.838       10.122      337.054      117.453      102.448        0.726        0.028      117.704        8.495        0.005      330.155       -2.655      870.967
01/17/2014  04:30:00     -107.293       -1.883      -16.879       19.285       15.103       10.458      371.900      228.101      109.371        0.625        0.035      107.310        3.833        0.001      330.214       -2.556      870.956
01/17/2014  04:31:00      -95.248      -12.540      -14.657       18.107       20.449       12.097      327.850      418.164      146.344        0.517        0.045       96.069        6.013        0.004      330.198       -2.582      870.947
01/17/2014  04:32:00      -85.739      -23.502       -6.101       23.977       18.749       16.090      574.902      351.514      258.894        0.456        0.059       88.902       13.556        0.023      330.136       -2.685      870.938
01/17/2014  04:33:00     -101.128      -40.468      -16.364       15.709       19.136       10.664      246.770      366.173      113.724        0.643        0.036      108.924        7.807        0.005      330.104       -2.737      870.928
01/17/2014  04:34:00      -70.743      -34.810      -10.588       21.219       25.890       16.370      450.252      670.292      267.970        0.386        0.069       78.844       12.285        0.024      330.085       -2.768      870.934
01/17/2014  04:35:00      -78.743      -32.673      -13.883       25.157       25.764       17.395      632.898      663.787      302.602        0.453        0.080       85.253       13.385        0.025      330.091       -2.759      870.937
01/17/2014  04:36:00      -81.159      -33.439       -4.811       34.183       31.496       19.104     1168.457      991.994      364.975        0.513        0.126       87.778       17.997        0.042      330.044       -2.835      870.929
01/17/2014  04:37:00     -115.801      -36.551       -6.923       24.987       26.247       12.810      624.364      688.897      164.097        0.814        0.074      121.432        9.345        0.006      330.014       -2.885      870.922
01/17/2014  04:38:00      -95.895      -47.252       -9.402       35.649       24.707       17.754     1270.878      610.429      315.218        0.686        0.110      106.904       14.808        0.019      329.935       -3.015      870.913
01/17/2014  04:39:00      -91.415      -40.647       -8.833       24.649       26.749       18.804      607.596      715.516      353.609        0.588        0.084      100.044       12.037        0.014      329.986       -2.930      870.905
01/17/2014  04:40:00     -102.576      -14.329       -4.195       30.591       35.847       19.523      935.784     1284.980      381.155        0.667        0.130      103.572       16.424        0.025      329.988       -2.927      870.909
01/17/2014  04:41:00      -78.845       -4.366        0.116       43.448       26.880       21.005     1887.698      722.511      441.208        0.464        0.153       78.965       20.449        0.067      329.989       -2.926      870.914
01/17/2014  04:42:00      -73.647       -7.013       -3.945       33.821       20.125       15.597     1143.892      405.007      243.256        0.364        0.090       73.980       13.553        0.034      329.984       -2.933      870.920
01/17/2014  04:43:00      -96.728      -13.188       -9.495       22.475       22.493       13.814      505.128      505.920      190.829        0.541        0.060       97.623        7.253        0.006      330.044       -2.835      870.917
01/17/2014  04:44:00      -76.764      -17.820       -4.036       27.508       29.749       16.708      756.700      884.987      279.143        0.407        0.096       78.805       12.465        0.025      330.029       -2.861      870.912
01/17/2014  04:45:00      -85.113      -32.929      -10.350       23.362       29.338       15.478      545.806      860.720      239.575        0.504        0.082       91.261       10.357        0.013      330.007       -2.896      870.922
01/17/2014  04:46:00     -106.098      -39.367      -12.169       34.404       25.906       17.124     1183.667      671.139      293.223        0.755        0.107      113.166        6.058        0.003      330.013       -2.886      870.942
01/17/2014  04:47:00     -105.965      -49.983      -10.023       31.117       22.245       22.356      968.247      494.830      499.783        0.789        0.098      117.162       14.888        0.016      330.035       -2.851      870.959
01/17/2014  04:48:00     -110.362      -22.303       -3.278       32.993       29.510       22.606     1088.512      870.829      511.030        0.758        0.124      112.593       17.451        0.024      329.974       -2.948      870.967
01/17/2014  04:49:00      -77.165      -20.757        0.227       35.590       30.046       22.523     1266.678      902.738      507.307        0.453        0.134       79.908       17.558        0.048      329.938       -3.009      870.964
01/17/2014  04:50:00      -87.235      -20.186        0.388       29.751       22.653       22.525      885.120      513.156      507.385        0.496        0.095       89.540       20.131        0.051      329.942       -3.002      870.960
01/17/2014  04:51:00     -106.476      -33.005      -10.486       21.288       29.589       17.152      453.182      875.484      294.198        0.708        0.081      111.474       15.334        0.019      330.058       -2.811      870.957
01/17/2014  04:52:00      -71.309       -2.044        0.552       52.504       28.552       25.720     2756.619      815.216      661.516        0.466        0.212       71.339       28.143        0.156      330.053       -2.822      870.948
01/17/2014  04:53:00      -54.454       10.446        3.883       55.658       31.974       23.446     3097.840     1022.346      549.706        0.388        0.233       55.447       15.042        0.074      330.018       -2.878      870.940
01/17/2014  04:54:00      -86.146      -21.188       -5.073       47.141       35.559       20.740     2222.266     1264.460      430.152        0.591        0.196       88.713       21.009        0.056      329.998       -2.909      870.938
01/17/2014  04:55:00      -69.601      -33.401       -8.807       29.031       24.531       13.805      842.786      601.787      190.570        0.384        0.082       77.201       13.008        0.028      330.011       -2.889      870.938
01/17/2014  04:56:00      -73.989      -42.241       -2.707       31.505       26.732       18.531      992.564      714.596      343.396        0.466        0.103       85.198       12.233        0.021      329.997       -2.912      870.934
01/17/2014  04:57:00      -33.091      -20.402        2.402       27.884       27.246       25.080      777.501      742.327      629.028        0.183        0.107       38.875       18.968        0.238      330.010       -2.891      870.933
01/17/2014  04:58:00      -40.917      -18.389       -1.706       25.267       21.538       18.748      638.414      463.869      351.492        0.173        0.073       44.859       14.498        0.104      330.027       -2.862      870.927
01/17/2014  04:59:00     -119.610      -56.633      -10.671       27.032       34.036       15.968      730.749     1158.437      254.984        0.989        0.107      132.340       11.284        0.007      330.045       -2.834      870.924
01/17/2014  05:00:00      -38.231      -25.495       -1.703       40.593       31.465       21.561     1647.821      990.058      464.879        0.261        0.155       45.952       17.327        0.142      330.022       -2.871      870.928
01/17/2014  05:01:00       -9.189      -15.271       -2.284       19.181       18.556       12.414      367.901      344.310      154.102        0.059        0.043       17.822        6.090        0.117      330.024       -2.870      870.922
01/17/2014  05:02:00      -40.775      -14.768       -0.043       27.165       13.847       12.132      737.934      191.752      147.195        0.148        0.054       43.367        9.947        0.053      330.063       -2.805      870.927
01/17/2014  05:03:00      -73.910      -13.326      -13.029       12.206       14.105       12.121      148.991      198.958      146.920        0.315        0.025       75.102        4.382        0.003      330.076       -2.782      870.938
01/17/2014  05:04:00      -75.935      -13.604      -12.059       22.230       14.233       10.853      494.170      202.567      117.783        0.346        0.041       77.144        6.503        0.007      329.926       -3.029      870.931
01/17/2014  05:05:00      -72.656      -15.950       -7.474        8.843       12.051        7.708       78.199      145.225       59.421        0.294        0.014       74.386        2.646        0.001      329.952       -2.986      870.920
01/17/2014  05:06:00      -66.319      -14.151       -5.844       13.477       14.151       13.249      181.635      200.253      175.546        0.259        0.028       67.812        3.863        0.003      330.033       -2.853      870.912
01/17/2014  05:07:00      -73.063      -17.254      -10.576       16.076       14.272       11.780      258.427      203.685      138.774        0.317        0.030       75.072        6.395        0.007      330.004       -2.899      870.918
01/17/2014  05:08:00      -48.907      -17.578       -2.476       12.515       13.368       10.519      156.625      178.714      110.646        0.158        0.022       51.970        5.184        0.010      330.001       -2.905      870.922
01/17/2014  05:09:00      -24.909      -11.511       -8.092       11.532        8.706        7.623      132.987       75.800       58.108        0.054        0.013       27.440        4.735        0.030      330.085       -2.767      870.920
01/17/2014  05:10:00      -37.296      -17.272       -6.855       21.593       11.025       10.068      466.247      121.550      101.360        0.121        0.034       41.101        8.541        0.043      330.059       -2.809      870.922
01/17/2014  05:11:00      -48.420      -15.731       -8.674       14.907       16.327       14.167      222.221      266.580      200.697        0.168        0.034       50.912       10.155        0.040      329.997       -2.913      870.919
01/17/2014  05:12:00      -69.295      -31.045      -11.412       17.359       14.664       11.455      301.347      215.036      131.215        0.327        0.032       75.932        6.722        0.008      329.905       -3.064      870.916
01/17/2014  05:13:00     -111.850      -10.298      -17.317       15.588       11.662       11.179      242.979      135.996      124.980        0.671        0.025      112.323        6.655        0.004      329.769       -3.284      870.917
01/17/2014  05:14:00     -122.642      -12.133      -18.196       19.634       10.890       10.914      385.479      118.591      119.105        0.807        0.031      123.241        5.215        0.002      329.750       -3.316      870.920
01/17/2014  05:15:00     -104.530       -8.118      -13.646       18.067       11.916       14.602      326.425      141.998      213.219        0.593        0.034      104.845       11.991        0.013      329.744       -3.326      870.926
01/17/2014  05:16:00      -86.719      -20.202      -13.759       14.613       11.401        8.303      213.553      129.988       68.934        0.426        0.021       89.041        3.449        0.002      329.816       -3.207      870.942
01/17/2014  05:17:00      -69.873      -24.507       -6.987       12.772       19.568       11.544      163.132      382.919      133.266        0.311        0.034       74.047        8.864        0.014      329.879       -3.105      870.942
01/17/2014  05:18:00      -98.503       -2.766      -11.134       29.978       14.361       11.790      898.710      206.226      138.997        0.554        0.062       98.542       11.212        0.013      329.861       -3.135      870.933
01/17/2014  05:19:00     -120.675      -13.795      -16.198       13.294       13.998       11.845      176.735      195.948      140.303        0.776        0.026      121.461        6.073        0.003      329.870       -3.120      870.923
01/17/2014  05:20:00     -107.459      -15.460      -13.338       21.891       11.656       14.119      479.211      135.851      199.360        0.639        0.041      108.566       10.863        0.010      329.865       -3.128      870.912
01/17/2014  05:21:00     -100.090      -13.787      -13.629       14.761       11.609       12.951      217.896      134.778      167.717        0.546        0.026      101.035        9.078        0.008      329.867       -3.125      870.904
01/17/2014  05:22:00      -67.527      -27.312      -16.123       12.902       16.037       11.857      166.450      257.185      140.589        0.306        0.028       72.841        9.879        0.018      329.892       -3.085      870.895
01/17/2014  05:23:00      -88.047       -9.882      -15.739       17.907       13.823        8.901      320.666      191.064       79.224        0.434        0.030       88.599        8.887        0.010      329.911       -3.054      870.902
01/17/2014  05:24:00      -80.958        0.184      -10.174       24.255       16.450       14.968      588.322      270.603      224.043        0.387        0.054       80.959       13.049        0.026      329.848       -3.156      870.902
01/17/2014  05:25:00      -82.352       -4.735      -17.128       21.196       22.844       10.236      449.289      521.837      104.783        0.409        0.054       82.488        6.496        0.006      329.853       -3.148      870.893
01/17/2014  05:26:00      -84.047       -9.686      -13.428       15.605       19.463       11.274      243.520      378.792      127.112        0.404        0.037       84.603        8.946        0.011      329.831       -3.183      870.889
01/17/2014  05:27:00      -82.560      -14.165      -14.063       13.975       14.032       12.771      195.307      196.899      163.089        0.388        0.028       83.767        6.913        0.007      329.792       -3.248      870.892
01/17/2014  05:28:00      -78.587       -4.248      -13.473       11.973       11.642       11.501      143.359      135.539      132.264        0.339        0.021       78.702        7.958        0.010      329.781       -3.265      870.908
01/17/2014  05:29:00      -69.077        2.325      -12.891       18.181       12.186        8.906      330.533      148.491       79.315        0.275        0.028       69.116        2.827        0.002      329.836       -3.177      870.917
01/17/2014  05:30:00      -55.302      -13.421      -12.439        9.750        8.471        8.646       95.060       71.754       74.753        0.182        0.012       56.907        5.140        0.008      329.888       -3.091      870.915
01/17/2014  05:31:00      -43.561      -10.286      -12.204        7.518        9.827        7.306       56.524       96.561       53.379        0.118        0.010       44.759        2.927        0.004      330.050       -2.825      870.915
01/17/2014  05:32:00      -44.018      -10.849      -14.479       10.062       12.005        8.672      101.250      144.129       75.202        0.129        0.016       45.335        4.449        0.010      330.230       -2.530      870.908
01/17/2014  05:33:00      -40.765      -15.704      -16.712        9.499       10.132        8.363       90.231      102.666       69.935        0.123        0.013       43.685        3.503        0.006      330.203       -2.576      870.902
01/17/2014  05:34:00      -27.572      -25.174       -8.986       11.353       10.139        7.285      128.882      102.801       53.069        0.088        0.014       37.335        3.146        0.007      330.240       -2.515      870.897
01/17/2014  05:35:00      -14.528       -9.016       -4.324       13.916       14.327        7.178      193.647      205.250       51.526        0.038        0.023       17.098        7.659        0.201      330.352       -2.330      870.893
01/17/2014  05:36:00       12.796        5.012        3.029        9.432        9.075        7.088       88.968       82.357       50.239        0.021        0.011       13.743        7.932        0.333      330.680       -1.795      870.880
01/17/2014  05:37:00        2.146       -5.499        6.949        5.073        7.176        5.856       25.740       51.498       34.290        0.010        0.006        5.903        0.938        0.025      330.484       -2.114      870.884
01/17/2014  05:38:00        4.492      -21.976        9.179        8.139       14.270       10.419       66.240      203.643      108.552        0.048        0.019       22.431        6.245        0.078      330.481       -2.120      870.884
01/17/2014  05:39:00      -14.843      -12.844        1.506       16.421       10.409        8.539      269.646      108.339       72.909        0.042        0.023       19.628        8.043        0.168      330.420       -2.219      870.878
01/17/2014  05:40:00      -56.276      -14.799       -8.154       11.613        7.451        6.095      134.865       55.514       37.150        0.184        0.011       58.189        3.123        0.003      330.028       -2.861      870.869
01/17/2014  05:41:00      -59.934      -10.447      -11.548        7.836        8.357        7.115       61.404       69.841       50.626        0.201        0.009       60.838        1.981        0.001      330.016       -2.882      870.873
01/17/2014  05:42:00      -80.779       -8.149      -14.840       17.647        9.746        8.374      311.426       94.988       70.120        0.364        0.024       81.189        4.202        0.003      329.895       -3.079      870.869
01/17/2014  05:43:00      -89.260      -12.756       -6.404       15.013       12.315       13.154      225.389      151.662      173.024        0.436        0.028       90.167       10.884        0.015      329.845       -3.161      870.877
01/17/2014  05:44:00      -88.221      -19.741      -14.443       16.197       14.114       12.101      262.355      199.211      146.445        0.449        0.030       90.402       11.108        0.015      329.901       -3.070      870.875
01/17/2014  05:45:00      -87.374      -24.997      -14.296       20.142       16.196       14.735      405.711      262.310      217.113        0.467        0.044       90.880       12.029        0.018      329.909       -3.056      870.868
01/17/2014  05:46:00     -104.652      -20.720      -10.051       19.689       17.568       16.517      387.670      308.639      272.810        0.623        0.048      106.683       11.684        0.012      329.886       -3.094      870.859
01/17/2014  05:47:00     -102.581      -34.446      -13.241       19.045       18.427       14.387      362.721      339.541      206.989        0.640        0.045      108.210       13.599        0.016      329.921       -3.037      870.851
01/17/2014  05:48:00     -116.612      -13.786      -14.573       16.029       16.426        8.664      256.941      269.811       75.063        0.730        0.030      117.424        4.915        0.002      329.844       -3.162      870.849
01/17/2014  05:49:00     -120.600       -4.178      -10.551       15.141       15.943       12.939      229.241      254.184      167.417        0.766        0.033      120.672        8.925        0.005      329.856       -3.143      870.848
01/17/2014  05:50:00     -124.115       -4.824      -12.872       19.656       10.321       12.700      386.360      106.529      161.291        0.812        0.033      124.209       11.085        0.008      329.915       -3.048      870.841
01/17/2014  05:51:00     -125.441       -2.907      -16.816        9.137        8.096        9.077       83.477       65.547       82.386        0.813        0.012      125.474        2.425        0.000      329.991       -2.922      870.824
01/17/2014  05:52:00     -111.732      -17.896       -9.817       23.525       15.455       16.275      553.428      238.857      264.881        0.698        0.053      113.156       13.648        0.015      330.026       -2.864      870.813
01/17/2014  05:53:00      -92.618      -16.764       -5.730       15.710       17.559       10.227      246.812      308.323      104.597        0.478        0.033       94.123        9.755        0.011      330.024       -2.867      870.807
01/17/2014  05:54:00      -78.969      -24.955       -7.377       21.791       13.594        7.301      474.851      184.793       53.303        0.381        0.036       82.818        7.439        0.008      330.084       -2.771      870.806
01/17/2014  05:55:00      -78.208      -26.865       -6.362       24.513       13.646       12.180      600.885      186.219      148.363        0.391        0.047       82.693       13.971        0.029      330.082       -2.773      870.814
01/17/2014  05:56:00      -81.575      -35.864      -10.224        9.994       10.097        8.403       99.883      101.951       70.614        0.416        0.014       89.110        5.659        0.004      330.140       -2.680      870.822
01/17/2014  05:57:00      -65.093      -20.429       -6.006        9.239       15.846        8.707       85.362      251.086       75.819        0.255        0.021       68.224        7.696        0.013      330.074       -2.786      870.828
01/17/2014  05:58:00      -57.769      -21.140       -6.545        9.867       11.692       10.340       97.352      136.707      106.919        0.208        0.017       61.515        7.395        0.014      330.072       -2.790      870.842
01/17/2014  05:59:00      -67.285      -10.688      -11.382       10.507        8.803        9.744      110.399       77.487       94.944        0.253        0.014       68.129        7.307        0.012      330.109       -2.728      870.851
01/17/2014  06:00:00      -56.743      -10.151       -1.609       16.514        9.802        8.400      272.728       96.080       70.559        0.188        0.022       57.644        9.068        0.025      330.174       -2.622      870.861
01/17/2014  06:01:00      -69.596      -11.151       -7.048       17.484       12.453       11.204      305.695      155.078      125.534        0.280        0.029       70.483       11.581        0.027      330.105       -2.737      870.865
01/17/2014  06:02:00      -60.781      -10.165       -5.469       16.634       11.270        9.138      276.702      127.005       83.511        0.216        0.024       61.625        9.002        0.021      330.107       -2.736      870.866
01/17/2014  06:03:00      -69.065      -12.430       -6.829       16.265        9.742        8.794      264.541       94.905       77.332        0.270        0.022       70.175        8.266        0.014      330.101       -2.743      870.871
01/17/2014  06:04:00      -76.685      -29.698       -6.723       13.444       15.319        9.126      180.753      234.659       83.277        0.365        0.025       82.235        7.624        0.009      330.138       -2.682      870.875
01/17/2014  06:05:00      -57.279      -36.962       -1.547       17.529       14.921       12.602      307.282      222.645      158.809        0.267        0.034       68.170        5.015        0.005      330.058       -2.813      870.886
01/17/2014  06:06:00      -89.117      -18.286       -9.875       16.674       11.687        8.217      278.021      136.591       67.517        0.443        0.024       90.973        7.631        0.007      329.979       -2.941      870.890
01/17/2014  06:07:00      -95.597      -13.181       -8.488       18.670       15.522       14.471      348.561      240.928      209.423        0.509        0.040       96.501       13.617        0.020      329.982       -2.936      870.891
01/17/2014  06:08:00      -81.000      -28.484      -10.443       17.878       15.018       12.268      319.622      225.532      150.503        0.409        0.035       85.862        8.628        0.010      330.001       -2.905      870.888
01/17/2014  06:09:00      -85.638      -26.467      -14.079       13.377       11.994        9.768      178.952      143.860       95.412        0.433        0.021       89.635        2.291        0.001      329.975       -2.947      870.881
01/17/2014  06:10:00      -86.505      -11.322       -6.657       19.092       18.901       13.606      364.503      357.254      185.116        0.428        0.045       87.243        8.930        0.010      329.962       -2.969      870.881
01/17/2014  06:11:00     -118.341       -2.532      -10.354       16.078        9.568       11.295      258.503       91.543      127.570        0.730        0.024      118.368        7.942        0.005      329.983       -2.934      870.883
01/17/2014  06:12:00      -89.998      -10.016      -14.142       19.033       12.629        8.543      362.270      159.502       72.975        0.450        0.030       90.554        9.479        0.011      329.956       -2.982      870.876
01/17/2014  06:13:00      -55.404      -12.320       -9.357        9.270       10.024        6.868       85.941      100.486       47.173        0.177        0.012       56.757        5.025        0.008      330.016       -2.881      870.881
01/17/2014  06:14:00      -44.937      -11.615       -7.771       11.561        9.149        5.317      133.653       83.713       28.273        0.123        0.012       46.414        3.509        0.006      330.248       -2.500      870.877
01/17/2014  06:15:00      -21.493       -5.888       -5.302        5.945        4.994        3.983       35.337       24.936       15.863        0.030        0.004       22.285        2.931        0.017      330.245       -2.506      870.864
01/17/2014  06:16:00      -16.443        0.263       -2.931        6.933       10.074        3.789       48.065      101.484       14.358        0.022        0.008       16.445        3.186        0.038      330.616       -1.896      870.849
01/17/2014  06:17:00      -13.349      -12.464        1.045        6.893        9.595        6.025       47.516       92.071       36.299        0.026        0.009       18.263        4.474        0.060      330.523       -2.050      870.837
01/17/2014  06:18:00       -8.638       -8.214        1.079        5.813        5.800        7.940       33.793       33.636       63.047        0.014        0.007       11.919        4.206        0.125      330.380       -2.286      870.832
01/17/2014  06:19:00       -4.199        1.288        3.848        5.745        5.621        6.458       33.009       31.596       41.705        0.007        0.005        4.392        5.180        1.391      330.398       -2.256      870.827
01/17/2014  06:20:00      -11.466      -23.838       -0.988       11.389        9.950       10.634      129.717       99.012      113.092        0.052        0.017       26.452        6.533        0.061      330.180       -2.612      870.831
01/17/2014  06:21:00      -18.533      -26.128        0.003       12.392        9.166        9.028      153.560       84.011       81.511        0.067        0.016       32.034        7.129        0.050      330.156       -2.652      870.834
01/17/2014  06:22:00      -47.526      -25.335       -3.986        7.428       10.387        6.648       55.175      107.885       44.191        0.156        0.010       53.857        0.889        0.000      329.975       -2.947      870.838
01/17/2014  06:23:00      -59.939      -25.366       -7.277       12.404        8.844        9.431      153.854       78.213       88.937        0.231        0.016       65.086        7.318        0.013      329.925       -3.031      870.852
01/17/2014  06:24:00      -60.400      -32.920       -9.995        9.964        9.392        7.418       99.282       88.204       55.020        0.254        0.012       68.789        4.460        0.004      329.969       -2.958      870.864
01/17/2014  06:25:00      -64.069      -34.766      -10.450        9.462        8.214        6.802       89.524       67.472       46.271        0.281        0.010       72.894        3.165        0.002      330.058       -2.811      870.880
01/17/2014  06:26:00      -76.629      -33.702       -6.667        9.839       10.175        7.714       96.807      103.536       59.509        0.366        0.013       83.713        3.433        0.002      329.964       -2.967      870.900
01/17/2014  06:27:00      -73.772      -19.076      -10.093       12.119        9.306        7.352      146.864       86.597       54.046        0.310        0.014       76.198        3.142        0.002      329.960       -2.973      870.918
01/17/2014  06:28:00      -62.116      -35.998       -8.392       15.337       10.890        7.386      235.209      118.583       54.547        0.282        0.020       71.793        4.554        0.004      330.003       -2.902      870.938
01/17/2014  06:29:00      -66.744      -23.698      -11.953       13.673       16.491       10.002      186.939      271.952      100.047        0.286        0.028       70.827        6.345        0.008      329.993       -2.918      870.948
01/17/2014  06:30:00      -62.871       -6.446       -3.035       18.767       14.782       16.876      352.199      218.516      284.785        0.243        0.043       63.201       12.891        0.042      329.949       -2.990      870.964
01/17/2014  06:31:00     -102.339       -0.807      -11.590       11.681        9.668        7.480      136.456       93.479       55.946        0.545        0.014      102.342        2.530        0.001      329.877       -3.108      870.979
01/17/2014  06:32:00      -88.556       -3.808       -5.739       18.019        8.951       11.703      324.672       80.117      136.949        0.422        0.027       88.638       10.089        0.013      329.841       -3.167      870.978
01/17/2014  06:33:00      -84.801       -8.157      -12.497       14.156       12.574       10.426      200.380      158.111      108.701        0.394        0.023       85.193        5.259        0.004      329.954       -2.984      870.973
01/17/2014  06:34:00      -80.558       -7.564       -8.917       26.115       17.940       11.900      681.998      321.856      141.614        0.389        0.057       80.913        9.019        0.012      329.885       -3.095      870.964
01/17/2014  06:35:00      -81.438       -9.742       -5.669       27.339       14.325       13.786      747.438      205.210      190.059        0.395        0.057       82.018       15.741        0.037      329.893       -3.083      870.957
01/17/2014  06:36:00      -94.226      -17.006      -13.443       13.717       12.955        8.253      188.163      167.841       68.105        0.489        0.021       95.748        2.946        0.001      329.905       -3.063      870.950
01/17/2014  06:37:00      -82.944      -29.973       -5.744       21.678       17.715       13.272      469.922      313.813      176.149        0.439        0.048       88.193        8.381        0.009      329.800       -3.235      870.943
01/17/2014  06:38:00      -61.195       -8.919       -4.430       26.401       15.522       12.086      697.031      240.934      146.066        0.246        0.054       61.841       12.782        0.043      329.775       -3.276      870.935
01/17/2014  06:39:00      -51.806      -14.311       -4.010       16.853       16.121        8.688      284.014      259.890       75.489        0.176        0.031       53.746        8.127        0.023      329.769       -3.286      870.933
01/17/2014  06:40:00      -77.221       -9.908       -9.781       18.744       10.645       10.764      351.351      113.325      115.869        0.337        0.029       77.854        5.767        0.005      329.763       -3.295      870.934
01/17/2014  06:41:00      -96.574      -13.257      -10.548       13.456       12.148        9.233      181.058      147.570       85.257        0.501        0.021       97.480        6.893        0.005      329.738       -3.335      870.930
01/17/2014  06:42:00      -89.449       -4.976      -16.016       10.239        9.802        8.656      104.847       96.086       74.931        0.428        0.014       89.587        3.564        0.002      329.762       -3.296      870.931
01/17/2014  06:43:00      -90.439        0.315      -13.000        7.300        6.116        6.157       53.294       37.410       37.914        0.424        0.006       90.440        1.757        0.000      329.830       -3.184      870.927
01/17/2014  06:44:00      -75.548       -9.924      -14.584       10.289        6.759        6.982      105.854       45.690       48.746        0.311        0.010       76.197        5.643        0.005      329.861       -3.135      870.931
01/17/2014  06:45:00      -70.063      -17.269       -9.116       20.889       11.288        9.818      436.343      127.410       96.399        0.297        0.033       72.159        8.722        0.015      329.880       -3.103      870.929
01/17/2014  06:46:00      -88.264      -19.545      -11.688       13.489       12.973        8.345      181.940      168.306       69.631        0.436        0.021       90.403        6.494        0.005      329.911       -3.055      870.929
01/17/2014  06:47:00      -68.766      -31.168       -5.208       14.088       12.048        9.497      198.486      145.150       90.187        0.308        0.022       75.500        5.428        0.005      329.879       -3.106      870.931
01/17/2014  06:48:00      -70.745      -22.480      -10.165       11.896       12.256        9.067      141.522      150.210       82.205        0.299        0.019       74.231        3.342        0.002      329.864       -3.131      870.934
01/17/2014  06:49:00      -54.966       -8.287       -0.788       24.344       15.045       12.154      592.612      226.348      147.724        0.203        0.048       55.587       13.416        0.058      329.902       -3.068      870.928
01/17/2014  06:50:00      -76.676       -3.812       -9.195       12.099       13.410        8.574      146.396      179.834       73.517        0.319        0.020       76.771        4.492        0.003      329.939       -3.006      870.922
01/17/2014  06:51:00      -86.349       -1.075      -15.306        8.124        6.467        6.953       66.005       41.818       48.345        0.392        0.008       86.355        1.497        0.000      329.963       -2.969      870.914
01/17/2014  06:52:00      -93.515       -9.142      -13.575        8.993        9.239        8.317       80.870       85.352       69.178        0.462        0.012       93.961        4.763        0.003      329.970       -2.957      870.924
01/17/2014  06:53:00      -79.932      -16.964       -8.894       10.030       10.979        7.829      100.595      120.531       61.288        0.352        0.014       81.713        5.142        0.004      329.982       -2.936      870.929
01/17/2014  06:54:00      -79.114      -15.242       -6.450       16.110       18.503        9.989      259.524      342.352       99.770        0.362        0.035       80.569       11.161        0.019      329.958       -2.977      870.930
01/17/2014  06:55:00      -50.511      -26.213       -6.927       23.376       16.056       11.861      546.426      257.810      140.690        0.212        0.047       56.908        6.778        0.014      329.899       -3.074      870.939
01/17/2014  06:56:00      -62.765      -26.496      -12.360       14.176       10.034        6.901      200.971      100.686       47.628        0.257        0.017       68.129        3.687        0.003      329.922       -3.036      870.940
01/17/2014  06:57:00      -53.489      -13.846       -9.345       17.636       12.896        7.919      311.031      166.313       62.703        0.184        0.027       55.252        7.991        0.021      329.856       -3.143      870.951
01/17/2014  06:58:00      -50.296      -23.296       -9.057       19.491       15.868       12.796      379.900      251.781      163.732        0.197        0.040       55.429        6.405        0.013      329.752       -3.313      870.956
01/17/2014  06:59:00      -63.530      -12.303      -12.606       14.266       12.104       11.042      203.515      146.518      121.933        0.241        0.024       64.710        6.678        0.011      329.654       -3.473      870.953
01/17/2014  07:00:00      -59.147      -13.518      -10.908        9.113        9.442        9.941       83.044       89.159       98.821        0.204        0.014       60.672        7.058        0.014      329.620       -3.528      870.949
01/17/2014  07:01:00      -82.948      -12.616      -14.543       11.845       13.268       10.813      140.315      176.029      116.931        0.384        0.022       83.902        3.640        0.002      329.600       -3.562      870.951
01/17/2014  07:02:00      -89.521      -10.042       -9.969       17.981       13.441       14.985      323.301      180.670      224.563        0.447        0.036       90.082        6.709        0.006      329.535       -3.669      870.961
01/17/2014  07:03:00      -70.428      -21.274      -11.183       15.798       17.626       11.619      249.583      310.687      135.010        0.312        0.035       73.571        7.624        0.011      329.581       -3.591      870.960
01/17/2014  07:04:00      -45.752       -3.410       -3.999       22.378       10.606       12.770      500.777      112.478      163.074        0.145        0.039       45.879       13.810        0.091      329.621       -3.528      870.956
01/17/2014  07:05:00      -28.505        7.225       -9.966       13.176       12.730        6.760      173.599      162.059       45.692        0.067        0.019       29.407        6.378        0.047      329.910       -3.055      870.952
01/17/2014  07:06:00       -0.711        3.945       -5.212        9.196        7.529        5.947       84.569       56.681       35.369        0.011        0.009        4.009        4.898        1.493      330.068       -2.796      870.943
01/17/2014  07:07:00       -1.936       -7.152       -3.548       10.954       12.524        5.583      119.992      156.852       31.171        0.019        0.015        7.409        2.862        0.149      330.219       -2.547      870.938
01/17/2014  07:08:00      -31.550      -21.993        0.842       10.775       10.837        7.281      116.099      117.432       53.014        0.088        0.014       38.459        4.648        0.015      329.855       -3.143      870.947
01/17/2014  07:09:00      -34.923      -20.007       -0.998       15.349       11.592       11.903      235.594      134.376      141.680        0.107        0.026       40.248        7.022        0.030      329.752       -3.313      870.958
01/17/2014  07:10:00      -45.021      -22.384       -6.832       10.374        9.115        8.269      107.624       83.077       68.376        0.142        0.013       50.278        3.911        0.006      329.697       -3.403      870.975
01/17/2014  07:11:00      -49.058      -25.898       -6.164       10.337       10.574        7.639      106.845      111.812       58.353        0.170        0.014       55.474        4.388        0.006      329.741       -3.332      870.987
01/17/2014  07:12:00      -40.155       -8.243       -6.773        7.017        7.404        6.600       49.239       54.814       43.560        0.094        0.007       40.992        4.508        0.012      329.759       -3.304      871.007
01/17/2014  07:13:00      -31.352       -9.713       -9.709       10.623        6.594        7.036      112.842       43.482       49.500        0.069        0.010       32.822        6.021        0.034      329.784       -3.260      871.016
01/17/2014  07:14:00      -60.189      -11.472      -10.355        8.814        7.553        6.375       77.687       57.049       40.645        0.202        0.009       61.272        4.861        0.006      329.699       -3.399      871.023
01/17/2014  07:15:00      -44.788      -12.055       -9.068       10.738        7.618        6.440      115.306       58.034       41.469        0.122        0.011       46.382        1.918        0.002      329.708       -3.385      871.027
01/17/2014  07:16:00      -25.197       -1.798      -10.677       10.184        7.325        5.556      103.721       53.654       30.864        0.047        0.009       25.261        3.670        0.021      329.940       -3.006      871.027
01/17/2014  07:17:00      -14.612       10.302       -1.032       15.849        9.800        8.614      251.193       96.048       74.194        0.037        0.021       17.879        4.542        0.065      330.067       -2.798      871.030
01/17/2014  07:18:00       -1.366        3.279       -0.832       10.804       10.475        5.699      116.722      109.729       32.478        0.014        0.013        3.552        5.580        2.468      330.077       -2.782      871.027
01/17/2014  07:19:00        6.165        4.524        5.402        8.931        5.322        4.687       79.755       28.320       21.967        0.011        0.007        7.647        1.883        0.061      330.114       -2.721      871.023
01/17/2014  07:20:00       12.479        1.713        4.036        3.885        6.715        6.802       15.096       45.095       46.269        0.014        0.005       12.596        3.296        0.068      330.231       -2.529      871.020
01/17/2014  07:21:00       25.019       23.692        2.272        8.046        6.810        4.369       64.738       46.374       19.086        0.066        0.007       34.457        3.929        0.013      330.227       -2.536      871.020
01/17/2014  07:22:00       36.032       29.808       -1.337        6.362        5.230        4.753       40.478       27.356       22.589        0.114        0.005       46.763        2.201        0.002      330.284       -2.442      871.024
01/17/2014  07:23:00       31.882       26.264       -3.907        7.191        7.054        4.871       51.715       49.758       23.727        0.092        0.006       41.307        3.378        0.007      330.236       -2.520      871.029
01/17/2014  07:24:00        9.695       27.234       -3.703        8.581       14.287        7.348       73.638      204.113       53.989        0.059        0.017       28.908        6.835        0.056      330.258       -2.485      871.034
01/17/2014  07:25:00       13.214       33.941       -5.911        9.398       13.019        6.602       88.331      169.506       43.591        0.083        0.015       36.422        4.770        0.017      330.262       -2.478      871.038
01/17/2014  07:26:00       19.475       20.242       -1.498       13.750       12.817       11.464      189.074      164.277      131.421        0.064        0.024       28.089        8.966        0.102      330.239       -2.516      871.048
01/17/2014  07:27:00       25.369       20.936       -2.272       11.067       13.742        9.403      122.488      188.829       88.421        0.074        0.020       32.892        5.735        0.030      330.257       -2.485      871.066
01/17/2014  07:28:00        8.550        5.630        0.622       12.761        9.565        7.410      162.832       91.493       54.914        0.021        0.015       10.237        7.783        0.578      330.268       -2.467      871.067
01/17/2014  07:29:00      -26.755      -10.315        5.860       12.362       13.377       12.014      152.810      178.947      144.330        0.067        0.024       28.674       10.900        0.145      330.120       -2.712      871.065
01/17/2014  07:30:00      -47.014      -25.044       -7.764       15.119       11.145        8.889      228.585      124.218       79.018        0.166        0.022       53.268        4.064        0.006      329.780       -3.267      871.062
01/17/2014  07:31:00      -64.227      -17.304       -9.943        9.298       13.550        6.672       86.444      183.600       44.522        0.242        0.016       66.517        6.437        0.009      329.641       -3.496      871.057
01/17/2014  07:32:00      -76.911        6.024      -11.934       14.590       10.249       10.321      212.859      105.035      106.522        0.326        0.021       77.147        4.584        0.004      329.541       -3.657      871.058
01/17/2014  07:33:00      -79.786        5.089      -13.138       15.918       13.953        8.990      253.375      194.695       80.824        0.355        0.026       79.949        8.996        0.013      329.595       -3.570      871.049
01/17/2014  07:34:00      -60.963        9.731      -11.764       11.190       11.049        9.521      125.224      122.084       90.655        0.214        0.017       61.735        6.657        0.012      329.594       -3.572      871.038
01/17/2014  07:35:00      -70.610        1.400      -14.684       12.430       11.183        9.503      154.501      125.060       90.300        0.279        0.018       70.624        6.793        0.009      329.624       -3.523      871.036
01/17/2014  07:36:00      -80.972        0.706       -9.184       20.101       12.423       10.282      404.035      154.326      105.729        0.365        0.033       80.975        8.140        0.010      329.581       -3.591      871.029
01/17/2014  07:37:00      -83.893       -7.203      -12.109       15.292       11.651       10.074      233.832      135.748      101.475        0.385        0.024       84.202        8.188        0.009      329.599       -3.564      871.018
01/17/2014  07:38:00      -79.597       -9.298      -10.295       13.248       15.525       11.554      175.507      241.013      133.485        0.354        0.028       80.138        4.864        0.004      329.637       -3.501      871.009
01/17/2014  07:39:00      -69.715        0.386       -7.287       15.040       12.311       10.275      226.201      151.571      105.582        0.270        0.024       69.716        9.251        0.018      329.606       -3.552      870.999
01/17/2014  07:40:00      -84.416        8.198       -9.066       15.565       11.952        9.799      242.269      142.845       96.019        0.388        0.024       84.813        7.928        0.009      329.702       -3.396      870.984
01/17/2014  07:41:00      -86.511        8.105      -14.222       10.572        7.277        6.801      111.776       52.961       46.253        0.398        0.011       86.890        3.459        0.002      329.809       -3.220      870.970
01/17/2014  07:42:00      -70.196       -5.014      -12.578       13.283       11.955        9.150      176.430      142.911       83.726        0.276        0.020       70.374        8.502        0.015      329.814       -3.214      870.966
01/17/2014  07:43:00      -70.957       -2.468      -11.397       11.935        9.314        7.594      142.448       86.744       57.666        0.273        0.014       71.000        5.376        0.006      329.767       -3.288      870.977
01/17/2014  07:44:00      -82.718       -3.865      -11.382        9.627       10.809        9.858       92.677      116.828       97.177        0.365        0.015       82.809        3.727        0.002      329.720       -3.364      870.989
01/17/2014  07:45:00      -80.162      -21.016       -7.272       27.295       19.470       11.840      745.001      379.099      140.178        0.409        0.063       82.871       12.738        0.024      329.678       -3.433      870.992
01/17/2014  07:46:00     -105.642      -24.258       -6.483       27.974       22.095       15.354      782.557      488.199      235.735        0.665        0.075      108.392       10.294        0.009      329.708       -3.383      870.997
01/17/2014  07:47:00      -98.497      -28.608       -7.879       16.209       12.777       10.817      262.719      163.256      117.018        0.556        0.027      102.568        7.771        0.006      329.738       -3.335      871.003
01/17/2014  07:48:00      -92.317      -32.167      -12.504       21.712       15.933       12.419      471.402      253.852      154.227        0.530        0.044       97.761        7.514        0.006      329.844       -3.163      871.001
01/17/2014  07:49:00      -91.931      -30.500       -7.973       18.438       17.388       10.568      339.962      302.346      111.692        0.510        0.038       96.858        8.952        0.009      329.903       -3.066      871.000
01/17/2014  07:50:00      -76.711       -8.170       -2.663       21.697       16.639       11.235      470.772      276.848      126.229        0.342        0.044       77.145       11.198        0.021      329.942       -3.002      870.999
01/17/2014  07:51:00      -75.040      -11.597       -0.576       21.849       13.978       10.721      477.395      195.379      114.939        0.328        0.039       75.931       10.391        0.019      329.975       -2.949      870.987
01/17/2014  07:52:00      -55.549      -13.373        3.887       24.091       20.397       11.881      580.364      416.042      141.164        0.221        0.057       57.136        5.967        0.011      330.051       -2.822      870.984
01/17/2014  07:53:00      -54.880       -7.120       -1.246       28.896       17.037       13.084      834.968      290.271      171.188        0.218        0.065       55.339       14.428        0.068      330.108       -2.731      870.982
01/17/2014  07:54:00      -60.240       -8.437        1.193       27.015       14.813       11.037      729.796      219.411      121.816        0.239        0.054       60.828       13.306        0.048      330.107       -2.733      870.979
01/17/2014  07:55:00      -82.042        2.759       -1.616       23.063       13.410       12.955      531.892      179.815      167.822        0.381        0.044       82.088       13.285        0.026      330.101       -2.741      870.982
01/17/2014  07:56:00      -73.635       -8.905       -5.509       23.075       14.981       10.235      532.446      224.430      104.752        0.320        0.043       74.172        9.200        0.015      330.176       -2.618      870.981
01/17/2014  07:57:00      -52.579      -14.495       -1.479       23.561       14.626       10.691      555.135      213.906      114.293        0.193        0.044       54.541        9.278        0.029      330.150       -2.662      870.982
01/17/2014  07:58:00      -73.828      -13.301       -8.135       20.405       17.382       11.189      416.360      302.137      125.202        0.327        0.042       75.017        6.800        0.008      330.182       -2.611      870.984
01/17/2014  07:59:00     -100.950       -2.127       -3.055       24.694       19.878       12.703      609.772      395.128      161.354        0.569        0.058      100.973       10.610        0.011      330.258       -2.482      870.983
01/17/2014  08:00:00      -78.497       -4.113       -9.267       23.618       16.045       11.363      557.790      257.426      129.112        0.360        0.047       78.605        9.102        0.013      330.282       -2.443      870.985
01/17/2014  08:01:00      -62.131       -6.375       -7.677       20.159       12.430       13.682      406.372      154.517      187.192        0.235        0.037       62.457       12.365        0.039      330.330       -2.366      870.986
01/17/2014  08:02:00      -70.451       -5.375       -9.243       16.490       14.253        9.648      271.907      203.137       93.086        0.282        0.028       70.656        3.735        0.003      330.360       -2.318      870.998
01/17/2014  08:03:00      -66.105       -9.972       -9.088       16.559       19.104       11.430      274.208      364.950      130.638        0.266        0.038       66.853        5.751        0.007      330.372       -2.299      870.997
01/17/2014  08:04:00      -59.473       -3.802       -3.018       20.455       16.710       10.801      418.417      279.232      116.655        0.219        0.041       59.594        9.646        0.026      330.405       -2.244      870.997
01/17/2014  08:05:00      -44.065        5.707       -1.705       18.187       19.098        8.630      330.776      364.749       74.484        0.137        0.039       44.433        8.144        0.034      330.423       -2.215      870.994
01/17/2014  08:06:00      -22.404       -9.925        3.168       14.634        8.922        9.646      214.163       79.597       93.051        0.050        0.019       24.504       10.137        0.171      330.631       -1.873      870.993
01/17/2014  08:07:00       -2.218       10.842       16.151        7.467        9.979        9.882       55.758       99.585       97.647        0.032        0.013       11.066        5.179        0.219      330.982       -1.297      870.987
01/17/2014  08:08:00       -3.841        0.309       13.853        4.692        4.416        5.016       22.013       19.503       25.164        0.014        0.003        3.853        1.261        0.107      331.306       -0.764      870.996
01/17/2014  08:09:00       28.854       12.995       10.866       13.007        8.281        9.268      169.192       68.568       85.901        0.072        0.016       31.646        5.508        0.030      330.971       -1.314      871.003
01/17/2014  08:10:00       11.198        9.286        7.878       14.360        7.686        9.776      206.202       59.077       95.570        0.032        0.018       14.547        8.081        0.309      331.039       -1.202      871.006
01/17/2014  08:11:00      -18.704       -2.855       -2.704       16.078        9.587        5.317      258.502       91.916       28.267        0.037        0.019       18.920        6.993        0.137      330.874       -1.473      871.011
01/17/2014  08:12:00      -27.302      -13.280       -5.148       11.335        8.148        7.090      128.485       66.392       50.267        0.060        0.012       30.360        6.759        0.050      330.753       -1.673      871.024
01/17/2014  08:13:00      -15.040       -7.373        2.143        8.642        5.689        7.195       74.692       32.363       51.767        0.022        0.008       16.750        4.391        0.069      330.952       -1.345      871.036
01/17/2014  08:14:00      -13.835       -1.326       -3.084       12.194        4.497        7.567      148.684       20.223       57.259        0.021        0.011       13.899        8.191        0.347      330.982       -1.296      871.037
01/17/2014  08:15:00       -7.681        1.289        3.443        5.792        4.720        8.986       33.552       22.275       80.756        0.010        0.007        7.789        3.881        0.248      331.208       -0.924      871.036
01/17/2014  08:16:00       -6.439        1.705        4.929        6.369        6.084        6.923       40.565       37.019       47.926        0.010        0.006        6.661        5.638        0.716      331.249       -0.858      871.040
01/17/2014  08:17:00      -13.327       -9.126       -2.903        6.446        5.349        4.208       41.551       28.612       17.703        0.018        0.004       16.153        2.948        0.033      331.054       -1.178      871.050
01/17/2014  08:18:00       -8.519       -4.138        0.854        6.069        3.581        3.770       36.833       12.825       14.214        0.008        0.003        9.471        2.397        0.064      331.270       -0.824      871.052
01/17/2014  08:19:00      -13.290        1.150        2.082        5.879        6.499        8.113       34.557       42.240       65.828        0.016        0.007       13.340        4.712        0.125      331.259       -0.842      871.058
01/17/2014  08:20:00       -9.189        1.637       18.078        6.969        5.842        8.520       48.563       34.124       72.585        0.028        0.008        9.333        6.295        0.455      331.793        0.038      871.059
01/17/2014  08:21:00      -20.688        1.150        2.452        6.634        6.103        6.657       44.012       37.245       44.313        0.028        0.006       20.719        5.060        0.060      331.150       -1.021      871.064
01/17/2014  08:22:00      -16.573       -0.620        2.617        8.280        8.293        8.577       68.558       68.774       73.572        0.025        0.011       16.585        7.516        0.205      331.260       -0.837      871.082
01/17/2014  08:23:00      -15.810        0.880        8.118        9.262        7.099        9.902       85.782       50.397       98.045        0.028        0.012       15.835        7.889        0.248      331.467       -0.500      871.091
01/17/2014  08:24:00      -17.484       19.675       11.904       10.926       10.428       19.003      119.384      108.733      361.121        0.071        0.029       26.321       12.430        0.223      331.499       -0.445      871.097
01/17/2014  08:25:00      -13.799        0.337       11.703       12.411       19.552       18.402      154.044      382.268      338.637        0.060        0.044       13.803       12.982        0.885      331.523       -0.409      871.101
01/17/2014  08:26:00       22.121        2.111       11.648       27.539       17.871       21.237      758.381      319.377      450.998        0.108        0.076       22.222       20.295        0.834      331.629       -0.232      871.107
01/17/2014  08:27:00        1.472       17.942       23.306       15.375       17.610       22.996      236.404      310.129      528.815        0.097        0.054       18.002       13.169        0.535      331.808        0.063      871.109
01/17/2014  08:28:00       37.329       29.610       20.400       35.347       20.970       25.407     1249.381      439.757      645.496        0.251        0.117       47.647       24.121        0.256      331.398       -0.612      871.108
01/17/2014  08:29:00        8.059       28.619       36.482       24.499       21.649       16.674      600.181      468.674      278.010        0.178        0.067       29.733        6.676        0.050      331.689       -0.134      871.100
01/17/2014  08:30:00        0.466       26.191       45.881       18.837       23.298       16.291      354.848      542.795      265.382        0.198        0.058       26.195       13.240        0.255      331.760       -0.016      871.093
01/17/2014  08:31:00        3.568       21.979       42.404       32.777       25.371       20.895     1074.345      643.690      436.600        0.222        0.108       22.266       20.360        0.836      331.733       -0.061      871.089
01/17/2014  08:32:00       64.846       55.856       17.687       20.527       16.895       19.731      421.360      285.445      389.297        0.437        0.055       85.586        8.627        0.010      331.219       -0.908      871.084
01/17/2014  08:33:00       47.638       49.610       27.328       15.501       15.718       24.474      240.285      247.069      598.981        0.328        0.054       68.779        3.368        0.002      331.316       -0.746      871.092
01/17/2014  08:34:00       34.020       26.214       27.901       24.046       22.177       24.792      578.231      491.809      614.642        0.215        0.084       42.948       13.815        0.103      331.512       -0.425      871.106
01/17/2014  08:35:00       45.447       52.159       39.664       24.651       25.663       25.799      607.687      658.597      665.594        0.415        0.097       69.181        7.851        0.013      331.443       -0.539      871.104
01/17/2014  08:36:00       49.115       52.659       36.582       31.949       20.917       22.027     1020.708      437.535      485.181        0.423        0.097       72.009       16.503        0.053      331.423       -0.571      871.106
01/17/2014  08:37:00       44.021       67.187       59.219       27.216       29.766       18.508      740.690      886.038      342.553        0.596        0.098       80.324        7.056        0.008      331.546       -0.369      871.103
01/17/2014  08:38:00       83.273       63.855       44.195       26.174       13.812       20.968      685.070      190.768      439.672        0.714        0.066      104.937       13.347        0.016      331.395       -0.617      871.098
01/17/2014  08:39:00       70.526       43.977       18.225       19.328       21.214       29.552      373.568      450.052      873.298        0.447        0.085       83.114       12.269        0.022      331.436       -0.550      871.105
01/17/2014  08:40:00       75.587       49.667       10.789       28.612       28.413       26.994      818.638      807.287      728.688        0.533        0.118       90.444       16.142        0.032      331.557       -0.351      871.112
01/17/2014  08:41:00       72.644       52.936       22.427       27.688       27.611       28.269      766.613      762.391      799.116        0.545        0.116       89.885       20.561        0.052      331.467       -0.499      871.115
01/17/2014  08:42:00       25.136       55.225       51.206       37.824       31.934       27.819     1430.647     1019.798      773.902        0.476        0.161       60.677       16.908        0.078      331.748       -0.037      871.115
01/17/2014  08:43:00       39.572       30.250       39.514       30.965       25.553       31.044      958.803      652.942      963.721        0.331        0.129       49.810       20.460        0.169      331.696       -0.123      871.114
01/17/2014  08:44:00       93.725       66.078       -4.544       23.937       24.773       22.757      572.971      613.711      517.900        0.744        0.085      114.677       15.107        0.017      331.472       -0.489      871.108
01/17/2014  08:45:00       66.302       66.169        6.312       24.464       22.201       22.005      598.511      492.886      484.213        0.519        0.079       93.672       14.484        0.024      331.658       -0.185      871.103
01/17/2014  08:46:00       69.222       74.609        5.061       15.398       14.235       26.491      237.109      202.643      701.770        0.576        0.057      101.776       12.553        0.015      331.529       -0.396      871.116
01/17/2014  08:47:00       92.375       59.800        6.965       21.466       23.210       26.089      460.795      538.724      680.628        0.692        0.084      110.042        6.856        0.004      331.577       -0.318      871.120
01/17/2014  08:48:00       94.832       58.235       -8.490       18.867       18.048       13.466      355.979      325.744      181.321        0.666        0.043      111.285        6.356        0.003      331.497       -0.450      871.128
01/17/2014  08:49:00       92.581       59.717       -5.550       22.760       19.100       20.382      518.037      364.793      415.445        0.673        0.065      110.170       11.153        0.010      331.650       -0.199      871.128
01/17/2014  08:50:00       88.309       58.557       -6.125       22.995       19.231       24.209      528.752      369.831      586.063        0.637        0.074      105.959       14.642        0.019      331.624       -0.241      871.142
01/17/2014  08:51:00       55.836       58.775       31.582       36.383       31.568       36.671     1323.702      996.514     1344.786        0.562        0.183       81.069       21.943        0.073      331.723       -0.077      871.155
01/17/2014  08:52:00       59.405       34.286       30.537       28.401       23.548       31.512      806.589      554.499      993.002        0.400        0.118       68.589       14.850        0.047      331.795        0.041      871.165
01/17/2014  08:53:00       52.708       33.355       35.227       34.157       28.742       27.137     1166.724      826.087      736.433        0.393        0.136       62.376        4.572        0.005      331.989        0.360      871.166
01/17/2014  08:54:00       75.257       46.535       22.307       21.236       18.206       26.418      450.968      331.475      697.925        0.490        0.074       88.482       10.732        0.015      331.709       -0.101      871.175
01/17/2014  08:55:00       58.359       53.156       22.449       25.519       22.574       22.000      651.234      509.565      484.022        0.419        0.082       78.939        9.828        0.015      331.823        0.086      871.167
01/17/2014  08:56:00       53.020       55.681        3.092       24.605       21.736       26.570      605.382      472.448      705.941        0.385        0.089       76.886       15.990        0.043      331.899        0.212      871.166
01/17/2014  08:57:00       61.876       50.977       20.027       37.247       31.956       21.422     1387.349     1021.210      458.893        0.485        0.143       80.170       15.825        0.039      332.008        0.393      871.158
01/17/2014  08:58:00       70.786       56.972       30.020       44.450       26.891       30.007     1975.767      723.105      900.396        0.638        0.180       90.865       17.841        0.039      331.986        0.355      871.156
01/17/2014  08:59:00       66.623       74.226       20.843       27.474       22.672       34.053      754.819      514.017     1159.628        0.641        0.121       99.741       17.163        0.030      331.877        0.175      871.156
01/17/2014  09:00:00       83.274       58.732       14.118       31.696       18.609       23.672     1004.614      346.293      560.378        0.625        0.096      101.902       14.412        0.020      331.849        0.130      871.160
01/17/2014  09:01:00       46.770       56.326       11.752       36.328       21.407       33.293     1319.703      458.250     1108.454        0.419        0.144       73.212       19.872        0.074      331.809        0.064      871.155
01/17/2014  09:02:00       59.387       68.421       30.944       48.722       34.159       40.068     2373.831     1166.821     1605.436        0.715        0.257       90.599       35.405        0.153      332.021        0.413      871.153
01/17/2014  09:03:00       80.950       72.614       -7.027       39.130       24.126       27.857     1531.132      582.071      776.014        0.738        0.144      108.746       21.918        0.041      332.069        0.493      871.154
01/17/2014  09:04:00       89.875       55.455       -3.860       28.631       23.576       24.445      819.740      555.815      597.546        0.657        0.099      105.606       16.525        0.024      331.937        0.274      871.162
01/17/2014  09:05:00       97.708       52.733       -6.038       23.620       20.284       21.585      557.883      411.439      465.896        0.690        0.072      111.030       13.787        0.015      331.874        0.170      871.181
01/17/2014  09:06:00       63.164       63.926        8.673       19.749       24.546       22.710      390.025      602.515      515.735        0.483        0.075       89.868       14.525        0.026      331.960        0.312      871.182
01/17/2014  09:07:00       82.370       86.971       23.243       23.177       22.071       26.561      537.165      487.121      705.498        0.831        0.086      119.787       15.314        0.016      332.057        0.472      871.202
01/17/2014  09:08:00       68.760       61.999        5.537       23.391       19.198       29.767      547.149      368.580      886.046        0.520        0.090       92.584       17.988        0.038      332.050        0.462      871.221
01/17/2014  09:09:00       49.298       62.544       -0.829       33.911       30.498       28.403     1149.940      930.150      806.703        0.461        0.144       79.636       14.887        0.035      332.286        0.850      871.237
01/17/2014  09:10:00       48.990       53.302       24.585       43.301       32.869       29.860     1875.002     1080.345      891.603        0.485        0.192       72.396       15.145        0.044      332.381        1.006      871.249
01/17/2014  09:11:00       70.013       68.634       18.682       23.092       18.929       20.454      533.225      358.291      418.351        0.564        0.065       98.043       11.610        0.014      332.098        0.540      871.261
01/17/2014  09:12:00       47.094       50.765       63.561       53.811       46.551       42.174     2895.618     2166.988     1778.662        0.784        0.342       69.245       38.464        0.309      332.437        1.099      871.270
01/17/2014  09:13:00       76.070       22.746       36.101       46.522       34.811       35.240     2164.294     1211.771     1241.879        0.611        0.231       79.398       18.970        0.057      332.373        0.993      871.285
01/17/2014  09:14:00       87.091       59.872       -1.273       22.028       22.917       27.277      485.231      525.208      744.060        0.646        0.088      105.686       11.524        0.012      332.241        0.774      871.308
01/17/2014  09:15:00       82.200       70.023       21.333       50.716       32.931       31.236     2572.081     1084.471      975.687        0.837        0.232      107.981       12.938        0.014      332.458        1.135      871.332
01/17/2014  09:16:00       61.560       54.497       10.877       26.911       16.943       19.360      724.212      287.051      374.792        0.413        0.069       82.217        9.598        0.014      332.320        0.906      871.356
01/17/2014  09:17:00       83.908       63.306       11.569       56.820       32.940       28.933     3228.476     1085.035      837.095        0.817        0.258      105.111       13.795        0.017      332.369        0.988      871.355
01/17/2014  09:18:00      115.561       63.509        2.854       41.041       25.112       34.723     1684.355      630.628     1205.657        1.046        0.176      131.863       24.139        0.034      332.160        0.642      871.356
01/17/2014  09:19:00       60.341       58.780        2.898       40.994       25.488       25.928     1680.468      649.660      672.237        0.505        0.150       84.238       21.348        0.064      332.349        0.952      871.365
01/17/2014  09:20:00       28.221       31.045       22.539       33.125       27.573       36.617     1097.281      760.290     1340.838        0.273        0.160       41.955       24.701        0.347      332.847        1.776      871.367
01/17/2014  09:21:00       90.672       85.984       13.286       35.930       26.401       29.533     1290.951      697.022      872.202        0.933        0.143      124.959       16.412        0.017      332.292        0.861      871.372
01/17/2014  09:22:00       92.922       68.002      -15.612       30.434       27.552       25.143      926.223      759.103      632.167        0.791        0.116      115.147       15.755        0.019      332.266        0.817      871.375
01/17/2014  09:23:00       52.641       52.842        1.978       36.752       26.739       26.321     1350.699      714.980      692.771        0.416        0.138       74.588       16.924        0.051      332.674        1.490      871.384
01/17/2014  09:24:00       41.431       59.152       -1.145       57.821       29.990       25.797     3343.249      899.424      665.505        0.506        0.245       72.218       10.979        0.023      332.676        1.492      871.389
01/17/2014  09:25:00       45.526       53.355       31.156       54.876       48.567       29.809     3011.347     2358.774      888.603        0.607        0.313       70.138       24.122        0.118      332.880        1.832      871.405
01/17/2014  09:26:00       32.019       49.330       56.505       35.403       40.852       24.354     1253.387     1668.874      593.097        0.508        0.176       58.810       21.753        0.137      332.784        1.672      871.405
01/17/2014  09:27:00       32.724       84.665       78.179       43.620       40.417       30.660     1902.735     1633.550      940.035        0.941        0.224       90.769       24.406        0.072      332.598        1.365      871.403
01/17/2014  09:28:00       36.141       90.466       91.233       34.467       35.792       21.634     1187.950     1281.047      468.018        1.037        0.147       97.418       19.834        0.041      332.508        1.216      871.414
01/17/2014  09:29:00       36.463       52.155       61.536       29.985       27.733       15.237      899.125      769.114      232.169        0.487        0.095       63.637       15.578        0.060      332.563        1.306      871.426
01/17/2014  09:30:00       18.670       46.127       73.487       32.053       42.181       30.645     1027.371     1779.266      939.117        0.581        0.187       49.762       29.447        0.350      332.942        1.932      871.423
01/17/2014  09:31:00       65.435       86.362       79.069       55.812       51.948       40.560     3114.993     2698.590     1645.119        1.272        0.373      108.352       32.904        0.092      332.442        1.107      871.437
01/17/2014  09:32:00      125.743       66.165       42.722       41.866       38.657       40.765     1752.756     1494.388     1661.750        1.346        0.245      142.088       21.879        0.024      332.359        0.970      871.441
01/17/2014  09:33:00        3.339        5.733       11.712       45.136       26.447       17.679     2037.296      699.419      312.539        0.161        0.152        6.635        4.728        0.508      332.785        1.673      871.453
01/17/2014  09:34:00       -6.486       27.670       65.573       23.156       30.625       27.364      536.197      937.869      748.792        0.366        0.111       28.420       21.771        0.587      333.219        2.391      871.459
01/17/2014  09:35:00       39.709       39.438       56.886       34.260       28.077       30.248     1173.768      788.306      914.966        0.462        0.144       55.965       20.559        0.135      332.960        1.962      871.459
01/17/2014  09:36:00       52.351       57.909       32.096       48.214       27.491       38.800     2324.597      755.781     1505.465        0.585        0.229       78.064       34.263        0.193      332.757        1.628      871.449
01/17/2014  09:37:00       57.854       48.146       -5.691       29.591       21.788       23.844      875.610      474.733      568.556        0.381        0.096       75.267        7.191        0.009      332.763        1.636      871.448
01/17/2014  09:38:00       48.430       63.095       45.308       53.097       38.286       44.161     2819.316     1465.801     1950.163        0.731        0.312       79.538       39.344        0.245      332.978        1.992      871.441
01/17/2014  09:39:00       85.830      100.290       71.800       40.754       40.554       43.352     1660.874     1644.642     1879.427        1.388        0.259      132.004       35.074        0.071      332.613        1.388      871.440
01/17/2014  09:40:00       82.390      116.381       95.897       49.379       43.591       38.978     2438.325     1900.144     1519.256        1.769        0.293      142.592       28.109        0.039      332.681        1.502      871.434
01/17/2014  09:41:00       89.545       67.081       54.593       41.203       54.969       40.538     1697.672     3021.584     1643.317        1.093        0.318      111.884       28.519        0.065      332.781        1.667      871.433
01/17/2014  09:42:00       41.358       41.563       27.725       37.339       32.821       26.662     1394.191     1077.203      710.884        0.369        0.159       58.634       20.370        0.121      333.142        2.263      871.444
01/17/2014  09:43:00       37.777       45.385       32.419       53.258       45.169       51.613     2836.457     2040.263     2663.947        0.604        0.377       59.050       34.953        0.350      333.169        2.308      871.446
01/17/2014  09:44:00       61.829       50.668       49.295       35.105       37.587       35.646     1232.378     1412.753     1270.630        0.637        0.196       79.938       19.447        0.059      332.845        1.773      871.463
01/17/2014  09:45:00       68.868       66.951       51.946       37.926       34.541       37.566     1438.418     1193.098     1411.234        0.798        0.202       96.048       34.421        0.128      332.810        1.715      871.460
01/17/2014  09:46:00       71.313       71.711       62.461       28.834       27.199       34.053      831.394      739.777     1159.600        0.843        0.137      101.133       11.578        0.013      332.880        1.832      871.471
01/17/2014  09:47:00       55.182       62.427       60.268       36.763       29.613       37.898     1351.526      876.902     1436.250        0.712        0.183       83.319       21.802        0.068      333.008        2.042      871.477
01/17/2014  09:48:00       75.393       88.184       74.991       62.591       47.660       24.808     3917.641     2271.445      615.445        1.294        0.340      116.020       17.745        0.023      333.201        2.361      871.473
01/17/2014  09:49:00       83.182       78.191       70.359       41.818       53.854       49.904     1748.773     2900.260     2490.393        1.256        0.357      114.163       42.209        0.137      333.133        2.251      871.471
01/17/2014  09:50:00       75.468       87.874       61.751       38.777       32.579       37.592     1503.692     1061.420     1413.142        1.060        0.199      115.833       30.862        0.071      332.917        1.891      871.483
01/17/2014  09:51:00       47.074      101.784       95.169       55.229       34.106       28.881     3050.207     1163.226      834.128        1.334        0.252      112.142       27.286        0.059      332.991        2.013      871.478
01/17/2014  09:52:00      102.078      103.297       48.469       29.084       28.480       41.330      845.907      811.101     1708.176        1.340        0.168      145.224       23.629        0.026      332.932        1.917      871.489
01/17/2014  09:53:00       46.491       32.524       19.903       33.693       34.452       32.086     1135.185     1186.921     1029.482        0.348        0.168       56.738       24.910        0.193      332.970        1.979      871.497
01/17/2014  09:54:00       60.511        2.721       14.697       43.395       49.706       26.158     1883.113     2470.703      684.233        0.446        0.252       60.572       26.793        0.196      333.058        2.125      871.492
01/17/2014  09:55:00       65.070       81.812       54.163       46.406       37.631       23.875     2153.474     1416.107      570.019        0.900        0.207      104.534       13.998        0.018      333.232        2.411      871.493
01/17/2014  09:56:00       26.730       81.029       69.491       43.085       47.988       44.912     1856.339     2302.806     2017.053        0.914        0.309       85.324       41.999        0.242      333.468        2.801      871.493
01/17/2014  09:57:00       60.058       67.838       53.389       35.595       22.729       33.377     1266.976      516.611     1114.029        0.698        0.145       90.603       23.105        0.065      333.238        2.422      871.498
01/17/2014  09:58:00       54.732      100.694       98.650       41.873       45.143       34.230     1753.371     2037.920     1171.692        1.391        0.248      114.607       27.215        0.056      333.382        2.661      871.486
01/17/2014  09:59:00      111.442       84.458       72.517       37.840       43.018       40.209     1431.847     1850.506     1616.754        1.485        0.245      139.830       28.804        0.042      333.129        2.242      871.486
01/17/2014  10:00:00       53.591      -53.245       32.378       27.170       88.287       38.593      738.221     7794.616     1489.390        0.839        0.501       75.545       53.328        0.498      333.134        2.250      871.490
01/17/2014  10:01:00       12.647      -18.086       36.333       28.049       41.582       25.953      786.743     1729.085      673.573        0.250        0.159       22.069       28.052        1.616      333.754        3.278      871.484
01/17/2014  10:02:00       -7.917       61.325       78.385       17.209       37.313       21.921      296.150     1392.237      480.515        0.607        0.108       61.834       20.482        0.110      333.803        3.357      871.482
01/17/2014  10:03:00       34.297       38.657       12.456       36.637       31.954       29.821     1342.277     1021.073      889.290        0.304        0.163       51.678       26.634        0.266      333.785        3.327      871.475
01/17/2014  10:04:00       20.198       -3.667       21.381       37.731       26.920       30.209     1423.594      724.663      912.582        0.197        0.153       20.528       18.499        0.812      333.891        3.505      871.467
01/17/2014  10:05:00       89.578       72.432       42.233       34.574       35.101       36.245     1195.392     1232.068     1313.714        0.940        0.187      115.198       21.837        0.036      333.436        2.749      871.463
01/17/2014  10:06:00       90.013       73.133       29.992       32.876       41.014       47.271     1080.810     1682.139     2234.547        0.967        0.250      115.978       39.096        0.114      333.209        2.375      871.467
01/17/2014  10:07:00       93.468       54.355       14.202       51.968       36.834       40.193     2700.703     1356.725     1615.471        0.878        0.284      108.124       32.291        0.089      333.599        3.019      871.470
01/17/2014  10:08:00       83.811       65.832       11.111       62.287       39.113       44.125     3879.681     1529.843     1947.048        0.942        0.368      106.575       41.870        0.154      333.735        3.245      871.472
01/17/2014  10:09:00        2.529      -30.183       36.729       44.097       44.037       34.665     1944.582     1939.228     1201.685        0.367        0.254       30.289       23.278        0.591      334.124        3.890      871.483
01/17/2014  10:10:00       31.382       68.589       77.027       40.952       47.933       38.319     1677.058     2297.609     1468.342        0.853        0.272       75.427       35.668        0.224      333.924        3.559      871.484
01/17/2014  10:11:00       36.592       67.370       74.347       45.386       43.256       32.150     2059.851     1871.105     1033.615        0.818        0.248       76.666       30.705        0.160      333.623        3.058      871.491
01/17/2014  10:12:00      115.259       35.785       23.667       52.755       50.863       47.321     2783.077     2587.018     2239.266        1.137        0.380      120.686       30.638        0.064      333.651        3.105      871.498
01/17/2014  10:13:00       38.112       60.161        4.175       46.474       42.428       39.108     2159.838     1800.104     1529.451        0.529        0.274       71.217       33.289        0.218      334.012        3.704      871.495
01/17/2014  10:14:00       51.136       72.354        6.797       43.601       54.876       41.473     1901.032     3011.376     1719.996        0.726        0.332       88.600       40.377        0.208      333.873        3.475      871.498
01/17/2014  10:15:00      105.422       66.929        7.234       21.873       25.516       31.833      478.417      651.047     1013.345        0.889        0.107      124.874       12.659        0.010      333.616        3.048      871.500
01/17/2014  10:16:00        1.967       17.348        6.070       41.275       28.697       27.737     1703.626      823.507      769.323        0.182        0.165       17.459       24.750        2.010      334.186        3.992      871.501
01/17/2014  10:17:00       19.594       66.595       68.915       37.537       38.713       28.401     1409.061     1498.727      806.642        0.664        0.186       69.418       14.937        0.046      334.236        4.075      871.504
01/17/2014  10:18:00        7.701       56.099       39.315       24.440       35.628       32.481      597.305     1269.353     1055.011        0.384        0.146       56.625       23.143        0.167      334.101        3.851      871.508
01/17/2014  10:19:00       22.502      139.408      -26.307       28.017       56.722       33.833      784.954     3217.390     1144.676        1.289        0.257      141.212       34.976        0.061      333.673        3.142      871.514
01/17/2014  10:20:00       51.396       48.373        9.253       29.476       33.117       37.131      868.859     1096.754     1378.708        0.421        0.167       70.580       28.202        0.160      333.860        3.453      871.515
01/17/2014  10:21:00       -9.543      -10.470      -10.600       18.904       15.932        9.581      357.360      253.834       91.791        0.051        0.035       14.167       12.286        0.752      333.749        3.268      871.503
01/17/2014  10:22:00       42.664       32.882        8.671       55.188       42.908       25.064     3045.717     1841.080      628.189        0.424        0.276       53.865       15.642        0.084      334.010        3.700      871.490
01/17/2014  10:23:00       46.916       68.085       50.331       56.530       39.430       54.736     3195.592     1554.748     2996.083        0.856        0.387       82.684       48.974        0.351      334.138        3.914      871.477
01/17/2014  10:24:00       45.555       81.901       79.339       46.397       36.885       37.247     2152.672     1360.519     1387.361        0.999        0.245       93.718       34.879        0.139      334.024        3.723      871.468
01/17/2014  10:25:00       79.867       81.473       58.188       44.468       32.105       25.457     1977.365     1030.721      648.037        1.003        0.183      114.090        8.107        0.005      333.794        3.342      871.467
01/17/2014  10:26:00       45.379       44.250       43.494       26.717       28.339       21.830      713.774      803.118      476.559        0.395        0.100       63.383       14.614        0.053      334.233        4.070      871.469
01/17/2014  10:27:00      124.694       83.042       39.689       47.664       38.583       47.382     2271.897     1488.629     2245.099        1.501        0.300      149.815       36.692        0.060      333.965        3.625      871.460
01/17/2014  10:28:00       51.522       67.646       47.444       52.840       36.251       34.283     2792.083     1314.157     1175.356        0.738        0.264       85.032       23.484        0.076      334.113        3.872      871.451
01/17/2014  10:29:00       95.954       93.001       24.758       28.740       26.633       43.194      826.004      709.291     1865.748        1.093        0.170      133.628        9.772        0.005      333.988        3.665      871.457
01/17/2014  10:30:00       52.006       41.414       -0.313       31.506       31.678       28.771      992.655     1003.480      827.766        0.362        0.141       66.482       19.756        0.088      334.520        4.548      871.466
01/17/2014  10:31:00       18.799       12.634       32.325       33.910       24.819       17.267     1149.907      615.987      298.161        0.181        0.103       22.649       11.905        0.276      334.749        4.926      871.448
01/17/2014  10:32:00       58.624       51.453       18.584       23.759       23.407       27.698      564.467      547.893      767.199        0.415        0.094       78.001       13.429        0.030      334.262        4.119      871.438
01/17/2014  10:33:00       22.979       29.670       48.047       42.730       34.590       44.764     1825.877     1196.454     2003.839        0.437        0.251       37.528       33.668        0.805      334.751        4.931      871.426
01/17/2014  10:34:00       70.264       84.987       91.485       63.809       45.827       41.260     4071.605     2100.099     1702.422        1.420        0.394      110.271       37.120        0.113      334.286        4.158      871.414
01/17/2014  10:35:00       62.855       20.482       31.137       44.310       30.325       35.874     1963.391      919.600     1286.946        0.475        0.208       66.108       26.582        0.162      334.274        4.139      871.423
01/17/2014  10:36:00      126.754       65.005       20.159       53.569       64.090       40.440     2869.666     4107.487     1635.389        1.465        0.431      142.451       32.779        0.053      334.046        3.759      871.406
01/17/2014  10:37:00       92.915       84.880       58.528       38.979       42.061       39.511     1519.371     1769.139     1561.106        1.206        0.242      125.848       25.892        0.042      334.126        3.892      871.403
01/17/2014  10:38:00       20.530       -2.211       40.247       40.001       42.439       31.112     1600.040     1801.038      967.978        0.321        0.218       20.649       23.089        1.250      334.579        4.645      871.398
01/17/2014  10:39:00       30.611        4.062       63.337       55.379       95.850       57.742     3066.889     9187.241     3334.142        1.027        0.779       30.879       67.778        4.818      334.529        4.563      871.380
01/17/2014  10:40:00       68.770      -43.522       30.830       49.626       68.958       42.220     2462.783     4755.220     1782.519        0.829        0.450       81.385       44.171        0.295      334.449        4.429      871.362
01/17/2014  10:41:00       44.862       39.250       72.816       56.424       34.924       34.733     3183.620     1219.678     1206.372        0.723        0.280       59.609       33.003        0.307      334.603        4.684      871.352
01/17/2014  10:42:00       73.833       -3.672       24.303       41.487       44.136       33.343     1721.202     1947.989     1111.726        0.542        0.239       73.924       27.549        0.139      334.494        4.504      871.340
01/17/2014  10:43:00       60.023       51.020       46.801       61.650       38.503       26.079     3800.739     1482.498      680.091        0.718        0.298       78.777       21.950        0.078      334.568        4.625      871.309
01/17/2014  10:44:00       43.557       74.061       72.949       70.281       50.573       40.684     4939.393     2557.674     1655.215        1.093        0.458       85.920       32.761        0.145      334.804        5.017      871.289
01/17/2014  10:45:00       78.512       79.962       37.573       61.292       43.358       51.722     3756.683     1879.893     2675.204        1.114        0.416      112.063       38.847        0.120      334.512        4.533      871.281
01/17/2014  10:46:00       69.275       63.630       48.154       56.961       39.094       47.393     3244.527     1528.364     2246.065        0.909        0.351       94.063       31.534        0.112      334.734        4.902      871.268
01/17/2014  10:47:00       72.077       74.351       57.337       44.805       33.576       35.741     2007.524     1127.320     1277.422        0.921        0.221      103.553       19.278        0.035      334.664        4.786      871.260
01/17/2014  10:48:00       -0.776       12.287       57.759       24.810       44.390       36.476      615.526     1970.450     1330.516        0.370        0.196       12.311       33.269        7.302      335.293        5.830      871.250
01/17/2014  10:49:00       22.365       82.032       77.374       45.159       38.748       45.021     2039.372     1501.377     2026.858        0.939        0.278       85.026       37.386        0.193      334.763        4.950      871.236
01/17/2014  10:50:00       37.665       75.200       81.678       54.825       60.305       45.644     3005.748     3636.678     2083.351        1.123        0.436       84.106       43.326        0.265      334.828        5.057      871.218
01/17/2014  10:51:00       94.850       74.216       18.488       58.429       46.443       30.766     3413.984     2156.966      946.543        1.068        0.326      120.435       19.274        0.026      334.744        4.918      871.203
01/17/2014  10:52:00      118.470       89.734       -1.720       34.311       26.386       35.999     1177.240      696.245     1295.946        1.263        0.158      148.618       21.843        0.022      334.353        4.270      871.195
01/17/2014  10:53:00       87.500       78.980        5.168       59.953       30.069       38.715     3594.410      904.143     1498.840        0.996        0.300      117.873       32.327        0.075      334.503        4.519      871.181
01/17/2014  10:54:00       62.050       96.907       82.087       55.280       35.529       40.671     3055.895     1262.281     1654.119        1.297        0.299      115.070       35.685        0.096      334.821        5.046      871.165
01/17/2014  10:55:00       38.603       79.389       69.350       47.361       37.890       31.575     2243.079     1435.671      997.001        0.864        0.234       88.277       20.043        0.052      334.803        5.017      871.163
01/17/2014  10:56:00       39.792       29.938       22.628       71.461       35.447       29.500     5106.687     1256.460      870.225        0.511        0.362       49.796       25.228        0.257      335.131        5.562      871.144
01/17/2014  10:57:00       27.465       54.025       29.935       55.545       42.262       53.940     3085.283     1786.056     2909.485        0.617        0.389       60.605       40.832        0.454      335.112        5.530      871.131
01/17/2014  10:58:00       41.726       59.432       81.524       40.462       48.498       36.938     1637.167     2352.037     1364.436        0.864        0.268       72.617       31.795        0.192      334.944        5.253      871.119
01/17/2014  10:59:00       22.342       58.217       77.289       48.988       39.766       25.199     2399.817     1581.305      634.981        0.724        0.231       62.357       21.136        0.115      334.983        5.315      871.114
01/17/2014  11:00:00       78.011       61.261       37.212       31.586       42.348       47.272      997.654     1793.355     2234.600        0.812        0.251       99.190       39.985        0.163      334.502        4.517      871.096
01/17/2014  11:01:00       86.240       57.434       15.542       29.617       22.491       33.002      877.144      505.823     1089.109        0.672        0.124      103.615       18.353        0.031      334.534        4.570      871.085
01/17/2014  11:02:00       69.942       59.425        8.139       30.915       19.427       28.385      955.754      377.401      805.711        0.531        0.107       91.777       15.801        0.030      334.952        5.264      871.062
01/17/2014  11:03:00        1.648        9.409        8.727       40.017       38.492       30.443     1601.335     1481.660      926.757        0.209        0.200        9.552       23.492        6.048      335.373        5.965      871.050
01/17/2014  11:04:00       30.883      -32.481       10.072       39.702       46.792       33.093     1576.244     2189.466     1095.164        0.348        0.243       44.819       21.108        0.222      335.128        5.556      871.025
01/17/2014  11:05:00        9.522       34.784       81.535       30.032       48.222       29.702      901.901     2325.406      882.193        0.603        0.205       36.064       27.789        0.594      335.487        6.154      871.013
01/17/2014  11:06:00       28.886     -117.884       -8.080       49.769       57.732       37.106     2476.906     3333.024     1376.835        1.099        0.359      121.371       32.984        0.074      334.826        5.054      870.997
01/17/2014  11:07:00        3.293      -68.202       -7.654       42.611       55.259       22.766     1815.714     3053.546      518.292        0.505        0.269       68.282       27.715        0.165      334.809        5.027      870.980
01/17/2014  11:08:00      -19.249       -0.358        5.772       20.400       23.775       21.204      416.144      565.229      449.598        0.092        0.072       19.253       16.735        0.756      335.318        5.873      870.957
01/17/2014  11:09:00       -3.847      -19.987       19.549       27.032       40.445       28.711      730.728     1635.808      824.348        0.199        0.160       20.354       21.626        1.129      335.558        6.272      870.952
01/17/2014  11:10:00       54.940       31.103       56.667       44.705       92.811       54.206     1998.541     8613.933     2938.262        1.037        0.678       63.133       65.298        1.070      335.194        5.668      870.946
01/17/2014  11:11:00       -1.426       26.196       61.251       29.347       33.094       23.118      861.250     1095.240      534.440        0.346        0.125       26.235       15.457        0.347      335.725        6.550      870.942
01/17/2014  11:12:00       39.173      -43.722       31.320       45.823       61.003       40.684     2099.711     3721.324     1655.174        0.595        0.374       58.704       47.830        0.664      335.461        6.112      870.928
01/17/2014  11:13:00       14.390       73.238       67.334       30.435       38.025       27.464      926.317     1445.874      754.259        0.661        0.156       74.638        8.770        0.014      335.507        6.186      870.926
01/17/2014  11:14:00       42.949       11.214       63.813       69.380       95.897       55.002     4813.634     9196.142     3025.227        1.154        0.852       44.389       70.647        2.533      335.361        5.944      870.910
01/17/2014  11:15:00       63.308      -42.150       31.016       42.547       59.167       38.877     1810.262     3500.709     1511.415        0.678        0.341       76.056       40.745        0.287      335.141        5.578      870.905
01/17/2014  11:16:00       55.091       33.926       31.232       33.682       43.234       24.434     1134.482     1869.219      597.021        0.438        0.180       64.699       18.865        0.085      335.078        5.473      870.883
01/17/2014  11:17:00       30.137      -47.502      -12.682       57.846       84.264       33.802     3346.205     7100.358     1142.599        0.745        0.579       56.256       34.125        0.368      335.038        5.408      870.870
01/17/2014  11:18:00       41.034       -0.017       34.876       28.752       56.659       36.401      826.681     3210.290     1325.040        0.413        0.268       41.034       36.616        0.796      335.292        5.829      870.845
01/17/2014  11:19:00       42.254      -44.308       11.904       33.314       46.031       33.070     1109.790     2118.823     1093.627        0.411        0.216       61.226       33.929        0.307      335.033        5.399      870.837
01/17/2014  11:20:00       -2.847       37.274       -9.302       16.419       49.348       15.254      269.598     2435.202      232.677        0.221        0.147       37.383       10.930        0.085      335.040        5.410      870.811
01/17/2014  11:21:00       27.761       34.302       15.405       37.271       17.653       23.663     1389.161      311.640      559.932        0.222        0.113       44.128       14.378        0.106      335.294        5.832      870.794
01/17/2014  11:22:00       47.728       26.427       21.352       42.644       37.799       27.189     1818.497     1428.775      739.265        0.371        0.199       54.556       22.660        0.173      335.402        6.011      870.765
01/17/2014  11:23:00      105.600       76.091       34.557       42.225       37.148       31.632     1782.945     1379.950     1000.607        1.115        0.208      130.159       18.215        0.020      335.286        5.818      870.742
01/17/2014  11:24:00       64.671       53.684       66.846       52.058       43.150       32.070     2710.008     1861.961     1028.511        0.857        0.280       84.049       10.879        0.017      335.821        6.710      870.720
01/17/2014  11:25:00        8.797       39.932       33.412       29.922       39.953       43.850      895.300     1596.270     1922.826        0.360        0.221       40.890       30.361        0.551      335.817        6.703      870.703
01/17/2014  11:26:00       32.979       51.098       25.979       39.916       47.788       35.472     1593.255     2283.669     1258.261        0.475        0.257       60.816       20.751        0.116      335.591        6.327      870.699
01/17/2014  11:27:00       11.669       88.281       -2.636       39.385       48.442       30.116     1551.178     2346.596      906.987        0.637        0.240       89.049       28.903        0.105      335.651        6.426      870.683
01/17/2014  11:28:00       13.326       57.704       84.357       41.609       58.655       39.391     1731.334     3440.384     1551.616        0.867        0.336       59.223       31.707        0.287      335.920        6.875      870.654
01/17/2014  11:29:00       73.139       83.414       78.942       73.729       37.988       47.373     5435.911     1443.108     2244.232        1.383        0.456      110.938       52.213        0.222      335.362        5.946      870.634
01/17/2014  11:30:00       22.007       64.426       40.745       41.987       51.729       43.187     1762.936     2675.856     1865.103        0.630        0.315       68.081       34.427        0.256      335.861        6.778      870.608
01/17/2014  11:31:00       65.708       79.995       -1.987       49.042       38.168       41.050     2405.148     1456.765     1685.111        0.813        0.277      103.521       19.178        0.034      335.498        6.173      870.594
01/17/2014  11:32:00        9.985       76.898       -5.168       41.323       40.903       24.864     1707.580     1673.085      618.226        0.502        0.200       77.543       24.149        0.097      335.556        6.269      870.558
01/17/2014  11:33:00      -13.404      101.222       -3.291       17.092       33.766       23.988      292.127     1140.127      575.445        0.622        0.100      102.106       23.164        0.051      335.481        6.144      870.545
01/17/2014  11:34:00       57.980       77.368       62.980       50.946       35.963       39.187     2595.486     1293.362     1535.585        0.937        0.271       96.682       24.948        0.067      335.641        6.409      870.518
01/17/2014  11:35:00       99.564       83.980       21.578       25.209       21.749       39.447      635.472      473.022     1556.066        1.005        0.133      130.252       25.141        0.037      335.199        5.674      870.512
01/17/2014  11:36:00       48.975       80.588       -8.531       27.764       39.448       25.592      770.857     1556.117      654.965        0.597        0.149       94.302       24.898        0.070      335.389        5.992      870.488
01/17/2014  11:37:00        5.036       23.213       20.382       22.417       29.519       24.051      502.518      871.398      578.443        0.147        0.098       23.753        6.159        0.067      335.923        6.880      870.457
01/17/2014  11:38:00       15.301        7.597       18.394       33.499       20.386       23.670     1122.185      415.587      560.266        0.136        0.105       17.083       11.085        0.421      336.173        7.297      870.421
01/17/2014  11:39:00       26.335       50.922       53.195       34.977       43.266       30.125     1223.375     1871.954      907.500        0.506        0.200       57.329       17.410        0.092      336.229        7.392      870.393
01/17/2014  11:40:00        9.271       -2.240       21.633       33.645       51.254       31.834     1131.965     2626.956     1013.375        0.266        0.239        9.538       20.888        4.796      336.152        7.262      870.369
01/17/2014  11:41:00       11.451       40.785       12.920       36.607       39.460       23.563     1340.104     1557.104      555.230        0.271        0.173       42.362       20.529        0.235      336.213        7.363      870.342
01/17/2014  11:42:00       47.991       83.421        9.380       38.814       54.211       47.378     1506.547     2938.854     2244.662        0.802        0.335       96.241       37.069        0.148      335.744        6.582      870.316
01/17/2014  11:43:00       40.175       48.634        3.532       31.348       44.712       35.196      982.693     1999.119     1238.747        0.411        0.211       63.081       31.301        0.246      335.864        6.781      870.307
01/17/2014  11:44:00       73.212       52.375        4.917       42.166       29.956       25.525     1777.964      897.368      651.545        0.573        0.166       90.017       21.595        0.058      335.797        6.670      870.261
01/17/2014  11:45:00       45.396       49.157       37.108       44.410       38.070       31.712     1972.230     1449.320     1005.677        0.514        0.221       66.912       27.751        0.172      336.078        7.139      870.235
01/17/2014  11:46:00       -0.216       27.269       58.463       21.868       32.845       24.745      478.192     1078.804      612.305        0.316        0.108       27.270       16.813        0.380      336.698        8.174      870.206
01/17/2014  11:47:00       20.190       47.587       48.965       63.673       53.066       44.261     4054.200     2815.990     1959.009        0.695        0.441       51.693       32.625        0.398      336.227        7.388      870.177
01/17/2014  11:48:00       77.991       47.079       42.003       35.864       39.933       43.050     1286.193     1594.623     1853.322        0.740        0.237       91.099       31.307        0.118      335.658        6.438      870.164
01/17/2014  11:49:00       51.651       87.741      -13.282       25.729       41.253       27.799      661.979     1701.822      772.767        0.684        0.157      101.815       23.074        0.051      335.687        6.486      870.125
01/17/2014  11:50:00       18.300      106.380      -21.970       39.208       44.180       32.296     1537.264     1951.853     1043.045        0.833        0.227      107.943       25.906        0.058      335.726        6.551      870.105
01/17/2014  11:51:00        2.447       51.035        2.622       15.854       33.729       24.503      251.360     1137.653      600.400        0.230        0.099       51.093       19.978        0.153      336.101        7.177      870.077
01/17/2014  11:52:00       41.490       40.607       13.076       21.674       42.137       24.129      469.763     1775.494      582.214        0.318        0.141       58.055       18.536        0.102      335.962        6.945      870.056
01/17/2014  11:53:00       61.035       54.120        1.492       27.938       28.266       26.407      780.514      798.972      697.307        0.447        0.114       81.573        4.156        0.003      335.876        6.801      870.023
01/17/2014  11:54:00       74.453       68.884        3.378       37.438       41.872       24.506     1401.632     1753.289      600.557        0.703        0.188      101.431       19.257        0.036      335.879        6.808      869.994
01/17/2014  11:55:00       -6.601      106.436      -21.052       23.718       54.006       23.381      562.565     2916.644      546.686        0.792        0.201      106.640        7.057        0.004      335.821        6.709      869.980
01/17/2014  11:56:00       12.798       44.157      -17.114       23.452       46.632       38.563      549.996     2174.510     1487.143        0.331        0.211       45.974       33.013        0.516      335.996        7.003      869.964
01/17/2014  11:57:00      -25.545       44.441      -22.083       19.385       26.299       24.925      375.797      691.637      621.237        0.240        0.084       51.260       18.129        0.125      335.991        6.994      869.953
01/17/2014  11:58:00       49.667       44.055       -0.190       31.293       29.555       25.780      979.248      873.520      664.634        0.346        0.126       66.390       17.622        0.070      336.312        7.530      869.938
01/17/2014  11:59:00        4.024       19.381       18.362       30.047       25.862       29.511      902.801      668.865      870.906        0.159        0.122       19.795       22.409        1.282      336.676        8.137      869.914
01/17/2014  12:00:00      -16.285       35.925        9.905       21.943       45.605       22.757      481.492     2079.839      517.865        0.237        0.154       39.443       22.801        0.334      336.702        8.182      869.892
01/17/2014  12:01:00       -1.802       40.398       -0.879       11.262       37.346       24.137      126.827     1394.753      582.582        0.187        0.105       40.438       21.628        0.286      336.470        7.794      869.864
01/17/2014  12:02:00       23.353        7.888        9.576       16.717       13.430       14.977      279.453      180.375      224.303        0.069        0.034       24.649        7.242        0.086      336.636        8.072      869.850
01/17/2014  12:03:00       11.389        8.165       14.071       20.628       20.330       13.117      425.509      413.297      172.065        0.070        0.051       14.014        9.885        0.498      336.848        8.426      869.829
01/17/2014  12:04:00        6.212       61.321       21.504       33.692       39.296       31.900     1135.125     1544.193     1017.606        0.398        0.185       61.634       24.523        0.158      336.817        8.373      869.811
01/17/2014  12:05:00      -10.081       19.094        4.480       38.164       39.645       34.278     1456.483     1571.702     1174.963        0.234        0.210       21.592       23.394        1.174      336.530        7.894      869.792
01/17/2014  12:06:00       41.851       -4.110       26.191       32.412       67.517       35.689     1050.517     4558.529     1273.675        0.467        0.344       42.053       28.323        0.454      336.703        8.183      869.768
01/17/2014  12:07:00       49.555      -69.198       -7.656       45.199       53.475       28.606     2042.936     2859.525      818.308        0.651        0.286       85.112       12.978        0.023      336.342        7.580      869.745
01/17/2014  12:08:00       32.334       50.442       48.858       52.561       67.485       40.169     2762.660     4554.216     1613.571        0.745        0.447       59.916       37.503        0.392      336.538        7.906      869.723
01/17/2014  12:09:00       66.401       99.995       76.014       42.817       30.439       33.551     1833.276      926.547     1125.698        1.204        0.194      120.034       26.668        0.049      336.285        7.484      869.694
01/17/2014  12:10:00       25.344       91.771       91.950       37.183       35.161       26.062     1382.595     1236.287      679.209        1.041        0.165       95.207       19.033        0.040      336.338        7.573      869.674
01/17/2014  12:11:00       16.059       62.155       79.173       39.049       36.712       28.791     1524.789     1347.740      828.921        0.704        0.185       64.197       23.491        0.134      336.592        7.997      869.640
01/17/2014  12:12:00       89.626      -22.954       34.532       49.244       64.149       40.515     2424.987     4115.080     1641.446        0.897        0.409       92.518       48.024        0.269      336.345        7.584      869.618
01/17/2014  12:13:00       28.415       15.473       23.776       65.063       38.311       34.547     4233.142     1467.748     1193.499        0.425        0.345       32.355       30.201        0.871      336.633        8.066      869.594
01/17/2014  12:14:00       23.008       32.981      -14.586       49.921       28.203       27.682     2492.056      795.394      766.299        0.294        0.203       40.213       12.047        0.090      336.741        8.247      869.572
01/17/2014  12:15:00       -6.844       21.002       60.247       20.475       34.140       24.217      419.211     1165.516      586.445        0.314        0.109       22.089       23.245        1.107      337.207        9.027      869.539
01/17/2014  12:16:00        7.862       51.194       64.874       25.684       29.618       32.071      659.689      877.233     1028.533        0.473        0.128       51.794       26.204        0.256      336.791        8.330      869.505
01/17/2014  12:17:00       36.738       69.139       47.173       46.991       37.403       52.952     2208.125     1398.955     2803.919        0.738        0.321       78.293       33.787        0.186      336.736        8.237      869.481
01/17/2014  12:18:00       34.140       43.320       27.922       55.915       37.999       30.705     3126.432     1443.911      942.819        0.467        0.276       55.156       20.693        0.141      336.930        8.563      869.455
01/17/2014  12:19:00      106.295       84.530        9.926       30.289       38.784       32.832      917.426     1504.193     1077.945        1.102        0.175      135.809       20.394        0.023      336.543        7.914      869.434
01/17/2014  12:20:00       55.216       78.432        0.327       38.872       38.492       28.475     1511.039     1481.635      810.800        0.650        0.190       95.919       12.909        0.018      336.876        8.472      869.416
01/17/2014  12:21:00       42.134       45.477       33.251       27.911       25.189       30.058      779.020      634.509      903.458        0.363        0.116       61.995       15.724        0.064      336.949        8.595      869.400
01/17/2014  12:22:00       29.814       37.483       21.618       26.250       23.633       29.190      689.054      558.538      852.059        0.243        0.105       47.894       18.453        0.148      336.847        8.424      869.385
01/17/2014  12:23:00       23.624       78.537       84.202       38.692       42.514       23.766     1497.106     1807.466      564.837        0.884        0.193       82.013       16.096        0.039      336.985        8.653      869.360
01/17/2014  12:24:00       40.109       61.528       73.060       51.074       37.105       33.743     2608.522     1376.802     1138.575        0.793        0.256       73.446       34.085        0.215      336.917        8.540      869.346
01/17/2014  12:25:00       77.156       57.439       42.107       29.434       38.734       31.592      866.340     1500.340      998.046        0.719        0.168       96.189       25.905        0.073      336.515        7.868      869.336
01/17/2014  12:26:00       82.307       60.342        5.158       28.475       33.111       34.129      810.838     1096.307     1164.776        0.676        0.154      102.057       17.993        0.031      336.493        7.832      869.317
01/17/2014  12:27:00       55.554       66.175       10.131       32.418       31.371       36.159     1050.940      984.121     1307.496        0.545        0.167       86.402       21.018        0.059      336.735        8.237      869.303
01/17/2014  12:28:00       39.704       58.582       17.031       28.735       48.583       35.115      825.709     2360.277     1233.034        0.486        0.221       70.770       34.760        0.241      336.700        8.177      869.280
01/17/2014  12:29:00       44.006       77.263       -6.025       45.450       44.491       29.184     2065.669     1979.409      851.695        0.642        0.245       88.916       18.589        0.044      336.828        8.391      869.277
01/17/2014  12:30:00       50.877       43.967        1.509       38.935       31.167       30.946     1515.943      971.357      957.656        0.398        0.172       67.243       22.082        0.108      336.957        8.606      869.266
01/17/2014  12:31:00       44.771       79.205       -3.006       26.804       37.280       39.470      718.442     1389.812     1557.899        0.598        0.183       90.983       29.220        0.103      336.819        8.377      869.265
01/17/2014  12:32:00       31.429       90.037      -11.294       30.597       35.430       29.151      936.193     1255.263      849.769        0.613        0.152       95.365       19.098        0.040      336.812        8.365      869.258
01/17/2014  12:33:00       72.650       85.687      -11.549       48.306       58.852       32.356     2333.480     3463.520     1046.897        0.980        0.342      112.340       28.314        0.064      336.703        8.182      869.234
01/17/2014  12:34:00       29.922       53.250      -17.950       38.965       24.592       23.075     1518.253      604.777      532.436        0.335        0.133       61.082       12.383        0.041      336.968        8.625      869.220
01/17/2014  12:35:00       -8.148       33.526        3.565       37.143       43.704       23.947     1379.617     1910.068      573.460        0.253        0.193       34.502       22.347        0.420      337.487        9.494      869.201
01/17/2014  12:36:00       27.756       51.499       61.430       50.053       48.037       46.720     2505.297     2307.511     2182.779        0.709        0.350       58.502       31.615        0.292      337.520        9.549      869.176
01/17/2014  12:37:00      107.500       34.754       41.321       62.859       46.900       36.544     3951.212     2199.638     1335.477        1.098        0.374      112.978       25.563        0.051      336.969        8.626      869.163
01/17/2014  12:38:00       46.625       54.330       34.069       50.858       41.980       42.665     2586.502     1762.286     1820.265        0.623        0.308       71.594       25.219        0.124      337.294        9.171      869.142
01/17/2014  12:39:00       54.368       45.398       31.621       46.966       36.706       37.087     2205.818     1347.315     1375.474        0.547        0.246       70.830       15.489        0.048      337.014        8.704      869.137
01/17/2014  12:40:00       -5.354        2.676       -3.770       43.672       24.140       24.848     1907.245      582.747      617.400        0.158        0.155        5.985       22.267       13.840      337.047        8.758      869.112
01/17/2014  12:41:00       57.810       50.322       17.992       36.822       33.112       22.174     1355.883     1096.407      491.666        0.457        0.147       76.644       11.081        0.021      337.189        8.996      869.088
01/17/2014  12:42:00        6.593       33.463       57.923       30.575       51.971       27.812      934.820     2700.974      773.486        0.446        0.220       34.106       27.078        0.630      337.502        9.520      869.071
01/17/2014  12:43:00        1.226       25.182       63.024       29.498       32.627       24.381      870.116     1064.502      594.442        0.357        0.126       25.212       14.362        0.325      337.645        9.759      869.041
01/17/2014  12:44:00        2.144       36.356       46.783       15.742       28.653       26.825      247.797      820.987      719.577        0.265        0.089       36.420       10.233        0.079      337.586        9.659      869.022
01/17/2014  12:45:00       52.951       41.585       22.000       57.971       38.956       34.452     3360.620     1517.537     1186.921        0.554        0.303       67.329       12.338        0.034      337.238        9.077      869.001
01/17/2014  12:46:00       69.819       39.726       43.020       53.780       44.815       36.568     2892.284     2008.398     1337.252        0.727        0.312       80.329       24.118        0.090      337.347        9.260      868.970
01/17/2014  12:47:00       -6.281       29.949       26.411       31.252       39.030       29.811      976.713     1523.323      888.675        0.251        0.169       30.601       12.984        0.180      337.596        9.676      868.950
01/17/2014  12:48:00       20.744      -16.891       14.712       29.247       27.405       25.848      855.408      751.008      668.108        0.160        0.114       26.751       23.439        0.768      337.197        9.008      868.929
01/17/2014  12:49:00       17.087       72.135        2.624       56.664       38.324       32.547     3210.798     1468.700     1059.309        0.562        0.287       74.132       28.937        0.152      337.241        9.083      868.901
01/17/2014  12:50:00       77.749       62.529        9.610       60.507       39.861       29.590     3661.107     1588.937      875.539        0.809        0.306       99.774       23.783        0.057      337.223        9.052      868.884
01/17/2014  12:51:00      117.846       89.852       13.123       57.893       53.958       40.350     3351.642     2911.413     1628.094        1.501        0.395      148.192       22.364        0.023      337.306        9.191      868.857
01/17/2014  12:52:00      126.005       94.554       45.437       53.588       49.600       45.276     2871.715     2460.126     2049.903        1.713        0.369      157.536       29.101        0.034      337.258        9.110      868.844
01/17/2014  12:53:00       60.544       83.298       83.571       29.660       36.334       24.122      879.722     1320.184      581.866        1.018        0.139      102.977        9.056        0.008      337.404        9.355      868.840
01/17/2014  12:54:00       26.025       37.145       59.178       29.181       28.032       25.086      851.520      785.793      629.315        0.391        0.113       45.354       14.288        0.099      337.375        9.306      868.830
01/17/2014  12:55:00       48.680       -7.166       -1.968       23.850       30.869       22.468      568.807      952.871      504.807        0.223        0.101       49.204       18.968        0.149      337.222        9.049      868.820
01/17/2014  12:56:00       45.017       -9.932       20.465       27.337       39.235       24.956      747.309     1539.406      622.808        0.273        0.145       46.100       23.231        0.254      337.410        9.365      868.815
01/17/2014  12:57:00       51.824       37.656       64.492       64.370       46.542       40.406     4143.545     2166.162     1632.670        0.810        0.397       64.060       33.155        0.268      337.484        9.489      868.798
01/17/2014  12:58:00       85.405       81.736       78.564       70.007       63.635       52.809     4900.995     4049.455     2788.832        1.594        0.587      118.215       51.708        0.191      337.359        9.279      868.775
01/17/2014  12:59:00      118.117       66.038       31.563       60.627       43.122       36.825     3675.644     1859.491     1356.067        1.310        0.345      135.325       31.918        0.056      337.407        9.361      868.775
01/17/2014  13:00:00       71.996       67.297        9.041       57.529       30.985       37.914     3309.604      960.068     1437.490        0.775        0.285       98.551       23.647        0.058      337.334        9.238      868.778
01/17/2014  13:01:00       49.586      101.534      -16.131       31.016       38.385       31.172      961.991     1473.437      971.666        0.822        0.170      112.995       26.119        0.053      337.358        9.278      868.759
01/17/2014  13:02:00       56.400       56.743       -3.474       41.594       39.482       28.964     1730.029     1558.813      838.917        0.527        0.206       80.004       18.787        0.055      337.413        9.370      868.752
01/17/2014  13:03:00       63.701       44.319       24.858       30.387       27.062       32.457      923.351      732.349     1053.431        0.467        0.135       77.602       14.080        0.033      337.427        9.392      868.751
01/17/2014  13:04:00       20.572        3.664       49.175       48.330       63.883       43.294     2335.800     4081.097     1874.367        0.557        0.415       20.895       44.911        4.620      337.640        9.750      868.724
01/17/2014  13:05:00       52.434       72.958       81.288       94.285       49.353       41.574     8889.713     2435.759     1728.430        1.386        0.653       89.845       44.383        0.244      337.783        9.989      868.722
01/17/2014  13:06:00      103.297       65.198       52.283       58.288       73.951       39.834     3397.519     5468.744     1586.760        1.405        0.523      122.151       37.930        0.096      337.290        9.164      868.723
01/17/2014  13:07:00       43.750       45.608       67.676       57.008       49.898       40.086     3249.881     2489.846     1606.911        0.796        0.367       63.200       38.401        0.369      337.645        9.758      868.700
01/17/2014  13:08:00      126.155       74.601       17.647       52.453       51.436       40.977     2751.331     2645.632     1679.126        1.443        0.354      146.562       21.024        0.021      337.599        9.682      868.697
01/17/2014  13:09:00      147.166       89.804       32.265       53.813       48.105       35.468     2895.803     2314.119     1257.952        1.861        0.323      172.402       27.171        0.025      337.349        9.262      868.701
01/17/2014  13:10:00      117.528       77.054       31.246       32.325       34.883       34.172     1044.936     1216.815     1167.756        1.208        0.171      140.535       22.521        0.026      337.396        9.343      868.690
01/17/2014  13:11:00       60.445       40.798       37.875       45.573       37.799       33.112     2076.901     1428.759     1096.417        0.568        0.230       72.926       23.637        0.105      337.769        9.967      868.676
01/17/2014  13:12:00        7.600      -24.451       27.156       76.955       60.282       54.197     5922.111     3633.883     2937.303        0.694        0.625       25.605       45.116        3.105      337.984       10.328      868.664
01/17/2014  13:13:00       31.383        3.612       42.245       49.977       78.817       47.752     2497.741     6212.086     2280.219        0.688        0.550       31.590       54.871        3.017      338.006       10.364      868.653
01/17/2014  13:14:00       78.991     -107.323      -20.709       54.324       76.791       33.794     2951.044     5896.931     1142.027        1.409        0.500      133.258       39.859        0.089      337.483        9.486      868.636
01/17/2014  13:15:00       -5.409      -16.697       19.437       27.977       47.233       30.902      782.705     2230.948      954.930        0.233        0.198       17.551       32.401        3.408      337.677        9.813      868.628
01/17/2014  13:16:00       18.171      -94.118      -15.812       34.337       42.943       28.448     1179.020     1844.099      809.280        0.663        0.192       95.856       13.989        0.021      337.607        9.695      868.614
01/17/2014  13:17:00       52.983     -149.961      -15.225       64.946       37.091       29.636     4217.950     1375.755      878.318        1.600        0.324      159.045       24.381        0.023      337.476        9.475      868.589
01/17/2014  13:18:00       52.348      -86.596        1.582       36.624       66.875       39.142     1341.346     4472.294     1532.065        0.879        0.367      101.189       43.193        0.182      337.705        9.859      868.569
01/17/2014  13:19:00       35.510       27.671       62.698       45.921       45.130       38.984     2108.781     2036.678     1519.744        0.581        0.283       45.018       37.180        0.682      337.771        9.969      868.564
01/17/2014  13:20:00       33.051      -17.972       19.413       41.624       44.476       27.756     1732.575     1978.109      770.381        0.314        0.224       37.622       18.906        0.253      337.933       10.242      868.542
01/17/2014  13:21:00       23.231        8.031       72.389       60.190       77.446       54.336     3622.802     5997.924     2952.348        0.921        0.629       24.580       58.469        5.658      337.978       10.319      868.528
01/17/2014  13:22:00       97.277       60.312       57.621       63.722       55.232       59.994     4060.544     3050.573     3599.337        1.356        0.536      114.457       48.786        0.182      337.596        9.677      868.527
01/17/2014  13:23:00       37.892        6.479       -2.220       38.771       23.316       22.418     1503.159      543.643      502.577        0.202        0.127       38.442       13.516        0.124      337.606        9.692      868.528
01/17/2014  13:24:00       50.445       23.439       23.800       41.571       27.162       43.246     1728.184      737.747     1870.228        0.400        0.217       55.624       31.989        0.331      337.594        9.673      868.520
01/17/2014  13:25:00      -34.986       -4.498       -9.496       15.118       14.447       16.045      228.562      208.701      257.442        0.101        0.035       35.274        6.805        0.037      337.717        9.879      868.483
01/17/2014  13:26:00      -24.614       26.084       23.494       57.603       19.057       24.198     3318.085      363.186      585.542        0.305        0.213       35.864       31.711        0.782      337.972       10.307      868.465
01/17/2014  13:27:00       86.427       49.729       15.216       44.877       36.132       33.025     2013.927     1305.487     1090.672        0.729        0.221       99.713       17.360        0.030      337.764        9.958      868.454
01/17/2014  13:28:00       74.786       -8.771       17.067       51.839       75.934       46.801     2687.250     5765.910     2190.290        0.830        0.532       75.299       47.251        0.394      337.801       10.021      868.430
01/17/2014  13:29:00       56.371       81.236       86.266       55.331       99.604       49.974     3061.504     9920.946     2497.398        1.635        0.774       98.878       59.771        0.365      337.746        9.929      868.397
01/17/2014  13:30:00       80.601       47.682       28.541       47.160       53.903       43.218     2224.067     2905.537     1867.821        0.829        0.350       93.649       29.932        0.102      337.737        9.914      868.386
01/17/2014  13:31:00       44.786      104.531        2.059       30.565       42.262       27.135      934.199     1786.046      736.303        0.820        0.173      113.721       22.131        0.038      337.794       10.009      868.382
01/17/2014  13:32:00       45.464       72.655       -8.665       28.541       43.036       31.654      814.594     1852.054     1001.972        0.554        0.183       85.707       25.802        0.091      337.618        9.715      868.363
01/17/2014  13:33:00       72.023       34.096       15.036       25.643       23.001       21.635      657.566      529.045      468.089        0.411        0.083       79.686       14.326        0.032      337.597        9.680      868.341
01/17/2014  13:34:00       51.467       35.073        3.259       44.598       30.247       27.527     1988.961      914.902      757.734        0.377        0.183       62.281       23.486        0.142      337.745        9.927      868.329
01/17/2014  13:35:00       20.711       27.361       -1.488       34.547       34.766       20.716     1193.519     1208.704      429.150        0.201        0.142       34.315       10.486        0.093      337.936       10.247      868.313
01/17/2014  13:36:00       24.648       43.890       56.975       27.892       34.661       34.821      777.948     1201.417     1212.529        0.449        0.160       50.337       24.111        0.229      338.171       10.641      868.300
01/17/2014  13:37:00       52.532        9.383       22.587       24.608       26.605       36.835      605.543      707.810     1356.838        0.301        0.134       53.364       18.862        0.125      337.898       10.183      868.282
01/17/2014  13:38:00       27.657       20.747       16.270       19.252       25.064       24.398      370.622      628.200      595.275        0.153        0.080       34.574        9.456        0.075      337.999       10.353      868.274
01/17/2014  13:39:00       -6.742       15.386       -2.695       29.703       21.693       12.576      882.293      470.590      158.164        0.090        0.076       16.798       13.119        0.610      337.964       10.293      868.271
01/17/2014  13:40:00      -13.239        7.171       20.574       35.264       20.786       19.641     1243.557      432.041      385.779        0.136        0.103       15.057       15.304        1.033      338.375       10.985      868.253
01/17/2014  13:41:00        2.872      -33.686        7.785       20.267       29.689       21.018      410.743      881.408      441.764        0.147        0.087       33.809       18.722        0.307      338.412       11.046      868.250
01/17/2014  13:42:00       18.876       19.413       41.229       32.329       32.524       27.461     1045.137     1057.829      754.084        0.264        0.143       27.077       30.194        1.243      338.412       11.047      868.238
01/17/2014  13:43:00       86.021       30.009       50.474       45.513       35.548       35.458     2071.388     1263.689     1257.304        0.772        0.230       91.105       30.340        0.111      337.979       10.320      868.233
01/17/2014  13:44:00       74.434       87.384       67.012       65.584       36.674       53.537     4301.218     1344.998     2866.188        1.309        0.426      114.788       41.897        0.133      337.890       10.171      868.214
01/17/2014  13:45:00      100.497       76.685       46.871       38.003       36.301       41.706     1444.241     1317.727     1739.393        1.134        0.225      126.412       31.151        0.061      337.863       10.124      868.217
01/17/2014  13:46:00       60.479       74.281       53.538       32.835       23.446       26.915     1078.141      549.719      724.395        0.720        0.118       95.788       19.840        0.043      337.863       10.124      868.212
01/17/2014  13:47:00       36.062       49.998       64.340       28.717       27.227       19.966      824.651      741.304      398.634        0.495        0.098       61.646       14.595        0.056      338.122       10.559      868.201
01/17/2014  13:48:00       33.712       26.015       38.315       30.406       26.970       27.078      924.548      727.355      733.212        0.283        0.119       42.583       17.486        0.169      338.065       10.463      868.200
01/17/2014  13:49:00       10.020       -0.545       15.827       17.133       21.061       19.331      293.543      443.569      373.699        0.073        0.056       10.035       16.585        2.732      338.333       10.915      868.200
01/17/2014  13:50:00      -13.244        2.441      -19.825       18.013       25.302       15.616      324.452      640.190      243.848        0.089        0.060       13.467       14.216        1.114      338.142       10.592      868.184
01/17/2014  13:51:00      -35.236        6.394        9.106       28.373       14.519       18.777      805.027      210.806      352.569        0.137        0.068       35.812       15.525        0.188      338.414       11.050      868.168
01/17/2014  13:52:00      -35.313       10.537       15.360       32.142       21.615       19.981     1033.097      467.213      399.244        0.175        0.095       36.851       24.602        0.446      338.335       10.916      868.161
01/17/2014  13:53:00        0.069       21.980        9.976       11.509       11.417       20.602      132.465      130.357      424.433        0.063        0.034       21.980       11.374        0.268      338.481       11.163      868.147
01/17/2014  13:54:00       13.099       18.060        9.162       24.403       20.850       26.906      595.528      434.717      723.931        0.117        0.088       22.311       14.319        0.412      338.350       10.943      868.135
01/17/2014  13:55:00       65.168       63.847        3.660       34.993       23.136       32.969     1224.511      535.263     1086.962        0.559        0.142       91.232       18.163        0.040      338.240       10.757      868.126
01/17/2014  13:56:00       15.380       18.656        6.390       32.804       22.978       18.163     1076.075      527.994      329.897        0.128        0.097       24.179       17.681        0.535      338.568       11.308      868.125
01/17/2014  13:57:00       -4.070       46.232       61.564       32.171       39.368       31.505     1034.983     1549.814      992.549        0.476        0.179       46.411       26.545        0.327      338.616       11.390      868.120
01/17/2014  13:58:00       84.017      108.131       78.518       55.268       29.906       31.734     3054.541      894.389     1007.036        1.494        0.248      136.935       29.461        0.046      338.217       10.717      868.116
01/17/2014  13:59:00       56.208       31.459       24.139       47.001       60.358       37.235     2209.073     3643.144     1386.426        0.598        0.362       64.413       35.064        0.296      338.303       10.863      868.121
01/17/2014  14:00:00       63.537     -104.953        1.805       39.778       64.653       36.998     1582.250     4180.067     1368.885        1.109        0.357      122.687       36.932        0.091      338.358       10.955      868.108
01/17/2014  14:01:00       98.886     -116.583      -10.840       54.163       45.606       33.924     2933.590     2079.948     1150.849        1.482        0.308      152.872       33.479        0.048      338.203       10.694      868.103
01/17/2014  14:02:00      114.497     -117.787      -25.169       30.466       38.248       19.423      928.155     1462.887      377.244        1.519        0.138      164.266        6.869        0.002      338.101       10.525      868.094
01/17/2014  14:03:00       68.552      -47.857       -7.381       48.465       47.109       34.119     2348.825     2219.301     1164.103        0.639        0.287       83.605       29.504        0.125      338.265       10.799      868.081
01/17/2014  14:04:00       23.388      -67.225       -3.249       48.409       48.325       45.554     2343.463     2335.260     2075.196        0.591        0.338       71.177       39.677        0.311      338.384       10.999      868.070
01/17/2014  14:05:00       42.434      -60.525        2.934       51.325       64.254       38.061     2634.241     4128.524     1448.622        0.684        0.411       73.918       35.080        0.225      338.420       11.060      868.061
01/17/2014  14:06:00       58.202      -19.798       18.732       36.652       72.451       44.848     1343.397     5249.104     2011.349        0.637        0.430       61.477       52.767        0.737      338.276       10.819      868.049
01/17/2014  14:07:00       16.747        3.152       39.893       17.283       43.919       23.706      298.703     1928.857      561.978        0.234        0.139       17.041       29.898        3.078      338.515       11.219      868.041
01/17/2014  14:08:00       40.153       30.089       26.753       44.314       43.725       32.644     1963.736     1911.888     1065.651        0.409        0.247       50.175       29.372        0.343      338.499       11.192      868.037
01/17/2014  14:09:00       48.770      -10.363       24.807       25.670       37.293       33.455      658.937     1390.740     1119.259        0.313        0.158       49.859       25.592        0.263      338.454       11.118      868.033
01/17/2014  14:10:00       27.394       -0.471      -11.637       33.425       49.208       27.035     1117.260     2421.396      730.872        0.258        0.213       27.398       23.911        0.762      338.498       11.190      868.023
01/17/2014  14:11:00       -4.833       45.987       63.614       20.473       29.890       36.246      419.157      893.406     1313.765        0.441        0.131       46.240       13.116        0.080      338.691       11.514      868.022
01/17/2014  14:12:00       33.531       14.990       24.382       41.525       34.447       27.621     1724.308     1186.591      762.926        0.281        0.184       36.729       25.642        0.487      338.611       11.381      868.029
01/17/2014  14:13:00        4.162        0.836        9.259       19.442       23.752       11.955      378.004      564.143      142.910        0.059        0.054        4.245        7.731        3.317      338.897       11.860      868.021
01/17/2014  14:14:00      -12.106       24.900       12.617       27.463       25.290       24.534      754.192      639.576      601.916        0.146        0.100       27.687       12.879        0.216      339.013       12.056      868.013
01/17/2014  14:15:00       24.398       44.094        8.142       23.173       48.238       18.505      536.986     2326.915      342.417        0.291        0.160       50.393       20.080        0.159      338.770       11.648      868.011
01/17/2014  14:16:00       34.657       72.027       -8.559       26.640       33.420       24.447      709.675     1116.863      597.667        0.444        0.121       79.931       19.290        0.058      338.474       11.149      868.019
01/17/2014  14:17:00       33.229       41.401       -4.889       17.213       24.076       12.500      296.281      579.666      156.248        0.194        0.052       53.087        5.644        0.011      338.362       10.962      868.021
01/17/2014  14:18:00       46.144       73.363      -25.591       23.829       22.176       19.752      567.835      491.790      390.153        0.481        0.072       86.668       12.923        0.022      338.367       10.971      868.023
01/17/2014  14:19:00        2.657       48.813      -10.913       27.521       26.856       20.531      757.387      721.249      421.515        0.220        0.095       48.886        7.177        0.022      338.505       11.204      868.029
01/17/2014  14:20:00       -3.547       38.861      -11.997       37.575       23.033       15.860     1411.844      530.532      251.544        0.193        0.110       39.023       15.497        0.158      338.557       11.290      868.032
01/17/2014  14:21:00       37.766       45.247       -7.902       13.780       11.989       24.124      189.883      143.730      581.963        0.223        0.046       58.937        8.264        0.020      338.595       11.352      868.026
01/17/2014  14:22:00       18.511       14.715       27.960       34.908       18.402       20.720     1218.541      338.650      429.302        0.166        0.099       23.647       18.470        0.610      338.994       12.025      868.031
01/17/2014  14:23:00       50.295      -14.922       25.169       31.240       27.388       22.418      975.929      750.097      502.586        0.281        0.111       52.462       16.657        0.101      338.640       11.428      868.046
01/17/2014  14:24:00       40.924       69.502       37.013       51.676       34.729       32.239     2670.426     1206.071     1039.381        0.639        0.246       80.656       25.922        0.103      338.573       11.316      868.044
01/17/2014  14:25:00       67.368       21.533       27.110       25.091       21.604       19.976      629.549      466.728      399.046        0.362        0.075       70.726       15.914        0.051      338.534       11.252      868.046
01/17/2014  14:26:00       25.553       41.401       45.245       20.988       22.923       21.675      440.493      525.454      469.791        0.292        0.072       48.652       18.889        0.151      338.652       11.449      868.051
01/17/2014  14:27:00       27.712       12.419        4.472       18.364       11.253       15.458      337.228      126.636      238.959        0.082        0.035       30.367       10.835        0.127      338.538       11.258      868.054
01/17/2014  14:28:00      -21.185       -0.393       -2.422       11.696        8.099       12.738      136.790       65.587      162.268        0.041        0.018       21.189        5.256        0.062      338.761       11.633      868.040
01/17/2014  14:29:00       71.426       51.811       10.298       48.054       49.136       33.170     2309.159     2414.367     1100.259        0.686        0.291       88.238       19.763        0.050      338.769       11.646      868.041
01/17/2014  14:30:00      116.383       97.341        2.283       51.764       28.565       29.562     2679.536      815.943      873.884        1.370        0.218      151.724       20.111        0.018      338.531       11.245      868.045
01/17/2014  14:31:00       88.707       75.560       -6.400       36.038       29.411       29.553     1298.724      865.013      873.407        0.833        0.152      116.525       14.489        0.015      338.608       11.374      868.048
01/17/2014  14:32:00       85.754       49.814        1.449       25.613       17.764       20.889      656.037      315.562      436.363        0.562        0.070       99.173        7.578        0.006      338.469       11.143      868.048
01/17/2014  14:33:00      -10.768       53.209       -8.698       32.884       42.324       16.115     1081.329     1791.293      259.683        0.308        0.157       54.288       14.899        0.075      338.590       11.345      868.039
01/17/2014  14:34:00      -93.117       64.044      -18.864       27.957       32.890       31.118      781.598     1081.774      968.308        0.798        0.142      113.015       22.866        0.041      338.633       11.418      868.038
01/17/2014  14:35:00      -10.969       45.898       -5.178       67.445       19.112       20.675     4548.840      365.283      427.473        0.380        0.267       47.191       17.187        0.133      338.662       11.466      868.037
01/17/2014  14:36:00       26.928      -15.497      -11.683       22.386       46.205       25.437      501.149     2134.908      647.044        0.219        0.164       31.069       14.645        0.222      338.666       11.471      868.035
01/17/2014  14:37:00       35.307       20.844       34.248       29.670       32.557       20.098      880.321     1059.947      403.917        0.260        0.117       41.001       16.853        0.169      338.748       11.610      868.029
01/17/2014  14:38:00       25.369       -6.251       29.927       34.633       43.090       29.882     1199.463     1856.790      892.914        0.276        0.197       26.128       30.721        1.382      338.875       11.824      868.025
01/17/2014  14:39:00       67.302       13.333        8.988       30.861       23.773       21.886      952.382      565.175      478.995        0.339        0.100       68.610       16.295        0.056      338.691       11.515      868.025
01/17/2014  14:40:00       34.900       43.099       11.250       25.905       27.046       23.885      671.050      731.490      570.474        0.259        0.099       55.457        9.788        0.031      338.772       11.652      868.025
01/17/2014  14:41:00       23.764       23.827       11.705       48.648       46.907       29.134     2366.647     2200.243      848.790        0.334        0.271       33.652       27.752        0.680      339.025       12.076      868.024
01/17/2014  14:42:00       75.172       39.131       -7.363       37.376       48.826       26.535     1396.977     2383.975      704.104        0.586        0.224       84.747       16.415        0.038      338.892       11.852      868.030
01/17/2014  14:43:00       62.878       11.030        6.057       31.325       23.342       23.547      981.253      544.841      554.469        0.310        0.104       63.838       13.959        0.048      338.943       11.937      868.026
01/17/2014  14:44:00       66.856       35.527        9.020       35.830       27.584       26.309     1283.799      760.884      692.176        0.427        0.137       75.709       23.453        0.096      338.943       11.938      868.017
01/17/2014  14:45:00      118.351       78.665       18.906       27.348       25.506       26.417      747.937      650.544      697.843        1.132        0.105      142.110       16.392        0.013      338.665       11.472      868.026
01/17/2014  14:46:00      135.526       81.526        8.981       43.572       38.712       34.007     1898.487     1498.581     1156.508        1.482        0.228      158.157       22.006        0.019      338.722       11.566      868.032
01/17/2014  14:47:00       26.552       67.332      -21.006       55.879       37.943       17.312     3122.452     1439.634      299.690        0.527        0.243       72.378       11.818        0.027      338.720       11.563      868.040
01/17/2014  14:48:00       56.010       43.989        6.682       30.247       24.306       25.437      914.889      590.773      647.063        0.363        0.108       71.219        9.463        0.018      338.856       11.792      868.033
01/17/2014  14:49:00       -3.435      107.733       -4.537       28.718       74.061       27.258      824.751     5485.069      742.999        0.934        0.353      107.788       33.757        0.098      338.849       11.780      868.027
01/17/2014  14:50:00       25.655       81.554       -2.627       26.978       44.875       24.600      727.822     2013.776      605.163        0.533        0.167       85.494       25.038        0.086      338.743       11.601      868.026
01/17/2014  14:51:00       42.441       51.990       52.280       44.153       35.458       30.105     1949.511     1257.247      906.309        0.567        0.206       67.114       21.925        0.107      338.874       11.822      868.029
01/17/2014  14:52:00       43.221       57.362       56.781       31.796       32.827       39.150     1010.993     1077.606     1532.761        0.600        0.181       71.822       26.234        0.133      338.851       11.783      868.025
01/17/2014  14:53:00       38.037      -26.019       -5.817       42.225       46.165       26.250     1782.983     2131.235      689.052        0.338        0.230       46.085       29.559        0.411      338.724       11.570      868.010
01/17/2014  14:54:00        6.592       -8.881        7.752       11.472       10.424       11.282      131.606      108.669      127.289        0.027        0.018       11.060        6.698        0.367      339.117       12.231      867.992
01/17/2014  14:55:00      102.335       80.240       28.385       57.233       49.249       28.710     3275.668     2425.437      824.278        1.212        0.326      130.042       14.499        0.012      338.843       11.770      867.988
01/17/2014  14:56:00       87.308       63.452        8.760       41.149       43.204       40.601     1693.229     1866.546     1648.415        0.847        0.260      107.929       29.709        0.076      338.802       11.701      867.998
01/17/2014  14:57:00       47.753       77.417       -5.746       38.660       32.889       24.282     1494.613     1081.672      589.626        0.574        0.158       90.961       15.971        0.031      338.818       11.727      868.002
01/17/2014  14:58:00       11.792       48.486       -4.343       28.615       22.840       20.660      818.793      521.663      426.840        0.214        0.088       49.899       15.967        0.102      338.883       11.837      867.999
01/17/2014  14:59:00       10.072       74.309       -6.968       29.377       41.252       20.699      863.033     1701.737      428.441        0.433        0.150       74.988       22.729        0.092      338.989       12.015      868.005
01/17/2014  15:00:00       11.196       43.626        2.138       43.508       48.503       32.185     1892.958     2352.537     1035.900        0.366        0.264       45.040       22.320        0.246      339.075       12.159      868.012
01/17/2014  15:01:00       73.678       45.291       29.025       41.002       51.724       35.666     1681.166     2675.343     1272.058        0.697        0.281       86.485       18.603        0.046      339.044       12.108      868.029
01/17/2014  15:02:00       34.403       55.570       71.185       49.672       42.957       39.207     2467.287     1845.271     1537.205        0.759        0.292       65.357       35.867        0.301      339.053       12.124      868.045
01/17/2014  15:03:00       67.513       39.204       30.149       51.701       37.533       49.727     2672.987     1408.762     2472.790        0.678        0.328       78.071       29.811        0.146      339.004       12.041      868.069
01/17/2014  15:04:00       62.311       60.266        7.121       47.941       28.164       25.908     2298.371      793.200      671.203        0.566        0.188       86.687       20.828        0.058      338.883       11.837      868.077
01/17/2014  15:05:00       39.069       39.659        7.430       22.850       18.954       21.014      522.142      359.246      441.577        0.224        0.066       55.671       12.573        0.051      338.950       11.950      868.091
01/17/2014  15:06:00       34.065       20.699       14.665       27.379       19.540       20.224      749.605      381.824      408.999        0.167        0.077       39.861       13.026        0.107      339.091       12.188      868.110
01/17/2014  15:07:00       20.112       58.806       63.619       32.215       39.281       37.064     1037.776     1543.032     1373.706        0.593        0.198       62.150       32.257        0.269      339.092       12.190      868.124
01/17/2014  15:08:00       71.543       69.860       61.456       46.944       25.699       33.445     2203.747      660.427     1118.536        0.888        0.199       99.994       30.184        0.091      338.909       11.881      868.138
01/17/2014  15:09:00       41.016       43.538       30.990       28.573       25.080       29.366      816.411      629.026      862.373        0.342        0.115       59.815       17.923        0.090      338.921       11.900      868.151
01/17/2014  15:10:00       37.708       51.736       69.593       39.745       42.100       30.090     1579.659     1772.376      905.433        0.660        0.213       64.020       30.883        0.233      339.081       12.170      868.159
01/17/2014  15:11:00       78.991       50.765       29.361       23.267       24.916       30.878      541.370      620.794      953.468        0.590        0.106       93.897       16.789        0.032      338.862       11.801      868.163
01/17/2014  15:12:00       47.418       32.885       27.347       32.013       28.906       34.721     1024.840      835.563     1205.565        0.357        0.153       57.705       25.425        0.194      338.931       11.918      868.157
01/17/2014  15:13:00       64.870       41.650       43.580       28.704       24.502       23.723      823.939      600.350      562.790        0.491        0.099       77.090       17.187        0.050      338.941       11.935      868.154
01/17/2014  15:14:00       48.273       44.672       49.646       39.168       43.515       36.189     1534.148     1893.582     1309.611        0.576        0.237       65.771       39.380        0.358      339.002       12.036      868.157
01/17/2014  15:15:00       74.934       75.072       34.715       51.212       36.751       36.262     2622.719     1350.620     1314.917        0.887        0.264      106.071       26.472        0.062      339.026       12.076      868.152
01/17/2014  15:16:00        8.152       59.882       62.470       25.215       33.567       35.243      635.816     1126.770     1242.087        0.528        0.150       60.434       29.481        0.238      339.170       12.320      868.149
01/17/2014  15:17:00       24.579       13.183       31.770       29.281       26.795       18.616      857.348      717.955      346.556        0.185        0.096       27.891       21.530        0.596      339.133       12.258      868.139
01/17/2014  15:18:00       27.139      -12.493       17.678       22.897       32.402       15.953      524.273     1049.913      254.496        0.152        0.091       29.876       19.323        0.418      339.234       12.427      868.125
01/17/2014  15:19:00      100.034       72.648       24.617       63.211       41.391       43.597     3995.676     1713.227     1900.681        1.175        0.380      123.630       30.330        0.060      339.040       12.102      868.116
01/17/2014  15:20:00      102.179       52.771       13.694       40.695       33.842       25.582     1656.078     1145.288      654.418        0.843        0.173      115.001       24.470        0.045      338.948       11.947      868.116
01/17/2014  15:21:00      112.211       74.294       11.021       40.776       29.509       28.770     1662.647      870.793      827.697        1.080        0.168      134.577       19.971        0.022      338.936       11.927      868.119
01/17/2014  15:22:00       74.452       54.222       14.969       27.491       24.838       19.108      755.759      616.926      365.113        0.522        0.087       92.104       12.258        0.018      338.995       12.024      868.122
01/17/2014  15:23:00       30.038       58.496       -1.690       28.215       24.970       21.708      796.061      623.524      471.216        0.311        0.095       65.758       17.567        0.071      339.048       12.114      868.129
01/17/2014  15:24:00       48.721       47.895       -3.824       20.684       20.826       15.575      427.841      433.702      242.588        0.289        0.055       68.320       13.504        0.039      339.006       12.045      868.132
01/17/2014  15:25:00       36.592       20.507        1.070       24.021       32.498       15.467      577.005     1056.152      239.235        0.182        0.094       41.947       12.470        0.088      339.120       12.235      868.136
01/17/2014  15:26:00       24.670       80.185      -16.102       33.793       31.082       11.349     1141.955      966.085      128.792        0.477        0.112       83.894       12.576        0.022      339.055       12.127      868.138
01/17/2014  15:27:00       66.340       26.800        1.394       30.015       32.440       18.201      900.899     1052.344      331.291        0.370        0.114       71.549       15.194        0.045      339.081       12.170      868.144
01/17/2014  15:28:00       71.939       30.895       13.414       46.615       40.656       36.894     2172.933     1652.929     1361.151        0.575        0.259       78.293       33.392        0.182      339.081       12.171      868.135
01/17/2014  15:29:00       92.943       40.880       -0.884       42.156       31.514       26.311     1777.113      993.154      692.246        0.689        0.173      101.536       19.503        0.037      339.089       12.183      868.128
01/17/2014  15:30:00       69.178       48.695       31.623       33.066       27.987       26.253     1093.386      783.279      689.213        0.536        0.128       84.597       17.295        0.042      339.128       12.248      868.129
01/17/2014  15:31:00       44.420       48.420       -5.255       21.617       19.259       17.487      467.305      370.894      305.811        0.274        0.057       65.709       13.098        0.040      339.089       12.183      868.138
01/17/2014  15:32:00       26.108       35.386       41.058       35.107       29.836       23.241     1232.536      890.169      540.147        0.314        0.133       43.975       18.963        0.186      339.199       12.368      868.143
01/17/2014  15:33:00       50.573       30.969       51.998       41.290       33.239       25.481     1704.851     1104.852      649.284        0.484        0.173       59.302       22.929        0.150      339.215       12.394      868.148
01/17/2014  15:34:00       41.602       48.195       37.840       34.703       35.906       39.951     1204.310     1289.237     1596.094        0.479        0.204       63.667       32.352        0.258      339.220       12.403      868.149
01/17/2014  15:35:00       49.163       62.032       70.183       52.031       44.904       36.730     2707.206     2016.361     1349.119        0.863        0.304       79.151       34.628        0.191      339.265       12.480      868.144
01/17/2014  15:36:00       90.681       69.681       22.316       32.547       25.194       31.920     1059.281      634.714     1018.918        0.814        0.136      114.361       20.458        0.032      339.164       12.310      868.153
01/17/2014  15:37:00       51.675        9.842       20.649       33.893       44.404       28.181     1148.742     1971.681      794.178        0.355        0.196       52.603       29.127        0.307      339.258       12.468      868.154
01/17/2014  15:38:00       50.602       71.684       70.255       59.737       56.713       52.644     3568.501     3216.416     2771.399        1.109        0.478       87.745       54.809        0.390      339.203       12.375      868.149
01/17/2014  15:39:00       61.009       89.496       86.050       37.332       51.724       33.109     1393.708     2675.360     1096.214        1.215        0.258      108.313       34.347        0.101      339.267       12.485      868.147
01/17/2014  15:40:00        9.356       66.556       80.684       20.778       31.777       16.382      431.717     1009.785      268.356        0.637        0.085       67.211       18.231        0.074      339.330       12.589      868.146
01/17/2014  15:41:00       20.975       73.831       69.939       28.821       22.897       17.601      830.634      524.269      309.805        0.622        0.083       76.753       16.535        0.046      339.270       12.490      868.142
01/17/2014  15:42:00       21.157       47.462       68.612       45.401       47.158       39.791     2061.232     2223.910     1583.294        0.664        0.293       51.964       39.078        0.566      339.346       12.617      868.134
01/17/2014  15:43:00        6.073       59.214       70.348       29.165       33.443       24.485      850.595     1118.403      599.491        0.553        0.128       59.525       23.553        0.157      339.296       12.532      868.125
01/17/2014  15:44:00       16.839       65.547       79.922       39.753       37.766       29.377     1580.303     1426.303      863.026        0.742        0.193       67.676       33.695        0.248      339.296       12.531      868.115
01/17/2014  15:45:00       20.790       77.979       81.703       32.458       37.462       21.471     1053.508     1403.387      460.995        0.805        0.146       80.703       23.370        0.084      339.285       12.513      868.106
01/17/2014  15:46:00       -5.292       69.613       82.788       13.972       29.216       19.474      195.229      853.594      379.250        0.658        0.071       69.814       16.364        0.055      339.345       12.613      868.105
01/17/2014  15:47:00       84.057       81.219        9.130       49.055       33.610       40.038     2406.353     1129.653     1603.068        0.944        0.257      116.885       29.446        0.063      339.232       12.424      868.107
01/17/2014  15:48:00       83.715       73.057        3.955       48.934       41.809       38.147     2394.510     1748.029     1455.184        0.898        0.280      111.111       28.374        0.065      339.157       12.297      868.106
01/17/2014  15:49:00      109.348       75.546        8.051       39.271       26.172       27.182     1542.237      684.966      738.852        1.035        0.148      132.906       15.941        0.014      339.159       12.301      868.100
01/17/2014  15:50:00       80.006       28.295       18.000       38.591       29.225       18.879     1489.240      854.084      356.428        0.511        0.135       84.862       21.073        0.062      339.173       12.324      868.091
01/17/2014  15:51:00       48.678       49.184       -8.656       22.545       22.040       18.057      508.276      485.755      326.037        0.309        0.066       69.200       13.323        0.037      339.248       12.451      868.094
01/17/2014  15:52:00       20.238       17.269       20.401       23.088       18.495       20.687      533.040      342.058      427.942        0.121        0.065       26.604       18.044        0.460      339.304       12.546      868.087
01/17/2014  15:53:00       32.008       12.273       30.886       28.269       17.657       17.327      799.129      311.779      300.216        0.177        0.071       34.281       14.445        0.178      339.280       12.505      868.086
01/17/2014  15:54:00       21.376        1.988        7.803       16.323       16.168       12.672      266.446      261.408      160.578        0.060        0.034       21.468        8.375        0.152      339.377       12.667      868.089
01/17/2014  15:55:00       17.449       10.677       -0.987       11.301        9.870       11.258      127.717       97.426      126.749        0.039        0.018       20.457        6.943        0.115      339.288       12.518      868.101
01/17/2014  15:56:00       21.461       11.337        5.224       22.398       26.861       14.273      501.691      721.510      203.732        0.102        0.071       24.272       14.644        0.364      339.314       12.563      868.100
01/17/2014  15:57:00       35.942       20.966       32.024       38.524       37.713       33.691     1484.090     1422.255     1135.111        0.340        0.202       41.610       31.827        0.585      339.233       12.427      868.104
01/17/2014  15:58:00       70.106       67.989       54.195       32.264       34.728       31.280     1040.974     1206.003      978.440        0.785        0.161       97.660       23.268        0.057      339.204       12.377      868.107
01/17/2014  15:59:00       65.088       44.336       54.737       47.696       33.604       25.325     2274.940     1129.249      641.345        0.662        0.202       78.754       18.450        0.055      339.253       12.460      868.109
01/17/2014  16:00:00       48.606       52.505       48.891       37.489       34.323       31.290     1405.453     1178.069      979.092        0.554        0.178       71.550       28.548        0.159      339.324       12.579      868.104
01/17/2014  16:01:00       63.661       84.634       64.282       25.532       16.688       15.715      651.904      278.492      246.966        0.826        0.059      105.904       10.847        0.010      339.298       12.534      868.102
01/17/2014  16:01:00       98.000       78.000       44.000          NaN          NaN          NaN          NaN          NaN          NaN        0.881          NaN      125.252        0.000        0.000      339.280       12.510      868.100
01/17/2014  16:58:00       15.170       21.395        6.562       30.898       21.162       14.155      954.678      447.849      200.355        0.117        0.080       26.227       22.032        0.706      338.863       11.802      868.207
01/17/2014  16:59:00       -8.901        0.935       -2.958       10.833       11.118        6.133      117.353      123.613       37.609        0.018        0.014        8.950        4.689        0.274      338.559       11.292      868.231
01/17/2014  17:00:00      -15.812      -21.528       -2.378        9.299       12.276        5.732       86.477      150.692       32.857        0.049        0.014       26.711        2.759        0.011      338.388       11.004      868.238
01/17/2014  17:01:00      -34.168       -8.955       -3.479       14.309        7.459        5.831      204.738       55.641       34.002        0.078        0.015       35.321        3.627        0.011      338.362       10.964      868.249
01/17/2014  17:02:00      -69.733       -9.193      -12.869       19.373       19.675        9.047      375.301      387.122       81.843        0.298        0.042       70.336        7.062        0.010      337.958       10.284      868.256
01/17/2014  17:03:00      -94.199       12.677      -21.744       11.559        9.393        9.314      133.615       88.228       86.746        0.491        0.015       95.048        4.381        0.002      337.903       10.192      868.261
01/17/2014  17:04:00      -79.299        4.749      -15.825       14.071       11.737       10.540      197.981      137.755      111.095        0.350        0.022       79.441        7.485        0.009      337.921       10.221      868.268
01/17/2014  17:05:00      -84.739        7.306      -19.046       19.600       11.211       10.885      384.143      125.693      118.483        0.411        0.031       85.053        7.664        0.008      337.762        9.955      868.281
01/17/2014  17:06:00      -99.503        4.548      -18.619       22.811       17.485       13.589      520.334      305.708      184.662        0.564        0.051       99.607       12.946        0.017      337.617        9.712      868.285
01/17/2014  17:07:00      -92.563       -5.724      -16.111       30.295       28.499       16.289      917.817      812.173      265.334        0.543        0.100       92.740       14.124        0.023      337.434        9.404      868.283
01/17/2014  17:08:00      -96.218      -14.727      -16.612       15.455       22.307       14.707      238.853      497.585      216.282        0.535        0.048       97.338        9.435        0.009      337.401        9.351      868.300
01/17/2014  17:09:00      -91.944       -5.244      -14.589       17.605       18.473       12.377      309.937      341.237      153.192        0.475        0.040       92.093        8.420        0.008      337.284        9.154      868.304
01/17/2014  17:10:00      -82.859       -9.839      -14.377       19.858       19.357       13.135      394.348      374.711      172.515        0.406        0.047       83.441        9.713        0.014      337.219        9.046      868.305
01/17/2014  17:11:00      -93.300      -21.740      -14.052       29.720       18.971       15.283      883.293      359.895      233.579        0.543        0.074       95.799       12.662        0.017      337.247        9.093      868.310
01/17/2014  17:12:00      -83.569      -31.357       -4.269       39.663       24.641       18.965     1573.192      607.161      359.684        0.526        0.127       89.259       20.634        0.053      337.219        9.048      868.317
01/17/2014  17:13:00      -42.395      -29.004        4.906       52.995       25.138       23.124     2808.473      631.916      534.714        0.332        0.199       51.367       27.796        0.293      337.134        8.903      868.330
01/17/2014  17:14:00     -110.980      -48.273      -11.437       22.847       13.462       12.894      521.975      181.213      166.249        0.782        0.043      121.024        8.635        0.005      337.179        8.979      868.336
01/17/2014  17:15:00     -103.015      -24.672       -9.913       17.867       22.133       13.224      319.218      489.877      174.887        0.615        0.049      105.928        9.708        0.008      337.270        9.130      868.342
01/17/2014  17:16:00      -91.022      -29.369       -0.090       24.252       21.169       12.306      588.155      448.130      151.446        0.517        0.059       95.643        9.837        0.011      337.305        9.189      868.335
01/17/2014  17:17:00     -110.950      -46.174       -6.282       26.090       18.703       14.279      680.709      349.801      203.881        0.786        0.062      120.175       13.683        0.013      337.309        9.197      868.337
01/17/2014  17:18:00     -120.568      -29.789      -11.137       26.514       15.585       11.687      702.994      242.877      136.579        0.831        0.054      124.193       11.686        0.009      337.395        9.339      868.329
01/17/2014  17:19:00     -103.784      -25.337      -11.825       31.750       17.999       15.255     1008.083      323.963      232.724        0.656        0.078      106.832       13.804        0.017      337.395        9.340      868.320
01/17/2014  17:20:00      -91.384      -24.321       -7.851       21.504       23.899       14.982      462.433      571.144      224.463        0.513        0.063       94.565       11.793        0.016      337.235        9.072      868.311
01/17/2014  17:21:00      -74.551      -28.890        2.331       31.391       24.270       16.236      985.383      589.030      263.618        0.412        0.092       79.953       17.845        0.050      337.152        8.933      868.311
01/17/2014  17:22:00      -88.851      -21.157        3.455       32.142       20.905       14.765     1033.117      437.002      217.991        0.502        0.084       91.335       14.405        0.025      337.088        8.826      868.320
01/17/2014  17:23:00      -78.576      -20.302        0.120       32.147       20.084       16.461     1033.427      403.381      270.958        0.415        0.085       81.156       14.361        0.031      337.164        8.953      868.323
01/17/2014  17:24:00     -105.548      -18.840       -2.603       33.755       20.747       18.196     1139.433      430.456      331.104        0.670        0.095      107.216       19.472        0.033      337.093        8.836      868.321
01/17/2014  17:25:00     -116.595      -20.082       -7.396       28.010       20.286       16.489      784.552      411.524      271.903        0.776        0.073      118.312       16.297        0.019      337.097        8.840      868.318
01/17/2014  17:26:00     -108.269      -24.171       -3.227       23.085       20.508       16.227      532.936      420.598      263.315        0.677        0.061      110.934       12.690        0.013      337.033        8.733      868.319
01/17/2014  17:27:00     -137.169       -8.773      -12.585       21.526       20.963       14.972      463.384      439.448      224.172        1.009        0.056      137.449       14.286        0.011      336.912        8.530      868.313
01/17/2014  17:28:00     -148.076       -3.105      -12.960       19.873       17.141       10.441      394.930      293.823      109.017        1.145        0.040      148.108        7.939        0.003      336.962        8.614      868.318
01/17/2014  17:29:00     -127.450      -19.959       -8.378       31.593       21.246       16.957      998.147      451.375      287.527        0.922        0.087      129.003       16.414        0.016      336.948        8.590      868.321
01/17/2014  17:30:00     -142.296      -29.047      -13.981       23.227       22.571       15.261      539.484      509.431      232.902        1.128        0.064      145.231       12.048        0.007      336.752        8.264      868.328
01/17/2014  17:31:00      -88.378      -14.935        3.703       37.726       32.465       21.548     1423.214     1053.998      464.315        0.549        0.147       89.631       17.765        0.039      336.603        8.017      868.333
01/17/2014  17:32:00     -103.197      -45.060       -3.928       35.341       32.468       16.852     1248.994     1054.201      283.984        0.764        0.129      112.605       11.647        0.011      336.519        7.877      868.338
01/17/2014  17:33:00     -131.325      -32.347       -6.374       34.995       32.541       16.907     1224.626     1058.921      285.849        1.045        0.128      135.251       12.888        0.009      336.462        7.779      868.336
01/17/2014  17:34:00     -125.606      -42.009      -13.043       28.093       38.765       18.656      789.240     1502.723      348.045        1.018        0.132      132.445       12.375        0.009      336.418        7.706      868.333
01/17/2014  17:35:00     -117.163      -36.263       -3.025       46.374       32.823       21.572     2150.543     1077.372      465.367        0.937        0.185      122.647       19.880        0.026      336.327        7.554      868.334
01/17/2014  17:36:00     -126.291      -55.333       -7.206       45.143       39.047       25.928     2037.920     1524.686      672.272        1.165        0.212      137.881       25.223        0.033      336.286        7.485      868.338
01/17/2014  17:37:00     -144.232      -12.547      -18.733       38.077       29.518       25.925     1449.838      871.294      672.085        1.215        0.150      144.777       20.760        0.021      336.153        7.265      868.335
01/17/2014  17:38:00     -113.699      -40.772      -18.745       27.862       31.726       20.260      776.286     1006.549      410.473        0.857        0.110      120.788       12.958        0.012      336.163        7.280      868.334
01/17/2014  17:39:00      -85.390      -30.027      -17.571       36.788       20.853       23.730     1353.378      434.848      563.113        0.543        0.118       90.516       19.139        0.045      336.232        7.396      868.335
01/17/2014  17:40:00      -84.754      -35.692      -12.841       27.699       24.720       16.423      767.256      611.068      269.730        0.513        0.082       91.963        8.739        0.009      336.184        7.314      868.339
01/17/2014  17:41:00     -112.405      -34.190      -16.835       36.543       19.391       17.121     1335.392      376.026      293.119        0.805        0.100      117.490       10.075        0.007      336.170        7.291      868.337
01/17/2014  17:42:00      -40.079      -12.266       -4.919       19.246       16.412       17.133      370.403      269.348      293.544        0.136        0.047       41.913       13.232        0.100      336.165        7.286      868.341
01/17/2014  17:43:00      -70.168       -5.984      -14.536       27.094       28.740       21.940      734.094      825.997      481.348        0.361        0.102       70.423       19.418        0.076      336.237        7.404      868.343
01/17/2014  17:44:00      -46.634       16.391       -1.451       27.654       18.125       15.894      764.756      328.513      252.630        0.190        0.067       49.430       15.344        0.096      336.193        7.329      868.347
01/17/2014  17:45:00      -42.573       -4.644       -5.832       19.565       12.974       14.013      382.796      168.324      196.364        0.131        0.037       42.825       13.464        0.099      336.241        7.408      868.350
01/17/2014  17:46:00      -62.950      -21.956       -9.563       22.830       21.119       15.192      521.194      446.033      230.793        0.287        0.060       66.669       11.632        0.030      336.274        7.465      868.348
01/17/2014  17:47:00     -134.700       -9.654      -12.734       24.133       18.149       15.591      582.387      329.386      243.084        0.978        0.058      135.045       11.851        0.008      336.155        7.266      868.341
01/17/2014  17:48:00     -103.001      -23.132       -9.669       35.680       23.380       18.605     1273.029      546.637      346.161        0.670        0.108      105.566       19.682        0.035      336.134        7.231      868.336
01/17/2014  17:49:00      -72.419      -39.928       -8.333       20.659       18.909       14.618      426.808      357.568      213.685        0.395        0.050       82.697        9.760        0.014      336.188        7.321      868.335
01/17/2014  17:50:00      -82.657      -39.350      -20.058       16.625       11.808       10.992      276.405      139.423      120.830        0.466        0.027       91.545        4.719        0.003      336.116        7.201      868.338
01/17/2014  17:51:00      -97.166      -30.864       -8.997       11.934       14.970       13.724      142.430      224.094      188.347        0.551        0.028      101.950        5.329        0.003      336.113        7.197      868.344
01/17/2014  17:52:00      -94.927      -36.810      -15.884       16.808       16.234       10.639      282.508      263.536      113.180        0.564        0.033      101.815        5.821        0.003      336.052        7.096      868.354
01/17/2014  17:53:00      -64.830      -26.150      -13.405       17.633       11.917       12.160      310.925      142.025      147.874        0.283        0.030       69.905        6.696        0.009      336.033        7.063      868.364
01/17/2014  17:54:00      -83.834       -6.406      -15.263       16.615       14.202       10.594      276.051      201.703      112.226        0.395        0.029       84.078        8.018        0.009      336.026        7.051      868.379
01/17/2014  17:55:00      -94.894      -16.610      -12.269       18.553       21.452       14.710      344.219      460.196      216.389        0.523        0.051       96.336       12.399        0.017      335.982        6.978      868.393
01/17/2014  17:56:00     -104.794      -21.836      -16.833       22.844       18.320       13.425      521.868      335.628      180.223        0.639        0.052      107.045        9.260        0.007      335.949        6.922      868.404
01/17/2014  17:57:00     -121.426      -17.496      -12.448       33.566       23.359       22.858     1126.666      545.638      522.501        0.870        0.110      122.680       22.376        0.033      335.944        6.915      868.409
01/17/2014  17:58:00     -136.274       -7.743      -16.173       31.108       20.815       14.811      967.693      433.269      219.368        1.026        0.081      136.493       17.633        0.017      335.980        6.973      868.412
01/17/2014  17:59:00     -136.135       -4.229      -17.402       22.431       18.823       18.049      503.133      354.299      325.753        1.002        0.059      136.200       13.827        0.010      335.908        6.855      868.412
01/17/2014  18:00:00     -133.972      -22.824      -13.715       23.068       19.417       17.837      532.117      377.004      318.152        0.994        0.061      135.902       15.499        0.013      335.774        6.630      868.402
01/17/2014  18:01:00     -146.107      -13.790      -20.193       20.469       16.788       11.707      418.978      281.842      137.059        1.139        0.042      146.756        8.124        0.003      335.785        6.651      868.406
01/17/2014  18:02:00     -133.516       -8.206      -19.525       20.260       23.015       15.721      410.477      529.676      247.137        0.973        0.059      133.768       11.658        0.008      335.772        6.629      868.397
01/17/2014  18:03:00     -120.221      -31.431      -13.448       22.852       22.595       14.725      522.218      510.513      216.813        0.844        0.062      124.261        9.560        0.006      335.738        6.573      868.383
01/17/2014  18:04:00      -89.514      -49.521        0.819       29.503       23.056       19.579      870.449      531.584      383.336        0.613        0.089      102.299       19.620        0.037      335.690        6.491      868.383
01/17/2014  18:05:00     -105.611      -45.738      -14.155       13.000       18.805       12.240      169.011      353.612      149.817        0.706        0.034      115.090        5.078        0.002      335.673        6.464      868.378
01/17/2014  18:06:00      -96.205      -33.541       -3.933       19.563       19.345       11.775      382.708      374.216      138.662        0.565        0.045      101.885        9.701        0.009      335.647        6.421      868.370
01/17/2014  18:07:00     -119.111      -22.670      -10.241       28.088       21.095       16.715      788.908      444.997      279.394        0.816        0.076      121.249       15.523        0.016      335.580        6.309      868.368
01/17/2014  18:08:00     -125.773      -23.227      -15.920       29.575       20.755       18.533      874.652      430.771      343.479        0.913        0.082      127.900       15.485        0.015      335.577        6.304      868.368
01/17/2014  18:09:00     -125.486      -29.106      -10.224       21.666       22.993       15.391      469.406      528.673      236.880        0.897        0.062      128.817        8.683        0.005      335.551        6.260      868.362
01/17/2014  18:10:00     -121.112      -45.291      -10.053       20.972       21.389       17.194      439.828      457.483      295.648        0.901        0.060      129.304       14.465        0.013      335.464        6.114      868.361
01/17/2014  18:11:00     -118.023      -21.598       -3.218       30.267       27.408       22.438      916.114      751.174      503.472        0.829        0.109      119.983       20.904        0.030      335.417        6.036      868.374
01/17/2014  18:12:00     -132.646      -28.322      -11.173       32.789       30.032       17.334     1075.093      901.894      300.464        1.040        0.114      135.636       19.218        0.020      335.416        6.035      868.385
01/17/2014  18:13:00     -135.711      -32.400      -21.695       23.881       14.522       14.846      570.298      210.881      220.412        1.047        0.050      139.525       12.254        0.008      335.359        5.940      868.400
01/17/2014  18:14:00     -107.768      -37.577      -14.357       16.229       22.892       13.325      263.366      524.028      177.543        0.710        0.048      114.131        7.451        0.004      335.285        5.816      868.418
01/17/2014  18:15:00     -102.997      -25.814       -6.928       18.546       22.578       14.815      343.972      509.765      219.473        0.620        0.054      106.182        7.083        0.004      335.325        5.882      868.428
01/17/2014  18:16:00     -113.496      -17.320      -20.849       20.556       20.627       12.544      422.546      425.463      157.350        0.731        0.050      114.809        6.941        0.004      335.304        5.847      868.440
01/17/2014  18:17:00     -101.357      -40.679      -12.638       18.134       16.612       15.054      328.859      275.965      226.621        0.646        0.042      109.215        6.174        0.003      335.261        5.776      868.449
01/17/2014  18:18:00     -102.687      -31.608       -9.270       36.098       25.530       16.265     1303.049      651.788      264.548        0.692        0.111      107.441       13.627        0.016      335.261        5.776      868.460
01/17/2014  18:19:00     -117.043      -47.468      -13.812       21.370       22.297       17.421      456.663      497.160      303.505        0.870        0.063      126.302       12.431        0.010      335.307        5.853      868.467
01/17/2014  18:20:00     -148.911      -58.728      -19.332       18.778       17.287       12.322      352.623      298.827      151.835        1.340        0.040      160.073       12.229        0.006      335.318        5.871      868.479
01/17/2014  18:21:00     -119.984      -55.105      -14.738       23.699       15.895       10.657      561.638      252.663      113.576        0.929        0.046      132.033        4.857        0.001      335.284        5.815      868.495
01/17/2014  18:22:00      -88.446      -54.472       -5.225       25.284       25.806       19.153      639.267      665.967      366.828        0.624        0.084      103.875       12.736        0.015      335.240        5.741      868.501
01/17/2014  18:23:00      -96.815      -36.461      -10.329       21.314       26.675       19.261      454.271      711.571      371.002        0.617        0.077      103.453       12.110        0.014      335.237        5.736      868.505
01/17/2014  18:24:00     -127.909      -47.630      -14.201       19.295       26.654       19.405      372.278      710.460      376.568        1.014        0.073      136.489        7.815        0.003      335.159        5.607      868.521
01/17/2014  18:25:00      -93.570      -53.579      -20.827       19.702       23.794       13.932      388.180      566.170      194.099        0.660        0.057      107.824        2.308        0.000      335.185        5.651      868.529
01/17/2014  18:26:00     -113.044      -62.179      -13.186       26.225       21.944       19.210      687.727      481.524      369.024        0.918        0.077      129.016        7.127        0.003      335.151        5.594      868.528
01/17/2014  18:27:00     -113.828      -43.719      -18.638       20.024       18.185       15.114      400.978      330.697      228.422        0.809        0.048      121.935        6.100        0.003      335.075        5.468      868.536
01/17/2014  18:28:00     -113.456      -42.430      -20.938       22.952       18.435       13.597      526.778      339.857      184.891        0.808        0.053      121.130        6.421        0.003      335.119        5.541      868.547
01/17/2014  18:29:00     -119.564      -40.636      -19.357       19.722       22.091       17.236      388.976      487.993      297.086        0.875        0.059      126.281       11.791        0.009      335.103        5.516      868.555
01/17/2014  18:30:00      -70.040      -63.367      -13.332       28.259       24.430       23.278      798.568      596.830      541.881        0.552        0.097       94.451       19.897        0.044      335.055        5.435      868.566
01/17/2014  18:31:00      -98.786      -56.028       -6.342       29.971       29.446       20.906      898.265      867.056      437.044        0.757        0.110      113.569       17.497        0.024      335.014        5.368      868.573
01/17/2014  18:32:00      -83.935      -56.860       -1.645       36.608       29.024       24.191     1340.147      842.386      585.207        0.652        0.138      101.382       21.485        0.045      334.996        5.337      868.588
01/17/2014  18:33:00     -101.839      -58.100      -20.257       26.929       19.939       14.948      725.198      397.568      223.438        0.775        0.067      117.246        9.511        0.007      335.011        5.363      868.596
01/17/2014  18:34:00      -81.247      -36.425       -2.926       20.539       31.890       17.819      421.846     1016.964      317.526        0.485        0.088       89.038       14.605        0.027      334.938        5.240      868.600
01/17/2014  18:35:00      -64.832      -31.157      -21.487       37.306       25.341       15.225     1391.758      642.174      231.806        0.395        0.113       71.930       11.222        0.024      334.982        5.315      868.611
01/17/2014  18:36:00     -103.609      -28.212      -15.400       34.114       27.974       16.130     1163.781      782.567      260.177        0.699        0.110      107.381       14.477        0.018      334.920        5.210      868.619
01/17/2014  18:37:00     -110.455      -43.752      -14.842       22.801       25.411       18.694      519.895      645.743      349.483        0.792        0.076      118.804        7.332        0.004      334.996        5.337      868.624
01/17/2014  18:38:00      -97.150      -53.521      -12.964       27.681       32.417       16.148      766.227     1050.834      260.750        0.727        0.104      110.917        8.490        0.006      334.989        5.327      868.627
01/17/2014  18:39:00      -95.373      -54.674      -16.357       19.992       21.088       15.397      399.684      444.721      237.078        0.672        0.054      109.933       10.581        0.009      334.952        5.265      868.631
01/17/2014  18:40:00     -113.753      -36.630      -24.426       16.074       16.395       10.718      258.363      268.810      114.871        0.776        0.032      119.505        9.086        0.006      334.940        5.245      868.631
01/17/2014  18:41:00     -123.526      -46.844      -21.621       15.857       11.129        9.698      251.442      123.857       94.051        0.919        0.023      132.110        5.653        0.002      334.973        5.299      868.631
01/17/2014  18:42:00     -115.555      -41.818      -17.681       12.880       19.002       12.480      165.900      361.070      155.759        0.805        0.034      122.889        7.766        0.004      334.969        5.293      868.635
01/17/2014  18:43:00     -108.148      -31.119      -12.772       16.209       19.816       14.158      262.721      392.675      200.449        0.684        0.043      112.536        8.857        0.006      334.926        5.220      868.646
01/17/2014  18:44:00     -138.749      -53.700      -20.637       12.077       13.262        8.971      145.848      175.870       80.480        1.148        0.020      148.778        5.839        0.002      334.893        5.167      868.642
01/17/2014  18:45:00     -134.049      -39.438      -22.001       18.725       16.456       17.528      350.630      270.800      307.225        1.047        0.046      139.730       12.951        0.009      334.849        5.093      868.644
01/17/2014  18:46:00     -132.275      -42.792      -20.779       16.757       16.038       15.676      280.784      257.233      245.743        1.027        0.039      139.025        8.083        0.003      334.842        5.081      868.638
01/17/2014  18:47:00     -142.814      -27.214      -25.834       15.892       14.105       10.362      252.541      198.955      107.371        1.118        0.028      145.384        6.615        0.002      334.834        5.068      868.652
01/17/2014  18:48:00     -106.239      -41.466      -15.597       26.983       19.087       13.186      728.087      364.310      173.867        0.726        0.063      114.045       15.713        0.019      334.818        5.040      868.653
01/17/2014  18:49:00      -96.706      -55.680      -19.911       23.421       24.546       15.769      548.563      602.524      248.661        0.712        0.070      111.590       10.323        0.009      334.846        5.086      868.650
01/17/2014  18:50:00      -98.544      -54.264      -22.671       15.970       16.044       10.408      255.052      257.397      108.321        0.689        0.031      112.496        6.525        0.003      334.839        5.076      868.661
01/17/2014  18:51:00      -96.815      -53.088      -24.729       27.280       19.237       14.967      744.195      370.071      224.017        0.707        0.067      110.415        6.327        0.003      334.803        5.016      868.650
01/17/2014  18:52:00     -107.903      -48.770      -26.095       22.372       18.208       14.255      500.501      331.528      203.198        0.787        0.052      118.413       14.772        0.016      334.728        4.891      868.648
01/17/2014  18:53:00      -96.686      -37.772      -19.840       12.371       17.499       10.348      153.034      306.202      107.087        0.587        0.028      103.802        6.265        0.004      334.683        4.817      868.647
01/17/2014  18:54:00      -88.402      -38.075      -17.807       16.033       18.180       14.659      257.065      330.527      214.878        0.519        0.040       96.253       10.221        0.011      334.704        4.853      868.659
01/17/2014  18:55:00      -94.796      -37.693      -18.174       23.072       21.323       11.786      532.322      454.674      138.906        0.593        0.056      102.015        7.988        0.006      334.686        4.823      868.667
01/17/2014  18:56:00      -80.977      -33.264      -12.553       18.778       23.789       15.200      352.608      565.902      231.039        0.449        0.057       87.543        8.732        0.010      334.701        4.848      868.681
01/17/2014  18:57:00     -104.907      -38.731      -18.305       21.493       22.140       12.636      461.966      490.166      159.660        0.698        0.056      111.828        8.714        0.006      334.626        4.722      868.685
01/17/2014  18:58:00     -121.786      -19.881      -17.090       21.472       19.951       15.998      461.041      398.061      255.929        0.832        0.056      123.398        8.709        0.005      334.584        4.654      868.699
01/17/2014  18:59:00     -115.658      -30.011      -17.203       26.575       20.530       19.926      706.250      421.500      397.059        0.805        0.076      119.488       11.684        0.010      334.595        4.672      868.703
01/17/2014  19:00:00      -94.904      -24.195      -17.410       33.037       18.769       15.564     1091.442      352.272      242.223        0.579        0.084       97.940       17.295        0.031      334.551        4.597      868.707
01/17/2014  19:01:00     -105.107      -24.177      -12.862       23.927       20.197       16.606      572.499      407.913      275.759        0.653        0.063      107.852       11.027        0.010      334.478        4.477      868.706
01/17/2014  19:02:00     -104.674       -7.240      -18.647       27.745       18.375       14.658      769.802      337.657      214.860        0.634        0.066      104.924       10.658        0.010      334.544        4.585      868.708
01/17/2014  19:03:00      -93.710      -16.357      -14.718       19.466       25.747       14.382      378.943      662.904      206.838        0.526        0.062       95.127        7.116        0.006      334.536        4.573      868.701
01/17/2014  19:04:00     -113.268      -15.641      -16.252       33.419       24.308       14.706     1116.827      590.893      216.271        0.763        0.096      114.342       17.756        0.024      334.512        4.533      868.706
01/17/2014  19:05:00     -104.798      -14.541      -11.342       20.219       17.374       13.074      408.825      301.865      170.939        0.610        0.044      105.802        9.433        0.008      334.493        4.502      868.713
01/17/2014  19:06:00      -95.249      -22.767      -17.413       20.060       24.641       13.668      402.409      607.174      186.801        0.554        0.060       97.932       11.175        0.013      334.490        4.497      868.726
01/17/2014  19:07:00     -100.841      -15.724      -17.523       18.624       18.081       16.161      346.839      326.926      261.162        0.583        0.047      102.059       13.032        0.016      334.508        4.526      868.723
01/17/2014  19:08:00      -98.565      -23.033      -16.483       24.422       22.627       13.669      596.429      512.003      186.843        0.591        0.065      101.221       12.843        0.016      334.457        4.443      868.730
01/17/2014  19:09:00      -83.617      -34.106       -9.693       15.751       16.185       15.153      248.086      261.945      229.602        0.449        0.037       90.305       10.606        0.014      334.462        4.452      868.738
01/17/2014  19:10:00      -87.470      -33.484      -15.996       26.393       23.615       14.837      696.565      557.664      220.130        0.525        0.074       93.660       11.256        0.014      334.409        4.364      868.754
01/17/2014  19:11:00     -109.348      -31.545      -16.129       27.154       27.555       16.216      737.363      759.300      262.959        0.749        0.088      113.807       14.342        0.016      334.364        4.290      868.762
01/17/2014  19:12:00     -103.794      -24.851      -15.294       30.357       25.416       16.732      921.549      645.983      279.957        0.674        0.092      106.727       13.474        0.016      334.330        4.232      868.766
01/17/2014  19:13:00     -104.983      -41.431       -9.989       33.185       27.566       21.323     1101.246      759.910      454.660        0.758        0.116      112.863       22.856        0.041      334.346        4.258      868.766
01/17/2014  19:14:00     -128.505      -38.526      -21.458       27.401       30.249       19.503      750.807      915.020      380.378        1.025        0.102      134.155       19.824        0.022      334.312        4.200      868.780
01/17/2014  19:15:00     -135.214      -41.855      -19.751       22.621       31.417       20.607      511.725      987.014      424.668        1.117        0.096      141.544       11.246        0.006      334.309        4.197      868.782
01/17/2014  19:16:00     -110.241      -46.629      -26.187       19.288       18.670       13.564      372.026      348.554      183.975        0.796        0.045      119.697        7.033        0.003      334.397        4.343      868.793
01/17/2014  19:17:00     -100.705      -50.629      -28.379       23.537       22.922       19.282      553.976      525.402      371.782        0.748        0.073      112.716       14.020        0.015      334.399        4.347      868.792
01/17/2014  19:18:00     -100.069      -64.098      -24.827       25.206       31.901       23.947      635.366     1017.659      573.470        0.848        0.111      118.838       15.570        0.017      334.352        4.268      868.800
01/17/2014  19:19:00      -92.807      -40.209      -15.869       41.313       34.085       29.205     1706.768     1161.761      852.952        0.710        0.186      101.143       25.233        0.062      334.324        4.222      868.795
01/17/2014  19:20:00      -84.774      -69.889       -1.773       39.865       40.374       32.959     1589.226     1630.042     1086.299        0.819        0.215      109.869       27.770        0.064      334.307        4.194      868.801
01/17/2014  19:21:00      -81.440      -46.723       -4.638       36.187       24.890       26.715     1309.519      619.502      713.675        0.574        0.132       93.891       22.565        0.058      334.303        4.187      868.790
01/17/2014  19:22:00      -65.699      -59.405       -5.218       59.426       34.722       30.109     3531.451     1205.615      906.545        0.676        0.282       88.574       33.890        0.146      334.235        4.075      868.782
01/17/2014  19:23:00      -73.973      -52.240       -1.324       40.821       26.568       22.453     1666.313      705.877      504.115        0.554        0.144       90.559       18.887        0.043      334.241        4.084      868.771
01/17/2014  19:24:00      -89.448      -54.497      -19.394       33.920       22.893       20.045     1150.580      524.095      401.809        0.671        0.104      104.742       11.856        0.013      334.327        4.227      868.767
01/17/2014  19:25:00      -54.977      -42.108       -2.330       51.662       38.954       32.848     2668.979     1517.402     1078.993        0.503        0.263       69.250       39.320        0.322      334.262        4.117      868.767
01/17/2014  19:26:00      -74.637      -64.391      -12.724       37.491       23.948       23.615     1405.563      573.511      557.685        0.621        0.127       98.574       18.473        0.035      334.249        4.098      868.772
01/17/2014  19:27:00      -82.382      -34.346      -12.973       35.336       29.880       21.254     1248.598      892.841      451.728        0.536        0.130       89.255       16.619        0.035      334.230        4.065      868.768
01/17/2014  19:28:00     -117.808      -33.855      -17.369       20.875       24.221       17.014      435.755      586.635      289.477        0.832        0.066      122.576        7.234        0.003      334.205        4.024      868.762
01/17/2014  19:29:00     -104.005      -21.627       -7.647       32.677       25.019       17.400     1067.795      625.953      302.760        0.667        0.100      106.229       16.606        0.024      334.225        4.058      868.763
01/17/2014  19:30:00     -108.354      -22.894      -11.514       27.106       29.052       19.856      734.710      844.018      394.252        0.718        0.099      110.746       15.834        0.020      334.151        3.932      868.759
01/17/2014  19:31:00      -83.488      -30.137      -12.572       22.423       27.330       23.342      502.795      746.915      544.853        0.492        0.090       88.761       16.372        0.034      334.254        4.105      868.764
01/17/2014  19:32:00     -110.273      -11.441      -16.612       28.711       20.504       15.098      824.346      420.403      227.962        0.702        0.074      110.865       14.166        0.016      334.257        4.112      868.745
01/17/2014  19:33:00     -107.439      -28.740      -21.777       29.438       19.692       18.123      866.604      387.777      328.432        0.721        0.079      111.217       14.163        0.016      334.327        4.228      868.740
01/17/2014  19:34:00      -97.375      -32.160      -18.341       35.514       33.510       22.198     1261.264     1122.950      492.745        0.686        0.144      102.548       21.616        0.044      334.230        4.066      868.725
01/17/2014  19:35:00     -121.251      -36.742      -12.101       44.589       39.135       25.273     1988.182     1531.544      638.720        1.018        0.208      126.696       23.044        0.033      334.209        4.031      868.729
01/17/2014  19:36:00     -106.207      -42.168       -6.489       38.275       49.505       24.546     1465.000     2450.736      602.518        0.881        0.226      114.272       21.116        0.034      334.174        3.974      868.713
01/17/2014  19:37:00      -89.101      -31.066       -3.912       34.020       29.831       24.609     1157.387      889.904      605.615        0.579        0.133       94.362       11.611        0.015      334.216        4.043      868.700
01/17/2014  19:38:00     -129.536      -43.891      -15.396       37.665       33.046       18.933     1418.689     1092.034      358.466        1.091        0.143      136.769        8.978        0.004      334.203        4.021      868.695
01/17/2014  19:39:00      -80.315      -43.156       -4.682       46.962       36.535       24.926     2205.430     1334.824      621.298        0.625        0.208       91.176       24.173        0.070      334.226        4.058      868.695
01/17/2014  19:40:00     -126.794      -35.446       -7.661       46.628       23.641       23.423     2174.172      558.908      548.616        1.034        0.164      131.655       20.764        0.025      334.251        4.101      868.706
01/17/2014  19:41:00      -70.046      -48.211       -5.029       47.352       50.282       22.603     2242.236     2528.275      510.899        0.627        0.264       85.034       23.199        0.074      334.230        4.067      868.722
01/17/2014  19:42:00      -81.585      -34.302       -4.058       35.148       23.350       19.956     1235.356      545.228      398.255        0.501        0.109       88.503       14.341        0.026      334.282        4.152      868.720
01/17/2014  19:43:00     -114.979      -31.719       -6.969       38.140       32.473       24.351     1454.649     1054.499      592.988        0.869        0.155      119.274       21.580        0.033      334.190        4.000      868.736
01/17/2014  19:44:00      -79.958      -43.817        3.145       49.369       23.944       23.069     2437.276      573.325      532.183        0.593        0.177       91.177       19.363        0.045      334.219        4.047      868.744
01/17/2014  19:45:00      -82.802      -28.444       -4.075       27.395       25.340       18.803      750.503      642.137      353.543        0.471        0.087       87.551        6.013        0.005      334.229        4.064      868.752
01/17/2014  19:46:00      -66.449       -2.176       -5.231       43.147       27.237       16.036     1861.686      741.863      257.157        0.365        0.143       66.485       14.316        0.046      334.231        4.067      868.765
01/17/2014  19:47:00      -90.567       18.009       -4.212       50.016       26.545       22.903     2501.591      704.659      524.537        0.614        0.187       92.340       18.696        0.041      334.316        4.208      868.768
01/17/2014  19:48:00     -135.160        7.360      -16.625       28.362       27.941       16.176      804.396      780.672      261.649        1.022        0.092      135.360       14.982        0.012      334.339        4.246      868.755
01/17/2014  19:49:00     -101.298      -22.392      -11.577       33.499       26.439       17.197     1122.161      699.027      295.735        0.651        0.106      103.743       14.256        0.019      334.258        4.113      868.755
01/17/2014  19:50:00     -102.276      -35.899      -14.437       26.319       29.518       18.909      692.691      871.287      357.569        0.694        0.096      108.394       10.126        0.009      334.243        4.087      868.758
01/17/2014  19:51:00     -119.155      -42.899      -10.314       26.427       35.648       21.376      698.381     1270.812      456.946        0.928        0.121      126.642       13.155        0.011      334.186        3.993      868.748
01/17/2014  19:52:00      -69.727      -39.763       -2.878       41.231       37.634       22.435     1699.958     1416.294      503.343        0.503        0.181       80.268       17.985        0.050      334.153        3.938      868.749
01/17/2014  19:53:00      -86.342      -64.137      -14.330       40.639       40.856       26.623     1651.494     1669.226      708.782        0.790        0.201      107.557       18.843        0.031      334.201        4.018      868.768
01/17/2014  19:54:00      -98.142      -20.975      -11.040       25.974       29.661       16.111      674.642      879.760      259.575        0.600        0.091      100.359       11.016        0.012      334.214        4.039      868.774
01/17/2014  19:55:00      -82.201      -34.754      -18.991       19.786       25.986       16.415      391.502      675.277      269.446        0.483        0.067       89.246       10.328        0.013      334.195        4.007      868.780
01/17/2014  19:56:00      -85.964      -51.728      -14.664       38.871       25.105       20.447     1510.993      630.283      418.069        0.642        0.128      100.327       10.273        0.010      334.182        3.986      868.790
01/17/2014  19:57:00      -65.599      -69.157       -4.934       42.447       30.292       23.437     1801.719      917.624      549.306        0.619        0.163       95.320       23.258        0.060      334.171        3.967      868.801
01/17/2014  19:58:00     -121.940      -47.854      -12.121       21.523       24.464       17.630      463.247      598.464      310.808        0.934        0.069      130.993       17.291        0.017      334.171        3.967      868.804
01/17/2014  19:59:00     -129.214      -20.705       -9.707       22.932       17.073       13.861      525.867      291.495      192.136        0.911        0.050      130.862       10.020        0.006      334.219        4.046      868.807
01/17/2014  20:00:00     -117.324      -58.165       -9.967       18.015       19.457       13.416      324.528      378.577      180.000        0.907        0.044      130.951       11.018        0.007      334.207        4.028      868.814
01/17/2014  20:01:00     -122.565      -51.705       -5.345       38.148       19.817       21.719     1455.290      392.731      471.722        1.002        0.116      133.025       23.286        0.031      334.209        4.030      868.811
01/17/2014  20:02:00     -131.307      -68.150       -4.469       30.441       26.380       17.773      926.677      695.920      315.875        1.192        0.097      147.939       16.064        0.012      334.183        3.988      868.812
01/17/2014  20:03:00      -68.101      -67.338       -4.964       29.027       29.620       20.666      842.539      877.323      427.082        0.567        0.107       95.772       15.119        0.025      334.162        3.952      868.804
01/17/2014  20:04:00      -97.674      -70.179       -0.461       32.666       27.075       23.646     1067.070      733.054      559.140        0.841        0.118      120.272       17.140        0.020      334.166        3.959      868.808
01/17/2014  20:05:00     -120.470      -64.078       -4.427       32.120       25.424       19.124     1031.715      646.372      365.740        1.034        0.102      136.452       14.585        0.011      334.128        3.896      868.806
01/17/2014  20:06:00     -110.355      -63.215       -9.276       27.909       24.364       14.507      778.936      593.614      210.461        0.892        0.079      127.179        9.731        0.006      334.202        4.019      868.803
01/17/2014  20:07:00     -134.905      -80.382      -10.004       28.995       25.148       19.661      840.712      632.436      386.552        1.331        0.093      157.037       17.422        0.012      334.189        3.997      868.804
01/17/2014  20:08:00     -131.547      -88.455      -12.567       25.961       25.392       20.479      673.991      644.749      419.406        1.351        0.087      158.521       10.588        0.004      334.162        3.953      868.803
01/17/2014  20:09:00     -149.895      -77.234      -14.920       18.615       19.240       14.451      346.521      370.172      208.841        1.479        0.046      168.622       10.602        0.004      334.215        4.041      868.806
01/17/2014  20:10:00     -144.448      -63.317       -9.263       29.985       21.325       12.826      899.124      454.750      164.512        1.324        0.076      157.716       12.776        0.007      334.179        3.981      868.794
01/17/2014  20:11:00     -148.415      -62.093       -9.081       26.994       19.737       14.119      728.660      389.530      199.338        1.364        0.066      160.880       12.075        0.006      334.192        4.000      868.793
01/17/2014  20:12:00     -136.301      -52.794       -7.442       30.508       23.546       17.834      930.760      554.409      318.041        1.161        0.090      146.168       14.559        0.010      334.151        3.934      868.792
01/17/2014  20:13:00     -118.939      -59.131       -0.499       36.179       23.627       19.473     1308.899      558.215      379.183        0.994        0.112      132.826       19.629        0.022      334.112        3.870      868.802
01/17/2014  20:14:00     -131.230      -60.990       -3.732       19.367       22.201       17.671      375.096      492.867      312.248        1.107        0.059      144.710       12.861        0.008      334.101        3.851      868.813
01/17/2014  20:15:00     -146.978      -48.778      -13.198       17.602       16.536       11.018      309.841      273.447      121.393        1.243        0.035      154.861        4.571        0.001      334.117        3.878      868.810
01/17/2014  20:16:00     -146.197      -64.278      -11.779       19.901       21.913       17.660      396.045      480.196      311.877        1.342        0.059      159.704       11.347        0.005      334.059        3.782      868.796
01/17/2014  20:17:00     -123.118      -60.506      -13.081       23.054       21.764       19.013      531.477      473.671      361.497        1.018        0.068      137.182       12.733        0.009      334.070        3.798      868.794
01/17/2014  20:18:00     -109.119      -37.046       -1.482       20.677       20.492       15.084      427.550      419.925      227.525        0.718        0.054      115.236        9.479        0.007      334.067        3.795      868.792
01/17/2014  20:19:00     -111.367      -41.102      -12.044       19.846       14.565       12.990      393.876      212.125      168.735        0.751        0.039      118.709        7.601        0.004      334.020        3.718      868.777
01/17/2014  20:20:00     -148.416      -60.916      -19.533       14.804       14.964       12.296      219.160      223.924      151.195        1.336        0.030      160.431        6.022        0.001      333.940        3.586      868.768
01/17/2014  20:21:00     -114.964      -31.673      -20.418       13.549       12.359        9.669      183.585      152.735       93.489        0.753        0.021      119.247        5.300        0.002      333.824        3.393      868.759
01/17/2014  20:22:00     -112.037      -47.803      -21.811       21.072       14.921       11.883      444.047      222.631      141.197        0.806        0.040      121.809        9.567        0.006      333.836        3.412      868.765
01/17/2014  20:23:00      -99.643      -47.586      -14.710       22.763       25.567       16.326      518.148      653.654      266.522        0.692        0.072      110.423       12.657        0.013      333.806        3.363      868.753
01/17/2014  20:24:00     -112.462      -30.389      -15.594       34.618       22.717       20.084     1198.420      516.058      403.355        0.797        0.106      116.495       12.950        0.012      333.731        3.237      868.747
01/17/2014  20:25:00      -82.823      -54.319      -22.297       34.392       21.674       17.134     1182.821      469.759      293.590        0.613        0.097       99.047       12.573        0.016      333.742        3.256      868.744
01/17/2014  20:26:00      -93.260      -36.528      -14.046       25.616       29.427       21.918      656.170      865.926      480.412        0.612        0.100      100.158       13.562        0.018      333.713        3.207      868.737
01/17/2014  20:27:00     -121.301      -24.567      -24.380       28.047       29.139       16.407      786.628      849.091      269.180        0.891        0.095      123.764        5.107        0.002      333.647        3.097      868.746
01/17/2014  20:28:00      -98.882      -29.604      -12.732       20.066       20.850       14.732      402.634      434.724      217.026        0.594        0.053      103.218       10.422        0.010      333.606        3.031      868.743
01/17/2014  20:29:00     -100.641      -10.864      -14.363       33.484       23.937       13.880     1121.162      572.991      192.664        0.617        0.094      101.226       13.167        0.017      333.607        3.031      868.739
01/17/2014  20:30:00     -106.624      -14.812      -18.771       24.835       17.936       14.717      616.792      321.706      216.599        0.655        0.058      107.648       13.014        0.015      333.646        3.097      868.747
01/17/2014  20:31:00     -129.152      -11.180      -21.702       29.509       23.010       12.180      870.799      529.476      148.342        0.941        0.077      129.635       11.519        0.008      333.563        2.958      868.751
01/17/2014  20:32:00      -95.931      -30.514      -19.849       21.886       24.093       16.662      479.004      580.458      277.621        0.593        0.067      100.667       13.444        0.018      333.605        3.029      868.752
01/17/2014  20:33:00      -98.014      -39.109      -18.776       24.545       31.571       15.393      602.442      996.745      236.959        0.666        0.092      105.529        7.384        0.005      333.579        2.985      868.763
01/17/2014  20:34:00     -113.104      -34.661      -15.357       27.412       28.954       17.352      751.423      838.346      301.101        0.806        0.095      118.295       15.807        0.018      333.584        2.995      868.771
01/17/2014  20:35:00     -107.765      -31.092      -16.389       21.349       27.572       16.497      455.779      760.234      272.154        0.717        0.074      112.161       11.743        0.011      333.534        2.910      868.773
01/17/2014  20:36:00      -99.584      -38.438      -13.154       20.706       21.619       18.579      428.721      467.382      345.164        0.640        0.062      106.745       13.520        0.016      333.559        2.954      868.771
01/17/2014  20:37:00     -107.620      -41.995      -14.552       23.029       24.009       20.881      530.343      576.437      436.033        0.755        0.077      115.523       16.957        0.022      333.540        2.923      868.783
01/17/2014  20:38:00     -112.429      -24.258      -19.034       19.061       26.441       17.776      363.319      699.135      315.982        0.748        0.069      115.017        8.645        0.006      333.528        2.901      868.777
01/17/2014  20:39:00     -111.705      -11.887      -20.817       30.167       16.565       15.601      910.045      274.390      243.405        0.724        0.071      112.336       11.648        0.011      333.538        2.918      868.777
01/17/2014  20:40:00      -73.083      -39.620      -17.963       25.550       29.472       22.136      652.796      868.612      489.992        0.462        0.101       83.132       18.226        0.048      333.553        2.942      868.771
01/17/2014  20:41:00      -73.138      -22.876      -14.665       18.311       22.671       18.728      335.280      513.969      350.725        0.364        0.060       76.632        5.468        0.005      333.567        2.966      868.775
01/17/2014  20:42:00     -103.792      -31.551      -24.492       22.630       27.483       14.685      512.099      755.293      215.653        0.693        0.074      108.482       12.633        0.014      333.510        2.871      868.772
01/17/2014  20:43:00      -87.719      -27.925       -8.457       19.583       30.423       13.320      383.480      925.554      177.423        0.502        0.074       92.057       12.137        0.017      333.515        2.878      868.771
01/17/2014  20:44:00      -98.073      -30.095      -16.276       22.239       24.802       15.193      494.575      615.119      230.814        0.606        0.067      102.587       12.065        0.014      333.474        2.812      868.777
01/17/2014  20:45:00     -116.699        0.048      -19.328       22.359       18.806       14.930      499.941      353.673      222.912        0.753        0.054      116.699        7.818        0.004      333.428        2.736      868.777
01/17/2014  20:46:00      -88.500      -14.123      -16.230       17.353       14.280       14.569      301.113      203.911      212.261        0.451        0.036       89.619       11.686        0.017      333.418        2.720      868.778
01/17/2014  20:47:00      -78.443      -21.605      -13.791       16.258       17.848       12.312      264.317      318.553      151.578        0.377        0.037       81.364       10.030        0.015      333.427        2.735      868.787
01/17/2014  20:48:00      -96.439       -7.931      -14.414       18.434       12.720       12.702      339.830      161.787      161.339        0.512        0.033       96.765        9.790        0.010      333.426        2.731      868.785
01/17/2014  20:49:00      -88.567      -32.303      -13.407       13.783       18.072       12.724      189.965      326.579      161.897        0.487        0.034       94.274       10.190        0.012      333.421        2.727      868.780
01/17/2014  20:50:00      -86.684      -24.679      -13.548       12.646       20.123       14.991      159.919      404.954      224.743        0.455        0.039       90.129        9.108        0.010      333.399        2.689      868.776
01/17/2014  20:51:00      -93.207      -32.543      -18.583       21.352       19.037       13.318      455.905      362.409      177.366        0.554        0.050       98.724        3.627        0.001      333.406        2.702      868.782
01/17/2014  20:52:00      -92.990      -37.899      -17.300       23.437       22.536       14.553      549.313      507.863      211.781        0.583        0.063      100.417        5.898        0.003      333.450        2.773      868.793
01/17/2014  20:53:00      -96.619      -49.067      -17.587       27.872       30.016       22.956      776.851      900.971      526.992        0.713        0.110      108.364       16.448        0.023      333.407        2.702      868.797
01/17/2014  20:54:00      -92.352      -44.567      -17.563       31.405       28.497       18.113      986.243      812.084      328.063        0.647        0.106      102.543        2.375        0.001      333.424        2.730      868.799
01/17/2014  20:55:00     -109.866      -42.580      -12.650       23.535       23.653       16.850      553.909      559.460      283.931        0.772        0.070      117.828        8.418        0.005      333.438        2.753      868.812
01/17/2014  20:56:00     -119.536      -27.872      -27.596       20.559       20.133       12.551      422.664      405.338      157.538        0.841        0.049      122.742        4.544        0.001      333.359        2.622      868.808
01/17/2014  20:57:00     -100.673      -45.610      -22.902       23.900       32.213       20.221      571.205     1037.669      408.886        0.738        0.101      110.522       16.655        0.023      333.378        2.651      868.803
01/17/2014  20:58:00      -79.883      -52.916      -11.247       33.448       34.207       20.183     1118.777     1170.124      407.368        0.600        0.135       95.820       19.036        0.039      333.394        2.680      868.812
01/17/2014  20:59:00     -106.261      -24.736      -18.644       30.121       28.367       16.257      907.261      804.670      264.296        0.711        0.099      109.102        8.151        0.006      333.330        2.574      868.810
01/17/2014  21:00:00     -100.264      -31.596      -16.320       30.517       26.877       15.648      931.317      722.379      244.865        0.661        0.095      105.125       15.374        0.021      333.306        2.535      868.808
01/17/2014  21:01:00      -93.838      -27.137      -16.604       37.157       25.787       16.338     1380.658      664.984      266.915        0.606        0.116       97.683       15.960        0.027      333.259        2.456      868.808
01/17/2014  21:02:00     -117.325      -28.640      -21.042       24.865       35.235       19.298      618.278     1241.520      372.418        0.863        0.112      120.770       10.058        0.007      333.233        2.412      868.816
01/17/2014  21:03:00     -131.471      -35.490      -12.473       31.673       35.234       23.816     1003.196     1241.462      567.209        1.076        0.141      136.177       20.874        0.023      333.248        2.439      868.811
01/17/2014  21:04:00     -110.096      -34.373       -9.101       31.753       42.229       24.806     1008.265     1783.259      615.314        0.840        0.170      115.337       15.122        0.017      333.246        2.435      868.812
01/17/2014  21:05:00      -75.007      -45.282      -21.586       45.498       22.953       26.686     2070.071      526.827      712.123        0.573        0.165       87.616       27.764        0.100      333.240        2.423      868.827
01/17/2014  21:06:00      -82.088      -51.459      -18.671       25.825       34.029       16.769      666.910     1157.943      281.195        0.592        0.105       96.884       14.651        0.023      333.301        2.526      868.834
01/17/2014  21:07:00      -93.966      -45.731      -16.159       14.930       19.903       11.878      222.904      396.114      141.079        0.597        0.038      104.503        8.694        0.007      333.250        2.441      868.832
01/17/2014  21:08:00     -102.471      -42.716      -18.009        8.882       13.104        7.625       78.885      171.703       58.147        0.648        0.015      111.017        4.300        0.001      333.258        2.454      868.842
01/17/2014  21:09:00     -101.853      -34.583      -14.767       16.337       16.268       12.884      266.895      264.635      166.003        0.624        0.035      107.564       11.396        0.011      333.237        2.418      868.846
01/17/2014  21:10:00     -103.796      -45.622      -12.534       19.641       19.732       13.188      385.769      389.360      173.936        0.698        0.047      113.380       11.028        0.009      333.230        2.407      868.846
01/17/2014  21:11:00     -125.373      -41.248      -24.011       16.845       14.760       13.434      283.762      217.859      180.479        0.934        0.034      131.984        9.970        0.006      333.211        2.377      868.853
01/17/2014  21:12:00      -94.919      -41.867      -15.763       20.791       23.857       13.831      432.256      569.163      191.297        0.610        0.060      103.742        7.969        0.006      333.238        2.421      868.862
01/17/2014  21:13:00     -113.605      -51.409      -15.806       10.876       15.411       10.391      118.282      237.506      107.972        0.813        0.023      124.695        6.079        0.002      333.217        2.388      868.862
01/17/2014  21:14:00     -111.074      -41.245      -15.049       14.168       19.056       17.656      200.720      363.127      311.722        0.757        0.044      118.485        8.242        0.005      333.199        2.356      868.857
01/17/2014  21:15:00     -115.164      -29.784      -18.432       14.583       15.756       11.535      212.670      248.243      133.047        0.754        0.030      118.953        6.720        0.003      333.219        2.388      868.860
01/17/2014  21:16:00     -118.622      -41.313      -12.472       15.619       12.514       13.119      243.956      156.613      172.109        0.825        0.029      125.610        9.826        0.006      333.201        2.360      868.874
01/17/2014  21:17:00     -136.214      -37.439      -15.006       15.646        9.351        8.355      244.804       87.435       69.806        1.029        0.020      141.266        2.913        0.000      333.210        2.376      868.870
01/17/2014  21:18:00     -141.381      -38.528      -16.053       16.937       12.422       11.856      286.876      154.312      140.573        1.116        0.029      146.536       10.535        0.005      333.153        2.281      868.870
01/17/2014  21:19:00     -133.004      -50.870      -16.737       13.278       14.744        9.739      176.310      217.382       94.849        1.052        0.024      142.400        6.459        0.002      333.170        2.309      868.879
01/17/2014  21:20:00     -130.227      -42.016      -14.258       22.088       17.302       12.182      487.860      299.346      148.405        0.993        0.047      136.837       11.357        0.007      333.134        2.250      868.875
01/17/2014  21:21:00     -120.941      -46.565      -15.484       16.869       18.902        9.422      284.548      357.285       88.776        0.888        0.037      129.596        3.598        0.001      333.172        2.312      868.881
01/17/2014  21:22:00     -116.961      -48.246      -17.627       10.878       11.439        9.966      118.325      130.847       99.326        0.833        0.017      126.521        6.256        0.002      333.236        2.418      868.881
01/17/2014  21:23:00     -121.957      -34.720      -21.002       15.048       12.837       11.385      226.433      164.789      129.618        0.852        0.026      126.803        7.978        0.004      333.148        2.274      868.891
01/17/2014  21:24:00     -113.081      -41.909      -18.335       14.994       13.888       11.029      224.807      192.888      121.644        0.771        0.027      120.597        8.910        0.005      333.117        2.223      868.898
01/17/2014  21:25:00     -126.927      -58.750      -23.245        8.429       14.828        8.546       71.045      219.875       73.037        1.023        0.018      139.864        4.939        0.001      333.175        2.318      868.890
01/17/2014  21:26:00     -118.935      -44.123      -14.319       19.067       19.982       13.731      363.568      399.275      188.546        0.862        0.048      126.856        5.406        0.002      333.159        2.290      868.881
01/17/2014  21:27:00     -119.403      -55.805      -14.278       10.074       13.458        9.535      101.483      181.115       90.923        0.897        0.019      131.800        4.472        0.001      333.172        2.313      868.877
01/17/2014  21:28:00     -110.136      -61.587      -12.363       14.283       14.828       10.978      204.012      219.876      120.512        0.831        0.027      126.186        9.220        0.005      333.160        2.291      868.882
01/17/2014  21:29:00     -101.722      -54.121      -13.326       16.413       13.444       11.526      269.394      180.745      132.845        0.702        0.029      115.223        7.899        0.005      333.190        2.341      868.883
01/17/2014  21:30:00     -102.244      -42.008      -11.413       12.180       10.863       10.615      148.349      118.013      112.670        0.636        0.019      110.538        4.090        0.001      333.111        2.212      868.884
01/17/2014  21:31:00     -116.380      -50.579      -17.017        8.901        9.651        7.979       79.231       93.145       63.669        0.831        0.012      126.896        3.569        0.001      333.125        2.234      868.890
01/17/2014  21:32:00     -120.432      -52.743      -16.158        7.344       10.979        8.354       53.939      120.545       69.783        0.890        0.012      131.476        3.863        0.001      333.112        2.214      868.903
01/17/2014  21:33:00     -124.665      -50.928      -15.835        9.360       11.535        7.729       87.600      133.056       59.732        0.933        0.014      134.667        2.213        0.000      333.094        2.184      868.914
01/17/2014  21:34:00     -117.254      -50.758      -17.692        9.081       10.300        8.118       82.467      106.081       65.909        0.845        0.013      127.769        3.977        0.001      333.064        2.133      868.917
01/17/2014  21:35:00     -122.885      -59.022      -14.001       12.308       10.963       11.210      151.486      120.189      125.661        0.959        0.020      136.325        7.238        0.003      333.097        2.191      868.922
01/17/2014  21:36:00     -118.408      -43.250      -12.664       13.354       13.028       10.253      178.318      169.723      105.131        0.825        0.023      126.060        6.778        0.003      333.061        2.129      868.933
01/17/2014  21:37:00     -107.846      -66.723       -7.460       11.602       13.512       11.954      134.605      182.574      142.888        0.830        0.023      126.818        5.007        0.002      333.101        2.196      868.940
01/17/2014  21:38:00     -119.850      -63.121      -15.937       10.828       11.794        8.804      117.256      139.098       77.512        0.947        0.017      135.456        3.299        0.001      333.039        2.092      868.941
01/17/2014  21:39:00     -108.534      -64.113      -13.664       14.094       15.666       10.578      198.633      245.436      111.904        0.832        0.028      126.056        7.757        0.004      333.037        2.089      868.942
01/17/2014  21:40:00     -112.550      -44.150      -15.423       14.904       11.771       10.059      222.119      138.547      101.184        0.766        0.023      120.899        7.504        0.004      333.026        2.070      868.941
01/17/2014  21:41:00      -94.926      -41.358      -19.646       11.111       12.599        8.851      123.444      158.725       78.340        0.573        0.018      103.545        4.146        0.002      333.002        2.033      868.956
01/17/2014  21:42:00      -84.469      -38.029      -12.861       10.422       12.751        8.852      108.618      162.596       78.360        0.455        0.017       92.635        7.611        0.007      332.999        2.025      868.961
01/17/2014  21:43:00     -114.981      -28.579      -18.345       14.248       17.317       11.762      202.994      299.863      138.350        0.751        0.032      118.480        6.185        0.003      333.105        2.200      868.956
01/17/2014  21:44:00     -141.765      -37.016      -26.114       13.415       11.968       13.289      179.971      143.234      176.598        1.132        0.025      146.518        5.572        0.001      333.202        2.361      868.956
01/17/2014  21:45:00     -122.114      -33.295      -16.849       16.962       16.138       14.448      287.704      260.419      208.746        0.853        0.038      126.571        7.671        0.004      333.126        2.236      868.958
01/17/2014  21:46:00     -117.021      -46.940      -21.274       12.971       10.982       10.164      168.249      120.606      103.297        0.837        0.020      126.085        6.614        0.003      333.104        2.200      868.959
01/17/2014  21:47:00     -107.003      -43.497      -17.405       17.221       19.894       11.565      296.556      395.759      133.752        0.724        0.041      115.506        9.931        0.007      333.031        2.079      868.962
01/17/2014  21:48:00      -95.420      -50.216       -9.690       16.068       22.459       14.836      258.192      504.427      220.104        0.635        0.049      107.827        6.994        0.004      333.024        2.068      868.967
01/17/2014  21:49:00      -87.588      -59.608      -19.518       24.526       21.545       16.584      601.547      464.194      275.045        0.647        0.067      105.947        9.859        0.009      333.001        2.031      868.985
01/17/2014  21:50:00     -112.048      -44.718      -12.176       15.264       25.467       15.092      233.003      648.589      227.771        0.791        0.055      120.642        8.120        0.005      332.958        1.959      868.977
01/17/2014  21:51:00     -115.651      -50.531      -12.816       24.486       20.048       15.345      599.579      401.913      235.477        0.866        0.062      126.208       12.929        0.010      332.906        1.874      868.982
01/17/2014  21:52:00      -95.775      -34.111      -19.810       19.523       21.508       14.337      381.164      462.587      205.540        0.589        0.052      101.668       12.864        0.016      332.895        1.857      868.988
01/17/2014  21:53:00      -88.245      -41.236      -11.568       23.666       25.755       14.585      560.091      663.309      212.722        0.553        0.072       97.404       15.044        0.024      332.876        1.825      869.002
01/17/2014  21:54:00      -93.364      -41.622      -10.704       21.042       24.281       17.125      442.779      589.553      293.279        0.594        0.066      102.222       11.038        0.012      332.840        1.765      869.014
01/17/2014  21:55:00     -103.373      -53.153      -20.276       20.282       28.701       16.946      411.370      823.742      287.172        0.772        0.076      116.238       12.579        0.012      332.930        1.913      869.019
01/17/2014  21:56:00     -115.006      -45.087      -28.020       19.750       21.034       14.624      390.060      442.435      213.866        0.855        0.052      123.529       11.299        0.008      332.887        1.843      869.025
01/17/2014  21:57:00      -96.205      -49.779      -10.608       23.640       23.821       21.420      558.835      567.418      458.828        0.672        0.079      108.320       16.448        0.023      332.861        1.799      869.025
01/17/2014  21:58:00     -126.925      -52.141      -16.748       18.829       23.744       20.273      354.548      563.790      410.989        1.022        0.066      137.218       15.858        0.013      332.776        1.659      869.024
01/17/2014  21:59:00     -136.118      -42.412      -17.577       27.594       23.308       16.216      761.435      543.254      262.968        1.110        0.078      142.572       16.268        0.013      332.768        1.645      869.014
01/17/2014  22:00:00     -121.004      -56.193      -11.853       16.732       29.747       12.147      279.958      884.872      147.549        0.963        0.066      133.416        6.803        0.003      332.741        1.602      869.011
01/17/2014  22:01:00     -102.000      -40.498      -21.173       18.124       22.490       14.114      328.482      505.784      199.210        0.676        0.052      109.746        7.534        0.005      332.715        1.560      869.016
01/17/2014  22:02:00      -95.985      -43.160      -18.461       27.227       21.416       13.420      741.295      458.644      180.086        0.640        0.069      105.242       11.614        0.012      332.783        1.671      869.006
01/17/2014  22:03:00      -65.909      -43.283      -11.086       25.232       27.597       14.997      636.629      761.621      224.920        0.398        0.081       78.850        7.305        0.009      332.738        1.597      868.996
01/17/2014  22:04:00      -93.511      -26.310      -15.341       33.703       22.509       14.473     1135.916      506.658      209.474        0.576        0.093       97.142       16.512        0.029      332.741        1.602      868.989
01/17/2014  22:05:00      -94.160      -25.628      -15.847       23.707       26.140       16.811      562.043      683.284      282.624        0.565        0.076       97.585       14.750        0.023      332.766        1.643      868.992
01/17/2014  22:06:00      -81.449      -32.071      -11.258       16.604       22.232       14.790      275.687      494.277      218.743        0.439        0.049       87.536        9.388        0.012      332.727        1.578      868.980
01/17/2014  22:07:00     -103.314      -23.760      -19.583       26.883       19.850       14.997      722.690      394.019      224.925        0.648        0.067      106.011       11.367        0.011      332.731        1.584      868.967
01/17/2014  22:08:00     -114.713      -28.710      -19.048       23.082       25.210       17.018      532.771      635.534      289.622        0.790        0.073      118.252       12.168        0.011      332.697        1.528      868.972
01/17/2014  22:09:00     -103.270      -24.077      -22.776       17.621       23.111       17.679      310.497      534.101      312.560        0.646        0.058      106.039       12.300        0.013      332.685        1.508      868.968
01/17/2014  22:10:00      -94.246      -32.828       -9.629       21.606       26.172       13.585      466.834      684.984      184.562        0.569        0.067       99.800        9.658        0.009      332.713        1.554      868.963
01/17/2014  22:11:00      -83.102      -16.623       -6.938       27.310       26.850       16.545      745.843      720.904      273.742        0.449        0.087       84.748       11.449        0.018      332.750        1.618      868.961
01/17/2014  22:12:00      -99.435      -46.157      -17.027       25.158       19.571       16.792      632.905      383.034      281.976        0.680        0.065      109.626        7.644        0.005      332.760        1.634      868.957
01/17/2014  22:13:00     -100.470      -20.545      -14.293       19.899       29.926       20.103      395.990      895.566      404.135        0.621        0.085      102.549       16.622        0.026      332.689        1.515      868.965
01/17/2014  22:14:00     -110.892      -20.338      -10.517       27.575       28.217       20.386      760.375      796.200      415.602        0.740        0.099      112.741       15.060        0.018      332.681        1.502      868.965
01/17/2014  22:15:00     -114.732      -25.533      -14.782       34.587       28.669       15.797     1196.228      821.887      249.548        0.815        0.113      117.539        8.521        0.005      332.701        1.535      868.965
01/17/2014  22:16:00     -119.476      -22.888      -12.981       25.300       28.733       18.703      640.096      825.572      349.816        0.839        0.091      121.649       12.235        0.010      332.668        1.479      868.964
01/17/2014  22:17:00      -78.846      -44.923      -11.588       25.138       31.799       18.403      631.931     1011.179      338.663        0.518        0.099       90.746       14.018        0.024      332.676        1.494      868.969
01/17/2014  22:18:00     -111.930      -32.645       -4.242       36.051       37.952       22.661     1299.660     1440.321      513.503        0.843        0.163      116.593       18.635        0.026      332.697        1.528      868.972
01/17/2014  22:19:00     -106.644      -32.959      -10.645       32.742       29.601       17.039     1072.070      876.235      290.341        0.741        0.112      111.620       14.848        0.018      332.688        1.513      868.969
01/17/2014  22:20:00     -111.410      -57.070       -4.512       33.792       40.889       25.162     1141.914     1671.908      633.131        0.957        0.172      125.177       24.494        0.038      332.655        1.458      868.966
01/17/2014  22:21:00     -114.132      -39.786       -6.000       33.042       30.855       16.780     1091.796      952.044      281.581        0.848        0.116      120.868       10.766        0.008      332.649        1.450      868.976
01/17/2014  22:22:00     -121.280      -62.653        1.347       45.183       42.540       29.801     2041.459     1809.662      888.075        1.169        0.237      136.508       25.327        0.034      332.623        1.406      868.981
01/17/2014  22:23:00     -175.806      -32.907      -10.750       38.774       40.636       25.581     1503.419     1651.318      654.389        1.796        0.190      178.859       20.408        0.013      332.598        1.363      868.977
01/17/2014  22:24:00     -100.955      -39.224        1.824       58.151       31.667       28.991     3381.534     1002.798      840.450        0.848        0.261      108.307       35.430        0.107      332.573        1.323      868.971
01/17/2014  22:25:00     -167.797      -21.230      -18.712       31.572       37.016       20.500      996.815     1370.151      420.261        1.587        0.139      169.135       14.386        0.007      332.531        1.253      868.970
01/17/2014  22:26:00     -162.200      -23.229       -7.071       52.831       37.848       25.404     2791.103     1432.495      645.354        1.588        0.243      163.855       26.164        0.025      332.459        1.133      868.976
01/17/2014  22:27:00     -147.602       -5.126       -6.148       60.530       46.961       33.350     3663.910     2205.362     1112.200        1.441        0.349      147.691       36.032        0.060      332.416        1.064      868.982
01/17/2014  22:28:00     -123.019      -20.877      -16.142       57.000       37.595       29.020     3249.027     1413.394      842.158        1.067        0.275      124.778       32.715        0.069      332.347        0.950      868.983
01/17/2014  22:29:00      -95.196       -8.982        0.632       42.557       44.301       24.757     1811.057     1962.585      612.885        0.676        0.219       95.619       28.467        0.089      332.358        0.969      868.989
01/17/2014  22:30:00      -86.822      -14.639       -3.105       60.864       32.880       23.716     3704.449     1081.112      562.449        0.655        0.267       88.047       24.548        0.078      332.351        0.957      868.993
01/17/2014  22:31:00     -117.834      -19.329       -6.381       57.212       44.855       26.804     3273.191     2011.998      718.450        1.015        0.300      119.409       29.497        0.061      332.395        1.029      868.998
01/17/2014  22:32:00     -105.241      -21.283        3.862       67.773       41.767       26.388     4593.244     1744.486      696.327        0.929        0.352      107.371       32.897        0.094      332.436        1.097      868.992
01/17/2014  22:33:00     -109.686      -57.113       -1.644       43.643       37.976       21.398     1904.669     1442.152      457.890        0.955        0.190      123.664       21.627        0.031      332.448        1.118      868.988
01/17/2014  22:34:00      -67.802      -38.162       -3.090       46.349       25.790       21.968     2148.207      665.130      482.608        0.468        0.165       77.803       16.988        0.048      332.450        1.120      868.998
01/17/2014  22:35:00      -93.878      -33.970      -17.352       47.934       30.997       21.374     2297.703      960.792      456.834        0.699        0.186       99.835       19.975        0.040      332.423        1.076      869.005
01/17/2014  22:36:00     -110.682      -37.155      -18.252       28.536       34.244       15.809      814.331     1172.664      249.913        0.810        0.112      116.752       10.708        0.008      332.445        1.111      869.006
01/17/2014  22:37:00      -95.644      -47.943      -18.150       27.590       20.196       16.918      761.213      407.871      286.228        0.662        0.073      106.988       10.299        0.009      332.473        1.158      868.997
01/17/2014  22:38:00     -122.520      -49.135      -16.447       24.543       19.292       13.343      602.354      372.183      178.032        0.942        0.058      132.005        6.057        0.002      332.430        1.089      869.000
01/17/2014  22:39:00     -127.769      -41.718      -13.927       16.138       23.847       15.335      260.438      568.703      235.169        0.966        0.053      134.407        9.604        0.005      332.472        1.157      869.003
01/17/2014  22:40:00     -131.981      -48.320       -7.280       42.927       25.813       19.672     1842.749      666.291      387.005        1.135        0.145      140.548       19.497        0.019      332.430        1.087      869.007
01/17/2014  22:41:00     -138.866      -50.920      -12.955       23.587       16.379       12.982      556.339      268.272      168.528        1.152        0.050      147.907       13.191        0.008      332.490        1.187      869.001
01/17/2014  22:42:00     -168.109      -53.295      -12.146       21.372       20.049       13.972      456.782      401.962      195.228        1.615        0.053      176.355       10.944        0.004      332.504        1.209      869.001
01/17/2014  22:43:00     -157.521      -49.719       -8.045       17.012       15.177       12.897      289.398      230.348      166.323        1.402        0.034      165.181       10.030        0.004      332.510        1.218      869.003
01/17/2014  22:44:00     -143.955      -42.630       -7.001       41.875       29.058       18.457     1753.476      844.380      340.654        1.276        0.147      150.134       17.027        0.013      332.490        1.186      869.000
01/17/2014  22:45:00     -140.034      -39.413       -8.058       36.277       24.210       16.457     1316.057      586.107      270.821        1.170        0.109      145.475       13.654        0.009      332.549        1.285      868.985
01/17/2014  22:46:00     -134.376      -32.664       -6.128       25.704       15.902       10.826      660.721      252.886      117.194        1.010        0.052      138.289        5.046        0.001      332.489        1.184      868.964
01/17/2014  22:47:00     -107.959      -54.908      -11.310       21.572       10.188       12.301      465.345      103.798      151.325        0.776        0.036      121.120        7.613        0.004      332.489        1.185      868.951
01/17/2014  22:48:00      -96.729      -54.950       -8.673       22.431       14.396       10.967      503.153      207.232      120.270        0.664        0.042      111.247        4.041        0.001      332.440        1.104      868.944
01/17/2014  22:49:00      -90.797      -69.448       -6.516       24.200       16.550       14.770      585.630      273.911      218.155        0.709        0.054      114.312        9.426        0.007      332.522        1.238      868.938
01/17/2014  22:50:00      -70.006      -45.935       -0.400       26.229       20.654       17.509      687.940      426.586      306.577        0.422        0.071       83.730       15.352        0.034      332.491        1.187      868.929
01/17/2014  22:51:00      -86.587      -47.495      -10.971       20.510       15.385       13.571      420.677      236.712      184.178        0.536        0.042       98.758       11.591        0.014      332.516        1.228      868.932
01/17/2014  22:52:00      -79.147      -58.071       -8.156       22.073       19.468       13.971      487.209      379.013      195.186        0.538        0.053       98.166       13.793        0.020      332.528        1.247      868.930
01/17/2014  22:53:00      -77.708      -55.859       -4.480       20.576       17.151       12.103      423.375      294.171      146.478        0.502        0.043       95.702        8.212        0.007      332.519        1.234      868.921
01/17/2014  22:54:00      -94.824      -60.779       -6.569       22.503       16.695       13.944      506.394      278.730      194.430        0.685        0.049      112.631       13.498        0.014      332.549        1.284      868.918
01/17/2014  22:55:00      -98.316      -54.232      -10.783       17.501       12.306       12.034      306.284      151.446      144.822        0.666        0.030      112.281        5.241        0.002      332.526        1.246      868.919
01/17/2014  22:56:00     -106.911      -52.965      -11.948       21.276       19.856       15.719      452.668      394.243      247.093        0.774        0.055      119.312       10.537        0.008      332.537        1.264      868.917
01/17/2014  22:57:00     -110.743      -57.905      -15.498       16.560       14.993       13.724      274.226      224.781      188.360        0.827        0.034      124.968       10.139        0.007      332.567        1.313      868.913
01/17/2014  22:58:00     -118.978      -46.839      -11.294       11.789       13.743        7.840      138.976      188.878       61.459        0.843        0.019      127.866        3.480        0.001      332.515        1.227      868.913
01/17/2014  22:59:00     -110.215      -60.947       -7.400       25.552       15.988       14.029      652.880      255.616      196.813        0.851        0.055      125.944       14.489        0.013      332.535        1.260      868.915
01/17/2014  23:00:00     -102.124      -52.328        0.232       18.977       16.845       15.167      360.116      283.753      230.046        0.702        0.044      114.750       10.571        0.008      332.489        1.186      868.925
01/17/2014  23:01:00      -99.993      -45.300        0.760       19.874       14.260       11.893      394.983      203.347      141.455        0.640        0.037      109.775       11.837        0.012      332.485        1.177      868.925
01/17/2014  23:02:00     -106.955      -48.681       -1.216       24.582       15.128       10.382      604.273      228.856      107.792        0.738        0.047      117.512        9.494        0.007      332.442        1.107      868.923
01/17/2014  23:03:00     -108.391      -48.358       -4.607       14.375       15.816       10.628      206.636      250.159      112.946        0.734        0.028      118.689        7.486        0.004      332.411        1.055      868.928
01/17/2014  23:04:00     -102.733      -60.543        0.074       21.985       15.724       15.316      483.360      247.253      234.589        0.759        0.048      119.245       13.084        0.012      332.376        0.998      868.930
01/17/2014  23:05:00     -110.427      -53.319       -6.243       17.134       17.740       13.067      293.574      314.707      170.756        0.793        0.039      122.626        9.150        0.006      332.374        0.994      868.939
01/17/2014  23:06:00     -115.787      -56.583      -12.691       13.828       16.691        8.796      191.208      278.603       77.377        0.866        0.027      128.873        3.122        0.001      332.326        0.917      868.939
01/17/2014  23:07:00     -109.979      -57.676      -12.945       12.486       19.931       10.446      155.891      397.231      109.120        0.813        0.033      124.185        6.301        0.003      332.346        0.950      868.940
01/17/2014  23:08:00     -118.384      -68.078      -10.475       19.723       18.267       13.959      388.992      333.685      194.862        0.984        0.046      136.563       10.148        0.006      332.325        0.916      868.947
01/17/2014  23:09:00     -124.578      -52.459      -15.231       12.849       16.228        9.294      165.091      263.357       86.370        0.951        0.026      135.173        5.855        0.002      332.360        0.971      868.940
01/17/2014  23:10:00     -117.271      -61.042       -5.364       17.238       16.351        9.320      297.139      267.355       86.872        0.908        0.033      132.207        8.644        0.004      332.407        1.048      868.933
01/17/2014  23:11:00     -103.201      -46.728       -1.360       16.187       14.963       10.081      262.033      223.881      101.618        0.671        0.029      113.288        9.980        0.008      332.394        1.028      868.928
01/17/2014  23:12:00      -92.011      -41.677       -5.392       21.517       11.569       10.788      462.970      133.831      116.382        0.547        0.036      101.010       12.191        0.015      332.371        0.990      868.923
01/17/2014  23:13:00      -81.286      -27.548       -6.217       13.247       15.243        9.833      175.481      232.341       96.680        0.395        0.025       85.828        5.159        0.004      332.414        1.062      868.917
01/17/2014  23:14:00      -86.141      -22.388      -10.060        8.673        7.978        6.799       75.213       63.650       46.231        0.410        0.009       89.003        3.222        0.001      332.427        1.082      868.908
01/17/2014  23:15:00      -66.875      -21.723       -3.380       17.685       11.271       10.923      312.765      127.034      119.312        0.276        0.028       70.315        9.461        0.018      332.418        1.066      868.902
01/17/2014  23:16:00      -68.016      -20.936        1.651       13.552       13.421       12.468      183.666      180.136      155.449        0.279        0.026       71.165        8.360        0.014      332.410        1.055      868.908
01/17/2014  23:17:00      -94.744      -29.347       -3.567       11.681       14.814       10.499      136.440      219.460      110.233        0.516        0.023       99.185        7.296        0.005      332.344        0.945      868.914
01/17/2014  23:18:00      -91.896      -24.116       -6.023       12.475       11.094        9.303      155.617      123.077       86.550        0.471        0.018       95.008        7.696        0.007      332.281        0.842      868.911
01/17/2014  23:19:00      -83.228      -19.013       -8.145       13.927       11.960        8.496      193.959      143.040       72.175        0.388        0.020       85.372        7.058        0.007      332.282        0.843      868.921
01/17/2014  23:20:00      -82.334      -15.583       -8.158       13.458        9.941        7.424      181.113       98.815       55.115        0.371        0.017       83.796        2.870        0.001      332.289        0.854      868.914
01/17/2014  23:21:00      -71.954      -14.305      -12.679        9.311        9.069        8.570       86.701       82.251       73.446        0.289        0.012       73.362        5.752        0.006      332.311        0.890      868.908
01/17/2014  23:22:00      -75.106       -6.377       -7.192       12.808       11.199        6.663      164.049      125.411       44.401        0.303        0.017       75.376        5.962        0.006      332.353        0.962      868.908
01/17/2014  23:23:00      -58.876       -2.506      -11.754       16.023       10.444        8.700      256.732      109.067       75.683        0.203        0.022       58.930        5.469        0.009      332.331        0.923      868.918
01/17/2014  23:24:00      -33.207      -16.064       -6.440       10.391        9.959        6.347      107.974       99.190       40.281        0.082        0.012       36.888        4.204        0.013      332.321        0.904      868.908
01/17/2014  23:25:00      -18.880        0.839      -12.056       11.543       17.010        5.691      133.236      289.349       32.384        0.048        0.023       18.899        3.419        0.033      332.553        1.291      868.907
01/17/2014  23:26:00       -2.587       15.781        2.769       13.417       15.517        7.840      180.010      240.762       61.469        0.037        0.024       15.992        5.242        0.107      332.600        1.368      868.899
01/17/2014  23:27:00        6.129        1.697       11.207       25.397       10.340       10.020      645.018      106.924      100.410        0.051        0.043        6.360        6.135        0.931      332.657        1.463      868.889
01/17/2014  23:28:00      -23.136        7.118        4.351        7.225       11.161        5.709       52.200      124.560       32.597        0.041        0.010       24.206        2.258        0.009      332.673        1.490      868.886
01/17/2014  23:29:00      -30.602      -12.463       -4.977        5.952        6.191        5.637       35.431       38.331       31.781        0.061        0.005       33.042        2.052        0.004      332.323        0.913      868.878
01/17/2014  23:30:00      -24.227      -11.642       -6.509       11.935       12.436        6.857      142.451      154.660       47.022        0.055        0.017       26.879        6.287        0.055      332.372        0.991      868.872
01/17/2014  23:31:00      -50.467      -15.297       -3.470       14.706       12.715       10.479      216.271      161.661      109.805        0.164        0.024       52.734        7.755        0.022      332.365        0.981      868.866
01/17/2014  23:32:00      -57.679       -7.000       -2.848       12.493       11.881        9.675      156.080      141.169       93.614        0.189        0.020       58.103        8.582        0.022      332.536        1.264      868.860
01/17/2014  23:33:00      -30.374       19.326       -6.872       28.339       29.884       15.322      803.072      893.062      234.749        0.164        0.097       36.001       21.014        0.341      332.441        1.106      868.857
01/17/2014  23:34:00      -40.091        2.243       -8.326       16.949       18.921       11.861      287.258      357.994      140.688        0.123        0.039       40.154        8.212        0.042      332.717        1.561      868.851
01/17/2014  23:35:00      -40.625      -33.974       -8.456       12.186       16.509        8.868      148.495      272.536       78.644        0.169        0.025       52.958        5.819        0.012      332.341        0.940      868.845
01/17/2014  23:36:00      -54.283      -33.394      -11.139        9.688       10.737        7.197       93.858      115.289       51.801        0.222        0.013       63.733        3.394        0.003      332.159        0.641      868.836
01/17/2014  23:37:00      -61.482      -23.362      -11.412       12.857       10.119        7.471      165.290      102.400       55.815        0.239        0.016       65.771        3.632        0.003      331.975        0.336      868.830
01/17/2014  23:38:00      -86.096      -19.371      -15.028       12.076       10.922       10.126      145.827      119.283      102.544        0.419        0.018       88.249        7.561        0.007      331.894        0.204      868.821
01/17/2014  23:39:00      -86.916      -20.522      -18.135       14.405       11.679        7.581      207.507      136.395       57.472        0.435        0.020       89.306        4.408        0.002      331.942        0.282      868.823
01/17/2014  23:40:00      -84.608      -17.467      -17.312       16.677       13.232       11.251      278.106      175.097      126.587        0.417        0.029       86.393        6.468        0.006      332.014        0.401      868.822
01/17/2014  23:41:00      -99.935      -14.175      -19.017       15.587       15.565       14.654      242.955      242.259      214.737        0.562        0.035      100.935        7.933        0.006      331.975        0.337      868.819
01/17/2014  23:42:00      -96.339      -22.701      -14.096       24.119       22.982       18.370      581.716      528.156      337.471        0.572        0.072       98.978       12.880        0.017      331.989        0.360      868.819
01/17/2014  23:43:00      -89.811      -18.098      -14.516       21.283       20.045       12.603      452.960      401.814      158.835        0.481        0.051       91.616        8.567        0.009      331.904        0.221      868.820
01/17/2014  23:44:00     -107.233       -8.727      -12.184       30.552       21.841       16.557      933.403      477.051      274.149        0.670        0.084      107.587       12.782        0.014      331.949        0.293      868.822
01/17/2014  23:45:00      -89.297        5.418      -10.680       28.710       23.528       20.180      824.293      553.559      407.227        0.495        0.089       89.461       20.337        0.052      331.950        0.296      868.835
01/17/2014  23:46:00      -92.085      -11.902      -13.354       21.608       15.183       10.823      466.907      230.520      117.134        0.481        0.041       92.851       10.016        0.012      331.948        0.291      868.838
01/17/2014  23:47:00      -80.945      -30.329      -12.690       20.161       23.347        9.889      406.465      545.078       97.786        0.434        0.052       86.440        9.585        0.012      331.869        0.163      868.844
01/17/2014  23:48:00     -103.527      -27.242      -17.294       14.466       15.538       13.647      209.270      241.433      186.251        0.620        0.032      107.051        7.190        0.005      331.885        0.189      868.853
01/17/2014  23:49:00      -90.917      -30.507      -12.945       14.735       19.436       11.379      217.127      377.777      129.481        0.504        0.036       95.899        8.835        0.008      331.901        0.215      868.866
01/17/2014  23:50:00      -85.302      -24.988      -18.024       31.327       27.135       17.159      981.362      736.306      294.423        0.512        0.101       88.887        9.729        0.012      331.898        0.210      868.862
01/17/2014  23:51:00      -82.930      -25.164      -10.727       25.988       26.657       21.936      675.367      710.594      481.194        0.475        0.093       86.664       16.076        0.034      331.917        0.242      868.849
01/17/2014  23:52:00      -85.393      -28.500      -20.203       22.110       22.371       21.923      488.841      500.480      480.620        0.499        0.073       90.023       11.996        0.018      331.955        0.304      868.833
01/17/2014  23:53:00      -95.714      -53.915      -16.277       21.194       18.910       12.629      449.165      357.605      159.486        0.665        0.048      109.854        8.279        0.006      331.858        0.143      868.829
01/17/2014  23:54:00     -108.291      -38.611      -19.216       16.068       15.048       13.000      258.194      226.435      169.003        0.712        0.033      114.968        6.488        0.003      331.804        0.056      868.824
01/17/2014  23:55:00     -118.545      -34.225      -17.048       15.357       10.829        9.814      235.835      117.275       96.308        0.798        0.022      123.387        7.452        0.004      331.810        0.064      868.810
01/17/2014  23:56:00     -137.177      -18.401      -19.684       18.431       15.725       11.592      339.696      247.291      134.367        1.013        0.036      138.406        6.003        0.002      331.749       -0.035      868.806
01/17/2014  23:57:00     -126.469      -19.826      -15.615       12.631       14.294       13.032      159.552      204.305      169.844        0.858        0.027      128.014        8.381        0.004      331.789        0.031      868.807
01/17/2014  23:58:00     -124.423      -21.732      -14.277        9.441       12.398        8.831       89.126      153.714       77.995        0.824        0.016      126.307        4.184        0.001      331.803        0.053      868.802
01/17/2014  23:59:00     -104.384      -17.919      -15.246       16.461       12.795       13.190      270.962      163.712      173.972        0.603        0.030      105.911       10.247        0.009      331.839        0.112      868.787
